[[{"header":{"parameterUnit":"m.s-1","parameterCategory":1,"la1":31.0,"la2":29.5877,"lo1":-88.7671,"lo2":-86.6584,"dy":0.0162,"dx":0.0185,"nx":115,"ny":88,"refTime":"2023-10-21T12:00:00:Z","depth":0,"parameterNumber":2,"parameterNumberName":"U-component_of_WINDS"},"data":[0.0,0.0,0.0,0.0,0.0,0.0,0.0,0.0,0.0,0.0,0.0,0.0,0.0,0.0,0.0,0.0,0.0,0.0,0.0,0.0,0.0,0.0,0.0,0.0,0.0,0.0,0.0,0.0,0.0,0.0,0.0,0.0,0.0,0.0,0.0,0.0,0.0,0.0,0.0,0.0,0.0,0.0,0.0,0.0,0.0,0.0,0.0,0.0,0.0,0.0,0.0,0.0,0.0,0.0,0.0,0.0,0.0,0.0,0.0,0.0,0.0,0.0,0.0,0.0,0.0,0.0,0.0,0.0,0.0,0.0,0.0,0.0,0.0,0.0,0.0,0.0,0.0,0.0,0.0,0.0,0.0,0.0,0.0,0.0,0.0,0.0,0.0,0.0,0.0,0.0,0.0,0.0,0.0,0.0,0.0,0.0,0.0,0.0,0.0,0.0,0.0,0.0,0.0,0.0,0.0,0.0,0.0,0.0,0.0,0.0,0.0,0.0,0.0,0.0,0.0,0.0,0.0,0.0,0.0,0.0,0.0,0.0,0.0,0.0,0.0,0.0,0.0,0.0,0.0,0.0,0.0,0.0,0.0,0.0,0.0,0.0,0.0,0.0,0.0,0.0,0.0,0.0,0.0,0.0,0.0,0.0,0.0,0.0,0.0,0.0,0.0,0.0,0.0,0.0,0.0,0.0,0.0,0.0,0.0,0.0,0.0,0.0,0.0,0.0,0.0,0.0,0.0,0.0,0.0,0.0,0.0,0.0,0.0,0.0,0.0,0.0,0.0,0.0,0.0,0.0,0.0,0.0,0.0,0.0,0.0,0.0,0.0,0.0,0.0,0.0,0.0,0.0,0.0,0.0,0.0,0.0,0.0,0.0,0.0,0.0,0.0,0.0,0.0,0.0,0.0,0.0,0.0,0.0,0.0,0.0,0.0,0.0,0.0,0.0,0.0,0.0,0.0,0.0,0.0,0.0,0.0,0.0,0.0,0.0,0.0,0.0,0.0,0.0,0.0,0.0,0.0,0.0,0.0,0.0,0.0,0.0,0.0,0.0,0.0,0.0,0.0,0.0,0.0,0.0,0.0,0.0,0.0,0.0,0.0,0.0,0.0,0.0,0.0,0.0,0.0,0.0,0.0,0.0,0.0,0.0,0.0,0.0,0.0,0.0,0.0,0.0,0.0,0.0,0.0,0.0,0.0,0.0,0.0,0.0,0.0,0.0,0.0,0.0,0.0,0.0,0.0,0.0,0.0,0.0,0.0,0.0,0.0,0.0,0.0,0.0,0.0,0.0,0.0,0.0,0.0,0.0,0.0,0.0,0.0,0.0,0.0,0.0,0.0,0.0,0.0,0.0,0.0,0.0,0.0,0.0,0.0,0.0,0.0,0.0,0.0,0.0,0.0,0.0,0.0,0.0,0.0,0.0,0.0,0.0,0.0,0.0,0.0,0.0,0.0,0.0,0.0,0.0,0.0,0.0,0.0,0.0,0.0,0.0,0.0,0.0,0.0,0.0,0.0,0.0,0.0,0.0,0.0,0.0,0.0,0.0,0.0,0.0,0.0,0.0,0.0,0.0,0.0,0.0,0.0,0.0,0.0,0.0,0.0,0.0,0.0,0.0,0.0,0.0,0.0,0.0,0.0,0.0,0.0,0.0,0.0,0.0,0.0,0.0,0.0,0.0,0.0,0.0,0.0,0.0,0.0,0.0,0.0,0.0,0.0,0.0,0.0,0.0,0.0,0.0,0.0,0.0,0.0,0.0,0.0,0.0,0.0,0.0,0.0,0.0,0.0,0.0,0.0,0.0,0.0,0.0,0.0,0.0,0.0,0.0,0.0,0.0,0.0,0.0,0.0,0.0,0.0,0.0,0.0,0.0,0.0,0.0,0.0,0.0,0.0,0.0,0.0,0.0,0.0,0.0,0.0,0.0,0.0,0.0,0.0,0.0,0.0,0.0,0.0,0.0,0.0,0.0,0.0,0.0,0.0,0.0,0.0,0.0,0.0,0.0,0.0,0.0,0.0,0.0,0.0,0.0,0.0,0.0,0.0,0.0,0.0,0.0,0.0,0.0,0.0,0.0,0.0,0.0,0.0,0.0,0.0,0.0,0.0,0.0,0.0,0.0,0.0,0.0,0.0,0.0,0.0,0.0,0.0,0.0,0.0,0.0,0.0,0.0,0.0,0.0,0.0,0.0,0.0,0.0,0.0,0.0,0.0,0.0,0.0,0.0,0.0,0.0,0.0,0.0,0.0,0.0,0.0,0.0,0.0,0.0,0.0,0.0,0.0,0.0,0.0,0.0,0.0,0.0,0.0,0.0,0.0,0.0,0.0,0.0,0.0,0.0,0.0,0.0,0.0,0.0,0.0,0.0,0.0,0.0,0.0,0.0,0.0,0.0,0.0,0.0,0.0,0.0,0.0,0.0,0.0,0.0,0.0,0.0,0.0,0.0,0.0,0.0,0.0,0.0,0.0,0.0,0.0,0.0,0.0,0.0,0.0,0.0,0.0,0.0,0.0,0.0,0.0,0.0,0.0,0.0,0.0,0.0,0.0,0.0,0.0,0.0,0.0,0.0,0.0,0.0,0.0,0.0,0.0,0.0,0.0,0.0,0.0,0.0,0.0,0.0,0.0,0.0,0.0,0.0,0.0,0.0,0.0,0.0,0.0,0.0,0.0,0.0,0.0,0.0,0.0,0.0,0.0,0.0,0.0,0.0,0.0,0.0,0.0,0.0,0.0,0.0,0.0,0.0,0.0,0.0,0.0,0.0,0.0,0.0,0.0,0.0,0.0,0.0,0.0,0.0,0.0,0.0,0.0,0.0,0.0,0.0,0.0,0.0,0.0,0.0,0.0,0.0,0.0,0.0,0.0,0.0,0.0,0.0,0.0,0.0,0.0,0.0,0.0,0.0,0.0,0.0,0.0,0.0,0.0,0.0,0.0,0.0,0.0,0.0,0.0,0.0,0.0,0.0,0.0,0.0,0.0,0.0,0.0,0.0,0.0,0.0,0.0,0.0,0.0,0.0,0.0,0.0,0.0,0.0,0.0,0.0,0.0,0.0,0.0,0.0,0.0,0.0,0.0,0.0,0.0,0.0,0.0,0.0,0.0,0.0,0.0,0.0,0.0,0.0,0.0,0.0,0.0,0.0,0.0,0.0,0.0,0.0,0.0,0.0,0.0,0.0,0.0,0.0,0.0,0.0,0.0,0.0,0.0,0.0,0.0,0.0,0.0,0.0,0.0,0.0,0.0,0.0,0.0,0.0,0.0,0.0,0.0,0.0,0.0,0.0,0.0,0.0,0.0,0.0,0.0,0.0,0.0,0.0,0.0,0.0,0.0,0.0,0.0,0.0,0.0,0.0,0.0,0.0,0.0,0.0,0.0,0.0,0.0,0.0,0.0,0.0,0.0,0.0,0.0,0.0,0.0,0.0,0.0,0.0,0.0,0.0,0.0,0.0,0.0,0.0,0.0,0.0,0.0,0.0,0.0,0.0,0.0,0.0,0.0,0.0,0.0,0.0,0.0,0.0,0.0,0.0,0.0,0.0,0.0,0.0,0.0,0.0,0.0,0.0,0.0,0.0,0.0,0.0,0.0,0.0,0.0,0.0,0.0,0.0,0.0,0.0,0.0,0.0,0.0,0.0,0.0,0.0,0.0,0.0,0.0,0.0,0.0,0.0,0.0,0.0,0.0,0.0,0.0,0.0,0.0,0.0,0.0,0.0,0.0,0.0,0.0,0.0,0.0,0.0,0.0,0.0,0.0,0.0,0.0,0.0,0.0,0.0,0.0,0.0,0.0,0.0,0.0,0.0,0.0,0.0,0.0,0.0,0.0,0.0,0.0,0.0,0.0,0.0,0.0,0.0,0.0,0.0,0.0,0.0,0.0,0.0,0.0,0.0,0.0,0.0,0.0,0.0,0.0,0.0,0.0,0.0,0.0,0.0,0.0,0.0,0.0,0.0,0.0,0.0,0.0,0.0,0.0,0.0,0.0,0.0,0.0,0.0,0.0,0.0,0.0,0.0,0.0,0.0,0.0,0.0,0.0,0.0,0.0,0.0,0.0,0.0,0.0,0.0,0.0,0.0,0.0,0.0,0.0,0.0,0.0,0.0,0.0,0.0,0.0,0.0,0.0,0.0,0.0,0.0,0.0,0.0,0.0,0.0,0.0,0.0,0.0,0.0,0.0,0.0,0.0,0.0,0.0,0.0,0.0,0.0,0.0,0.0,0.0,0.0,0.0,0.0,0.0,0.0,0.0,0.0,0.0,0.0,1.0828,0.0,0.0,0.0,0.0,0.0,0.0,0.0,0.0,0.0,0.0,0.0,0.0,0.0,0.0,0.0,0.0,0.0,0.0,0.0,0.0,0.0,0.0,0.0,0.0,0.0,0.0,0.0,0.0,0.0,0.0,0.0,0.0,0.0,0.0,0.0,0.0,0.0,0.0,0.0,0.0,0.0,0.0,0.0,0.0,0.0,0.0,0.0,0.0,0.0,0.0,0.0,0.0,0.0,0.0,0.0,0.0,0.0,0.0,0.0,0.0,0.0,0.0,0.0,0.0,0.0,0.0,0.0,0.0,0.0,0.0,0.0,0.0,0.0,0.0,0.0,0.0,0.0,0.0,0.0,0.0,0.0,0.0,0.0,0.0,0.0,0.0,0.0,0.0,0.0,0.0,0.0,0.0,0.0,0.0,0.0,0.0,0.0,0.0,0.0,0.0,0.0,0.0,0.0,0.0,0.0,0.0,0.0,0.0,0.0,0.0,0.4758,0.6185,0.778,0.9145,1.0271,0.0,0.0,0.0,0.0,0.0,0.0,0.0,0.0,0.0,0.0,0.0,0.0,0.0,0.0,0.0,0.0,0.0,0.0,0.0,0.0,0.0,0.0,0.0,0.0,0.0,0.0,0.0,0.0,0.0,0.0,0.0,0.0,0.0,0.0,0.0,0.0,0.0,0.0,0.0,0.0,0.0,0.0,0.0,0.0,0.0,0.0,0.0,0.0,0.0,0.0,0.0,0.0,0.0,0.0,0.0,0.0,0.0,0.0,0.0,0.0,0.0,0.0,0.0,0.0,0.0,0.0,0.0,0.0,0.0,0.0,0.0,0.0,0.0,0.0,0.0,0.0,0.0,0.0,0.0,0.0,0.0,0.0,0.0,0.0,0.0,0.0,0.0,0.0,0.0,0.0,0.0,0.0,0.0,0.0,0.0,0.0,0.0,0.0,0.0,0.0,0.0,0.0,0.0,0.0,0.0,0.0,0.0,0.0,0.0,0.0,0.0,0.0,0.6969,0.8869,1.03,0.0,0.0,0.0,0.0,0.0,0.0,0.0,0.0,0.0,0.0,0.0,0.0,0.0,0.0,0.0,0.0,0.0,0.0,0.0,0.0,0.0,0.0,0.0,0.0,0.0,0.0,0.0,0.0,0.0,0.0,0.0,0.0,0.0,0.0,0.0,0.0,0.0,0.0,0.0,0.0,0.0,0.0,0.0,0.0,0.0,0.0,0.0,0.0,0.0,0.0,0.0,0.0,0.0,0.0,0.0,0.0,0.0,0.0,0.0,0.0,0.0,0.0,0.0,0.0,0.0,0.0,0.0,0.0,0.0,0.0,0.0,0.0,0.0,0.0,0.0,0.0,0.0,0.0,0.0,0.0,0.0,0.0,0.0,0.0,0.0,0.0,0.0,0.0,0.0,0.0,0.0,0.0,0.0,0.0,0.0,0.0,0.0,0.0,0.0,0.0,0.0,0.0,0.0,0.0,0.0,0.0,0.0,0.0,0.0,0.0,0.1028,0.3072,0.6786,0.0,1.1531,0.0,0.0,0.0,0.0,0.0,0.0,0.0,0.0,0.0,0.0,0.0,0.0,0.0,0.0,0.0,0.0,0.0,0.0,0.0,0.0,0.0,0.0,0.0,0.0,0.0,0.0,0.0,0.0,0.0,0.0,0.0,0.0,0.0,0.0,0.0,0.0,0.0,0.0,0.0,0.0,0.0,0.0,0.0,0.0,0.0,0.0,0.0,0.0,0.0,0.0,0.0,0.0,0.0,0.0,0.0,0.0,0.0,0.0,0.0,0.0,0.0,0.0,0.0,0.0,0.0,0.0,0.0,0.0,0.0,0.0,0.0,0.0,0.0,0.0,0.0,0.0,0.0,0.0,0.0,0.0,0.0,0.0,0.0,0.0,0.0,0.0,0.0,0.0,0.0,0.0,0.0,0.0,0.0,0.0,0.0,0.0,0.0,0.0,0.0,0.0,0.0,0.0,0.0,0.0,0.0,0.0,0.0,0.0,0.0,0.0,-0.1241,0.0828,0.5038,0.8076,0.0,0.0,0.0,0.0,0.0,0.0,0.0,0.0,0.0,0.0,0.0,0.0,0.0,0.0,0.0,0.0,0.0,0.0,0.0,0.0,0.0,0.0,0.0,0.0,0.0,0.0,0.0,0.0,0.0,0.0,0.0,0.0,0.0,0.0,0.0,0.0,0.0,0.0,0.0,0.0,0.0,0.0,0.0,0.0,0.0,0.0,0.0,0.0,0.0,0.0,0.0,0.0,0.0,0.0,0.0,0.0,0.0,0.0,0.0,0.0,0.0,0.0,0.0,0.0,0.0,0.0,0.0,0.0,0.0,0.0,0.0,0.0,0.0,0.0,0.0,0.0,0.0,0.0,0.0,0.0,0.0,0.0,0.0,0.0,0.0,0.0,0.0,0.0,0.0,0.0,0.0,0.0,0.0,0.0,0.0,0.0,0.0,0.0,0.0,0.0,0.0,0.0,0.0,0.0,0.0,0.0,0.0,0.0,0.0,0.0,-0.5658,-0.37,-0.0972,0.223,0.4746,0.6364,0.0,0.0,0.0,0.0,0.0,0.0,0.0,0.0,0.0,0.0,0.0,0.0,0.0,0.0,0.0,0.0,0.0,0.0,0.0,0.0,0.0,0.0,0.0,0.0,0.0,0.0,0.0,0.0,0.0,0.0,0.0,0.0,0.0,0.0,0.0,0.0,0.0,0.0,0.0,0.0,0.0,0.0,0.0,0.0,0.0,0.0,0.0,0.0,0.0,0.0,0.0,0.0,0.0,0.0,0.0,0.0,0.0,0.0,0.0,0.0,0.0,0.0,0.0,0.0,0.0,0.0,0.0,0.0,0.0,0.0,0.0,0.0,0.0,0.0,0.0,0.0,0.0,0.0,0.0,0.0,0.0,0.0,0.0,0.0,0.0,0.0,0.0,0.0,0.0,0.0,0.0,0.0,0.0,0.0,0.0,0.0,0.0,0.0,0.0,0.0,0.0,0.0,0.0,0.0,0.0,0.0,0.0,0.0,-0.9641,-0.8885,-0.6429,-0.2291,-0.1731,-0.0502,0.0,0.0,0.0,0.0,0.0,0.0,0.0,0.0,0.0,0.0,0.0,0.0,0.0,0.0,0.0,0.0,0.0,0.0,0.0,0.0,0.0,0.0,0.0,0.0,0.0,0.0,0.0,0.0,0.0,0.0,0.0,0.0,0.0,0.0,0.0,0.0,0.0,0.0,0.0,0.0,0.0,0.0,0.0,0.0,0.0,0.0,0.0,0.0,0.0,0.0,0.0,0.0,0.0,0.0,0.0,0.0,0.0,0.0,0.0,0.0,0.0,0.0,0.0,0.0,0.0,0.0,0.0,0.0,0.0,0.0,0.0,0.0,0.0,0.0,0.0,0.0,0.0,0.0,0.0,0.0,0.0,0.0,0.0,0.0,0.0,0.0,0.0,0.0,0.0,0.0,0.0,0.0,0.0,0.0,0.0,0.0,0.0,0.0,0.0,0.0,0.0,0.0,0.0,0.0,0.0,0.0,0.0,0.0,0.0,-1.3124,-1.256,-1.0425,-0.6796,-0.6702,-0.5526,0.0,0.0,0.0,0.0,0.0,0.0,0.0,0.0,0.0,0.0,0.0,0.0,0.0,0.0,0.0,0.0,0.0,0.0,0.0,0.0,0.0,0.0,0.0,0.0,0.0,0.0,0.0,0.0,0.0,0.0,0.0,0.0,0.0,0.0,0.0,0.0,0.0,0.0,0.0,0.0,0.0,0.0,0.0,0.0,0.0,0.0,0.0,0.0,0.0,0.0,0.0,0.0,0.0,0.0,0.0,0.0,0.0,0.0,0.0,0.0,0.0,0.0,0.0,0.0,0.0,0.0,0.0,0.0,0.0,0.0,0.0,0.0,0.0,0.0,0.0,0.0,0.0,0.0,0.0,0.0,0.0,0.0,0.0,0.0,0.0,0.0,0.0,0.0,0.0,0.0,0.0,0.0,0.0,0.0,0.0,0.0,0.0,0.0,0.0,0.0,0.0,0.0,0.0,0.0,0.0,0.0,0.0,0.0,0.0,-1.6469,0.0,-1.4986,-1.2582,-1.2155,-1.0917,0.0,0.0,0.0,0.0,0.0,0.0,0.0,0.0,0.0,0.0,0.0,0.0,0.0,0.0,0.0,0.0,0.0,0.0,0.0,0.0,0.0,0.0,0.0,0.0,0.0,0.0,0.0,0.0,0.0,0.0,0.0,0.0,0.0,0.0,0.0,0.0,0.0,0.0,0.0,0.0,0.0,0.0,0.0,0.0,0.0,0.0,0.0,0.0,0.0,0.0,0.0,0.0,0.0,0.0,0.0,0.0,0.0,0.0,0.0,0.0,0.0,0.0,0.0,0.0,0.0,0.0,0.0,0.0,0.0,0.0,0.0,0.0,0.0,0.0,0.0,0.0,0.0,0.0,0.0,0.0,0.0,0.0,0.0,0.0,0.0,0.0,0.0,0.0,0.0,0.0,0.0,0.0,0.0,0.0,0.0,0.0,0.0,0.0,0.0,0.0,0.0,0.0,0.0,0.0,0.0,0.0,0.0,0.0,-1.8961,-1.9625,-2.0183,-2.0077,-1.94,-1.8006,-1.6661,0.0,0.0,0.0,0.0,0.0,0.0,0.0,0.0,0.0,0.0,0.0,0.0,0.0,0.0,0.0,0.0,0.0,0.0,0.0,0.0,0.0,0.0,0.0,0.0,0.0,0.0,0.0,0.0,0.0,0.0,0.0,0.0,0.0,0.0,0.0,0.0,0.0,0.0,0.0,0.0,0.0,0.0,0.0,0.0,0.0,0.0,0.0,0.0,0.0,0.0,0.0,0.0,0.0,0.0,0.0,0.0,0.0,0.0,0.0,0.0,0.0,0.0,0.0,0.0,0.0,0.0,0.0,0.0,0.0,0.0,0.0,0.0,0.0,0.0,0.0,0.0,0.0,0.0,0.0,0.0,0.0,0.0,0.0,0.0,0.0,0.0,0.0,0.0,0.0,0.0,0.0,0.0,0.0,0.0,0.0,0.0,0.0,0.0,0.0,0.0,0.0,0.0,0.0,0.0,0.0,0.0,0.0,0.0,0.0,-2.3565,-2.4651,-2.4503,-2.3027,-2.2173,-2.0505,0.0,0.0,0.0,0.0,0.0,0.0,0.0,0.0,0.0,0.0,0.0,0.0,0.0,0.0,0.0,0.0,0.0,0.0,0.0,0.0,0.0,0.0,0.0,0.0,0.0,0.0,0.0,0.0,0.0,0.0,0.0,0.0,0.0,0.0,0.0,0.0,0.0,0.0,0.0,0.0,0.0,0.0,0.0,0.0,0.0,0.0,0.0,0.0,0.0,0.0,0.0,0.0,0.0,0.0,0.0,0.0,0.0,0.0,0.0,0.0,0.0,0.0,0.0,0.0,0.0,0.0,0.0,0.0,0.0,0.0,0.0,0.0,0.0,0.0,0.0,0.0,0.0,0.0,0.0,0.0,0.0,0.0,0.0,0.0,0.0,0.0,0.0,0.0,0.0,0.0,0.0,0.0,0.0,0.0,0.0,0.0,0.0,0.0,0.0,0.0,0.0,0.0,0.0,0.0,0.0,0.0,0.0,0.0,0.0,-2.7296,-2.7815,-2.7493,-2.6203,-2.5091,-2.3114,-2.0195,0.0,0.0,0.0,0.0,0.0,0.0,0.0,0.0,0.0,0.0,0.0,0.0,0.0,0.0,0.0,0.0,0.0,0.0,0.0,0.0,0.0,0.0,0.0,0.0,0.0,0.0,0.0,0.0,0.0,0.0,0.0,0.0,0.0,0.0,0.0,0.0,0.0,0.0,0.0,0.0,0.0,0.0,0.0,0.0,0.0,0.0,0.0,0.0,0.0,0.0,0.0,0.0,0.0,0.0,0.0,0.0,0.0,0.0,0.0,0.0,0.0,0.0,0.0,0.0,0.0,0.0,0.0,0.0,0.0,0.0,0.0,0.0,0.0,0.0,0.0,0.0,0.0,0.0,0.0,0.0,0.0,0.0,0.0,0.0,0.0,0.0,0.0,0.0,0.0,0.0,0.0,0.0,0.0,0.0,0.0,0.0,0.0,0.0,0.0,0.0,0.0,0.0,0.0,0.0,0.0,0.0,0.0,0.0,-3.0732,-2.9995,-2.9367,-2.8849,-2.6969,-2.476,0.0,0.0,0.0,0.0,0.0,0.0,0.0,0.0,0.0,0.0,0.0,0.0,0.0,0.0,0.0,0.0,0.0,0.0,0.0,0.0,0.0,0.0,0.0,0.0,0.0,0.0,0.0,0.0,0.0,0.0,0.0,0.0,0.0,0.0,0.0,0.0,0.0,0.0,0.0,0.0,0.0,0.0,0.0,0.0,0.0,0.0,0.0,0.0,0.0,0.0,0.0,0.0,0.0,0.0,0.0,0.0,0.0,0.0,0.0,0.0,0.0,0.0,0.0,0.0,0.0,0.0,0.0,0.0,0.0,0.0,0.0,0.0,0.0,0.0,0.0,0.0,0.0,0.0,0.0,0.0,0.0,0.0,0.0,0.0,0.0,0.0,0.0,0.0,0.0,0.0,0.0,0.0,0.0,0.0,0.0,0.0,0.0,0.0,0.0,0.0,0.0,0.0,0.0,0.0,0.0,0.0,0.0,0.0,0.0,-3.2472,-3.2925,-3.2156,-3.0114,-2.8542,-2.6326,0.0,0.0,0.0,0.0,0.0,0.0,0.0,0.0,0.0,0.0,0.0,0.0,0.0,0.0,0.0,0.0,0.0,0.0,0.0,0.0,0.0,0.0,0.0,0.0,0.0,0.0,0.0,0.0,0.0,0.0,0.0,0.0,0.0,0.0,0.0,0.0,0.0,0.0,0.0,0.0,0.0,0.0,0.0,0.0,0.0,0.0,0.0,0.0,0.0,0.0,0.0,0.0,0.0,0.0,0.0,0.0,0.0,0.0,0.0,0.0,0.0,0.0,0.0,0.0,0.0,0.0,0.0,0.0,0.0,0.0,0.0,0.0,0.0,0.0,0.0,0.0,0.0,0.0,0.0,0.0,0.0,0.0,0.0,0.0,0.0,0.0,0.0,0.0,0.0,0.0,0.0,0.0,0.0,0.0,0.0,0.0,0.0,0.0,0.0,0.0,0.0,0.0,0.0,0.0,0.0,0.0,0.0,0.0,-3.1902,-3.3153,-3.44,-3.4098,-3.2111,-3.0386,-2.7824,0.0,0.0,0.0,0.0,0.0,0.0,0.0,0.0,0.0,0.0,0.0,0.0,0.0,0.0,0.0,0.0,0.0,0.0,0.0,0.0,0.0,0.0,0.0,0.0,0.0,0.0,0.0,0.0,0.0,0.0,0.0,0.0,0.0,0.0,0.0,0.0,0.0,0.0,0.0,0.0,0.0,0.0,0.0,0.0,0.0,0.0,0.0,0.0,0.0,0.0,0.0,0.0,0.0,0.0,0.0,0.0,0.0,0.0,0.0,0.0,0.0,0.0,0.0,0.0,0.0,0.0,0.0,0.0,0.0,0.0,0.0,0.0,0.0,0.0,0.0,0.0,0.0,0.0,0.0,0.0,0.0,0.0,0.0,0.0,0.0,0.0,0.0,0.0,0.0,0.0,0.0,0.0,0.0,0.0,0.0,0.0,0.0,0.0,0.0,0.0,0.0,0.0,0.0,0.0,0.0,0.0,0.0,0.0,-3.2336,-3.3112,-3.4766,-3.5146,-3.4038,-3.2054,-2.9174,0.0,0.0,0.0,0.0,0.0,0.0,0.0,0.0,0.0,0.0,0.0,0.0,0.0,0.0,0.0,0.0,0.0,0.0,0.0,0.0,0.0,0.0,0.0,0.0,0.0,0.0,0.0,0.0,0.0,0.0,0.0,0.0,0.0,0.0,0.0,0.0,0.0,0.0,0.0,0.0,0.0,0.0,0.0,0.0,0.0,0.0,0.0,0.0,0.0,0.0,0.0,0.0,0.0,0.0,0.0,0.0,0.0,0.0,0.0,0.0,0.0,0.0,0.0,0.0,0.0,0.0,0.0,0.0,0.0,0.0,0.0,0.0,0.0,0.0,0.0,0.0,0.0,0.0,0.0,0.0,0.0,0.0,0.0,0.0,0.0,0.0,0.0,0.0,0.0,0.0,0.0,0.0,0.0,0.0,0.0,0.0,0.0,0.0,0.0,0.0,0.0,0.0,0.0,0.0,0.0,0.0,0.0,0.0,-3.2305,-3.3083,-3.4139,-3.4129,-3.2966,-3.1675,-2.9719,0.0,0.0,0.0,0.0,0.0,0.0,0.0,0.0,0.0,0.0,0.0,0.0,0.0,0.0,0.0,0.0,0.0,0.0,0.0,0.0,0.0,0.0,0.0,0.0,0.0,0.0,0.0,0.0,0.0,0.0,0.0,0.0,0.0,0.0,0.0,0.0,0.0,0.0,0.0,0.0,0.0,0.0,0.0,0.0,0.0,0.0,0.0,0.0,-1.5676,0.0,0.0,0.0,0.0,0.0,0.0,0.0,0.0,0.0,0.0,0.0,0.0,0.0,0.0,0.0,0.0,0.0,0.0,0.0,0.0,0.0,0.0,0.0,0.0,0.0,0.0,0.0,0.0,0.0,0.0,0.0,0.0,0.0,0.0,0.0,0.0,0.0,0.0,0.0,0.0,0.0,0.0,0.0,0.0,0.0,0.0,0.0,0.0,0.0,0.0,0.0,0.0,0.0,0.0,0.0,0.0,0.0,0.0,0.0,-3.2599,-3.301,-3.3881,-3.391,-3.3056,-3.167,-2.9588,0.0,0.0,0.0,0.0,0.0,0.0,0.0,0.0,0.0,0.0,0.0,0.0,0.0,0.0,0.0,0.0,0.0,0.0,0.0,0.0,0.0,0.0,0.0,0.0,0.0,0.0,0.0,0.0,0.0,0.0,0.0,0.0,0.0,0.0,0.0,0.0,0.0,0.0,0.0,0.0,0.0,0.0,0.0,0.0,0.0,0.0,0.0,0.0,0.0,0.0,0.0,0.0,0.0,0.0,0.0,0.0,0.0,0.0,0.0,0.0,0.0,0.0,0.0,0.0,0.0,0.0,0.0,0.0,0.0,0.0,0.0,0.0,0.0,0.0,0.0,0.0,0.0,0.0,0.0,0.0,0.0,0.0,0.0,0.0,0.0,0.0,0.0,0.0,0.0,0.0,0.0,0.0,0.0,0.0,0.0,0.0,0.0,0.0,0.0,0.0,0.0,0.0,0.0,0.0,0.0,0.0,0.0,-3.1788,-3.2625,-3.2736,-3.3416,-3.3595,-3.3184,-3.1619,-2.92,-2.5942,0.0,0.0,0.0,0.0,0.0,0.0,0.0,0.0,0.0,0.0,0.0,0.0,0.0,0.0,0.0,0.0,0.0,0.0,0.0,0.0,0.0,0.0,0.0,0.0,0.0,0.0,0.0,0.0,0.0,0.0,0.0,0.0,0.0,0.0,0.0,0.0,0.0,0.0,-1.5511,-1.7896,0.0,0.0,0.0,0.0,0.0,0.0,0.0,0.0,-2.1485,0.0,0.0,0.0,0.0,0.0,0.0,0.0,0.0,0.0,0.0,0.0,0.0,0.0,0.0,0.0,0.0,0.0,0.0,0.0,0.0,0.0,0.0,0.0,0.0,0.0,0.0,0.0,0.0,0.0,0.0,0.0,0.0,0.0,0.0,0.0,0.0,0.0,0.0,0.0,0.0,0.0,0.0,0.0,0.0,0.0,0.0,0.0,0.0,0.0,0.0,0.0,0.0,0.0,0.0,0.0,0.0,-2.9236,-3.0239,-3.1097,-3.1789,-3.191,-3.1764,-3.1374,-3.0823,-2.8956,-2.5681,0.0,0.0,0.0,0.0,0.0,0.0,0.0,0.0,0.0,0.0,0.0,0.0,0.0,0.0,0.0,0.0,0.0,0.0,0.0,0.0,0.0,0.0,0.0,0.0,0.0,0.0,0.0,0.0,0.0,0.0,0.0,0.0,0.0,0.0,0.0,0.0,0.0,0.0,0.0,-2.3097,-2.4621,0.0,0.0,0.0,0.0,0.0,0.0,0.0,0.0,-2.3362,0.0,0.0,0.0,0.0,0.0,0.0,0.0,0.0,0.0,0.0,0.0,0.0,0.0,0.0,0.0,0.0,0.0,0.0,0.0,0.0,0.0,0.0,0.0,0.0,0.0,0.0,0.0,0.0,0.0,0.0,0.0,0.0,0.0,0.0,0.0,0.0,0.0,0.0,0.0,0.0,0.0,0.0,0.0,0.0,0.0,0.0,0.0,0.0,0.0,0.0,0.0,0.0,0.0,0.0,0.0,-3.0163,-3.0642,-3.1226,-3.1917,-3.1492,-3.1257,-3.1285,-3.0209,-2.8415,0.0,0.0,0.0,0.0,0.0,0.0,0.0,0.0,0.0,0.0,0.0,0.0,0.0,0.0,0.0,0.0,0.0,0.0,0.0,0.0,0.0,0.0,0.0,0.0,0.0,0.0,0.0,0.0,0.0,0.0,0.0,0.0,0.0,0.0,0.0,0.0,0.0,0.0,0.0,0.0,-2.674,-2.7897,-3.0072,0.0,0.0,0.0,0.0,0.0,0.0,-2.7098,-2.5344,0.0,0.0,0.0,0.0,0.0,0.0,0.0,0.0,0.0,0.0,0.0,0.0,0.0,0.0,0.0,0.0,0.0,0.0,0.0,0.0,0.0,0.0,0.0,0.0,0.0,0.0,0.0,0.0,0.0,0.0,0.0,0.0,0.0,0.0,0.0,0.0,0.0,0.0,0.0,0.0,0.0,0.0,0.0,0.0,0.0,0.0,0.0,0.0,0.0,0.0,0.0,0.0,0.0,0.0,0.0,-3.1001,-3.1089,-3.1295,-3.1727,-3.1053,-3.0804,-3.1038,-2.949,-2.7707,0.0,0.0,0.0,0.0,0.0,0.0,0.0,0.0,0.0,0.0,0.0,0.0,0.0,0.0,0.0,0.0,0.0,0.0,0.0,0.0,0.0,0.0,0.0,0.0,0.0,0.0,0.0,0.0,0.0,0.0,0.0,0.0,0.0,0.0,0.0,0.0,0.0,0.0,0.0,0.0,0.0,-3.0493,-3.302,-3.1662,0.0,0.0,0.0,0.0,-3.0492,-2.8728,0.0,0.0,0.0,0.0,0.0,0.0,0.0,0.0,0.0,0.0,0.0,0.0,0.0,0.0,0.0,0.0,0.0,0.0,0.0,0.0,0.0,0.0,0.0,0.0,0.0,0.0,0.0,0.0,0.0,0.0,0.0,0.0,0.0,0.0,0.0,0.0,0.0,0.0,0.0,0.0,0.0,0.0,0.0,0.0,0.0,0.0,0.0,0.0,0.0,0.0,0.0,0.0,0.0,0.0,0.0,0.0,-3.0002,-3.0009,-2.9995,-2.9999,-2.9681,-2.9314,-2.8968,-2.8352,-2.6852,0.0,0.0,0.0,0.0,0.0,0.0,0.0,0.0,0.0,0.0,0.0,0.0,0.0,0.0,0.0,0.0,0.0,0.0,0.0,0.0,0.0,0.0,0.0,0.0,0.0,0.0,0.0,0.0,0.0,0.0,0.0,0.0,0.0,0.0,0.0,0.0,0.0,0.0,0.0,0.0,0.0,-3.2093,-3.4723,-3.344,-3.2327,0.0,0.0,0.0,-3.2645,-3.0883,0.0,0.0,0.0,0.0,0.0,0.0,0.0,0.0,0.0,0.0,0.0,0.0,0.0,0.0,0.0,0.0,0.0,0.0,0.0,0.0,0.0,0.0,0.0,0.0,0.0,0.0,0.0,0.0,0.0,0.0,0.0,0.0,0.0,0.0,0.0,0.0,0.0,0.0,0.0,0.0,0.0,0.0,0.0,0.0,0.0,0.0,0.0,0.0,0.0,0.0,0.0,0.0,0.0,0.0,0.0,-2.7783,-2.8967,-2.9363,-2.9719,-3.0064,-2.9322,-2.8967,-2.9078,-2.7649,-2.5919,0.0,0.0,0.0,0.0,0.0,0.0,0.0,0.0,0.0,0.0,0.0,0.0,0.0,0.0,0.0,0.0,0.0,0.0,0.0,0.0,0.0,0.0,0.0,0.0,0.0,0.0,0.0,0.0,0.0,0.0,0.0,0.0,0.0,0.0,0.0,0.0,0.0,0.0,0.0,0.0,0.0,0.0,-3.4734,-3.4541,0.0,0.0,0.0,-3.335,-3.2812,0.0,0.0,0.0,0.0,0.0,0.0,0.0,0.0,0.0,0.0,0.0,0.0,0.0,0.0,0.0,0.0,0.0,0.0,0.0,0.0,0.0,0.0,0.0,0.0,0.0,0.0,0.0,0.0,0.0,0.0,0.0,0.0,0.0,0.0,0.0,0.0,0.0,0.0,0.0,0.0,0.0,0.0,0.0,0.0,0.0,0.0,0.0,0.0,0.0,0.0,0.0,0.0,0.0,0.0,0.0,0.0,0.0,-2.8203,-2.8868,-2.9447,-2.9895,-2.8948,-2.847,-2.8536,-2.6775,0.0,0.0,0.0,0.0,0.0,0.0,0.0,0.0,0.0,0.0,0.0,0.0,0.0,0.0,0.0,0.0,0.0,0.0,0.0,0.0,0.0,0.0,0.0,0.0,0.0,0.0,0.0,-1.806,0.0,0.0,0.0,0.0,0.0,0.0,0.0,0.0,0.0,0.0,0.0,0.0,0.0,0.0,-3.3769,-3.4597,-3.5104,-3.5107,0.0,0.0,-3.377,-3.2585,-3.1977,-3.0651,0.0,0.0,0.0,0.0,0.0,0.0,0.0,0.0,0.0,0.0,0.0,0.0,0.0,0.0,0.0,0.0,0.0,0.0,0.0,0.0,0.0,0.0,0.0,0.0,0.0,0.0,0.0,0.0,0.0,0.0,0.0,0.0,0.0,0.0,0.0,0.0,0.0,0.0,0.0,0.0,0.0,0.0,0.0,0.0,0.0,0.0,0.0,0.0,0.0,0.0,0.0,0.0,0.0,0.0,0.0,-2.7925,-2.8411,-2.8688,-2.8694,-2.8138,-2.7291,-2.6186,-2.5559,-2.4064,0.0,0.0,0.0,0.0,0.0,0.0,0.0,0.0,0.0,0.0,0.0,0.0,0.0,0.0,0.0,0.0,0.0,0.0,0.0,0.0,0.0,0.0,0.0,0.0,0.0,0.0,0.0,0.0,0.0,0.0,0.0,0.0,0.0,0.0,0.0,0.0,0.0,0.0,0.0,0.0,0.0,-3.3766,-3.4855,-3.4864,-3.4626,0.0,0.0,-3.3128,-3.2523,-3.1879,-3.0658,-2.8167,0.0,0.0,0.0,0.0,0.0,0.0,0.0,0.0,0.0,0.0,0.0,0.0,0.0,0.0,0.0,0.0,0.0,0.0,0.0,0.0,0.0,0.0,0.0,0.0,0.0,0.0,0.0,0.0,0.0,0.0,0.0,0.0,0.0,0.0,0.0,0.0,0.0,0.0,0.0,0.0,0.0,0.0,0.0,0.0,0.0,0.0,0.0,0.0,0.0,0.0,0.0,0.0,0.0,-2.5828,-2.6777,-2.7252,-2.77,-2.8139,-2.7619,-2.6782,-2.5749,-2.448,-2.2991,0.0,0.0,0.0,0.0,0.0,0.0,0.0,0.0,0.0,0.0,0.0,0.0,0.0,0.0,0.0,0.0,0.0,0.0,0.0,0.0,0.0,0.0,0.0,0.0,0.0,0.0,0.0,0.0,-2.404,-2.5302,-2.5768,0.0,0.0,0.0,0.0,0.0,0.0,0.0,0.0,0.0,0.0,-3.3469,-3.4317,-3.4448,0.0,0.0,-3.3502,-3.3153,-3.1769,-3.1248,-3.0192,-2.7771,-2.5882,0.0,0.0,0.0,0.0,0.0,0.0,0.0,0.0,0.0,0.0,0.0,0.0,0.0,0.0,0.0,0.0,0.0,0.0,0.0,0.0,0.0,0.0,0.0,0.0,0.0,0.0,0.0,0.0,0.0,0.0,0.0,0.0,0.0,0.0,0.0,0.0,0.0,0.0,0.0,0.0,0.0,0.0,0.0,0.0,0.0,0.0,0.0,0.0,0.0,0.0,0.0,0.0,-2.4782,-2.5493,-2.618,-2.676,-2.7221,-2.6705,-2.593,-2.4879,-2.3416,-2.1894,0.0,0.0,0.0,0.0,0.0,0.0,0.0,0.0,0.0,0.0,0.0,0.0,0.0,0.0,0.0,0.0,0.0,0.0,0.0,0.0,0.0,0.0,0.0,0.0,0.0,0.0,0.0,0.0,-2.5638,-2.6745,-2.6504,0.0,0.0,0.0,0.0,0.0,0.0,0.0,0.0,0.0,0.0,-3.3452,-3.3919,-3.4,-3.3729,-3.2857,-3.3005,-3.271,-3.1205,-3.0718,-2.9743,-2.7583,0.0,0.0,0.0,0.0,0.0,0.0,0.0,0.0,0.0,0.0,0.0,0.0,0.0,0.0,0.0,0.0,0.0,0.0,0.0,0.0,0.0,0.0,0.0,0.0,0.0,0.0,0.0,0.0,0.0,0.0,0.0,0.0,0.0,0.0,0.0,0.0,0.0,0.0,0.0,0.0,0.0,0.0,0.0,0.0,0.0,0.0,0.0,0.0,0.0,0.0,0.0,0.0,0.0,0.0,-2.4156,-2.5316,-2.5846,-2.5734,-2.5346,-2.4559,-2.3291,-2.2274,-2.085,-1.9011,0.0,0.0,0.0,0.0,0.0,0.0,0.0,0.0,0.0,0.0,0.0,0.0,0.0,0.0,0.0,0.0,0.0,0.0,0.0,0.0,0.0,0.0,0.0,0.0,0.0,0.0,-2.545,-2.6719,-2.7381,0.0,0.0,0.0,0.0,0.0,0.0,0.0,0.0,0.0,0.0,-3.2932,-3.3832,-3.3694,-3.3487,-3.3118,-3.2656,-3.2104,-3.1537,-3.0896,-3.0404,-2.9549,0.0,0.0,0.0,0.0,0.0,0.0,0.0,0.0,0.0,0.0,0.0,0.0,0.0,0.0,0.0,0.0,0.0,0.0,0.0,0.0,0.0,0.0,0.0,0.0,0.0,0.0,0.0,-2.9237,-2.9853,0.0,0.0,0.0,0.0,0.0,0.0,0.0,0.0,0.0,0.0,0.0,-3.0072,-3.077,0.0,0.0,0.0,0.0,0.0,0.0,0.0,0.0,0.0,0.0,0.0,0.0,-2.343,-2.3488,-2.4558,-2.4813,-2.4282,-2.4753,-2.4099,-2.2201,-2.1725,-2.0338,-1.7948,0.0,0.0,0.0,0.0,0.0,0.0,0.0,0.0,0.0,0.0,0.0,0.0,0.0,0.0,0.0,0.0,0.0,0.0,0.0,0.0,0.0,0.0,0.0,0.0,0.0,-2.5693,0.0,0.0,0.0,0.0,0.0,0.0,0.0,0.0,0.0,0.0,0.0,-3.1982,-3.2499,-3.2856,-3.3033,-3.3071,-3.2873,-3.2508,0.0,0.0,0.0,0.0,0.0,0.0,0.0,0.0,0.0,0.0,0.0,0.0,0.0,0.0,-2.1083,-1.9572,-1.9247,-1.9191,-1.9021,0.0,0.0,0.0,0.0,0.0,0.0,0.0,0.0,0.0,0.0,0.0,0.0,0.0,0.0,0.0,0.0,-3.0367,0.0,0.0,0.0,0.0,0.0,0.0,0.0,0.0,-2.9839,-3.016,-2.9728,-3.1155,-3.1012,0.0,-2.8652,-2.7141,0.0,0.0,0.0,0.0,0.0,0.0,0.0,0.0,-2.2718,-2.2889,-2.3489,-2.3643,-2.3342,-2.3612,-2.3142,-2.1786,-2.1262,-1.9962,-1.7781,-1.6946,-1.6345,0.0,0.0,0.0,0.0,0.0,0.0,0.0,0.0,0.0,0.0,0.0,0.0,0.0,0.0,0.0,0.0,0.0,0.0,0.0,0.0,0.0,0.0,0.0,-2.6894,0.0,0.0,0.0,0.0,0.0,0.0,0.0,0.0,0.0,-2.9711,-3.1006,-3.2075,-3.2422,-3.2517,-3.2547,-3.2641,0.0,0.0,0.0,0.0,0.0,0.0,0.0,-2.8102,-2.7595,-2.6518,-2.5504,-2.4841,-2.4078,-2.3485,-2.312,0.0,0.0,-2.0711,-2.0312,-2.0079,-1.9889,-1.967,-1.9403,-1.9092,-1.8941,-1.8954,0.0,0.0,0.0,0.0,0.0,0.0,0.0,0.0,-3.0111,-3.0369,0.0,-3.0007,0.0,0.0,0.0,0.0,0.0,0.0,0.0,0.0,-3.0754,-3.091,-2.8604,-3.0468,-3.0114,-2.7712,-2.6864,-2.6338,-2.6107,-2.6161,0.0,0.0,0.0,0.0,0.0,0.0,-2.1964,-2.2443,-2.2309,-2.241,-2.2785,-2.2034,-2.1692,-2.1864,-2.0819,-1.964,-1.8454,-1.7429,-1.68,-1.6478,-1.5256,0.0,0.0,0.0,0.0,0.0,0.0,0.0,0.0,0.0,0.0,0.0,0.0,0.0,0.0,0.0,0.0,0.0,0.0,0.0,0.0,-2.632,0.0,0.0,0.0,0.0,0.0,0.0,0.0,0.0,0.0,0.0,-2.8929,-3.0806,-3.2017,-3.1551,0.0,0.0,0.0,0.0,-3.1495,-3.1495,-3.0792,-3.0266,-3.0054,-2.9512,-2.8817,-2.8091,0.0,0.0,-2.5312,-2.4694,-2.4234,-2.3886,-2.3432,-2.2855,-2.217,-2.1511,-2.0889,-2.035,-1.9885,-1.9262,-1.8828,-1.9105,-1.9258,-3.4884,0.0,0.0,0.0,0.0,-3.2648,-3.2492,-3.2306,-3.311,-3.2694,-3.1369,-3.0846,0.0,0.0,0.0,0.0,0.0,0.0,-2.8345,-2.7888,-2.8945,-2.9257,-2.8966,-2.9614,-2.9655,-2.9144,-2.8265,-2.7696,-2.7385,-2.6774,-2.5707,-2.4248,0.0,0.0,0.0,0.0,-2.1969,-2.1956,-2.2603,-2.2559,-2.1761,-2.2071,-2.1505,-2.0039,-1.9248,-1.8275,-1.7123,-1.646,-1.6118,-1.5985,-1.5023,0.0,0.0,0.0,0.0,0.0,0.0,0.0,0.0,0.0,0.0,0.0,0.0,0.0,0.0,0.0,0.0,0.0,0.0,0.0,-2.4997,-2.6279,-2.7034,0.0,0.0,0.0,0.0,0.0,0.0,0.0,0.0,0.0,-2.9481,-3.0836,-3.1959,0.0,0.0,-3.1805,-3.2197,-3.1516,-3.0984,-3.0866,0.0,0.0,0.0,-2.8994,-2.83,-2.7723,-2.685,-2.5955,-2.5382,-2.5121,-2.4943,-2.4873,-2.4753,-2.4518,-2.4025,-2.2947,-2.1977,-2.1321,-2.0964,-2.0597,-1.9732,-1.9434,-1.9285,-3.7202,-3.6546,-3.4403,-3.3826,-3.422,-3.3579,-3.325,-3.3184,-3.3731,-3.3046,-3.1555,-3.1056,-3.0181,-2.9018,-2.8287,0.0,0.0,0.0,-2.7904,-2.7818,-2.7877,-2.8123,-2.8476,-2.8443,-2.8533,-2.8689,-2.7863,-2.7326,-2.7029,-2.6068,-2.4946,-2.3794,0.0,0.0,-2.131,-2.1471,-2.1587,-2.1663,-2.192,-2.175,-2.1155,-2.1401,-2.0643,-1.8877,-1.8687,-1.8047,-1.6848,-1.6248,-1.5903,-1.5843,-1.4918,-1.4337,0.0,0.0,0.0,0.0,0.0,0.0,0.0,0.0,0.0,0.0,0.0,-1.8481,0.0,0.0,0.0,0.0,-2.2761,-2.3851,-2.5246,-2.5802,0.0,0.0,0.0,0.0,0.0,0.0,0.0,-2.7272,-2.7952,-2.8608,-2.9215,-3.0132,-3.1102,-3.193,-3.1471,-3.1191,-3.1574,0.0,-3.0522,-3.0447,-3.0205,-2.9775,-2.9324,-2.8753,-2.8105,-2.7175,-2.644,-2.5758,-2.5382,-2.5312,-2.524,-2.5047,-2.4999,-2.4859,-2.4543,-2.3395,-2.2419,-2.1954,-2.1655,-2.112,-2.0161,-1.9792,-1.9605,-3.8765,-3.8475,-3.6036,-3.5145,-3.5211,-3.3743,-3.3149,-3.3183,-3.2721,-3.2109,-3.1278,-3.0725,-2.9917,-2.8858,-2.7992,0.0,0.0,-2.7701,-2.7659,-2.7496,-2.7477,-2.7435,-2.7373,-2.7134,-2.7006,-2.7031,-2.6199,-2.5715,-2.5488,-2.4528,-2.3619,-2.2831,-2.344,-2.29,-2.1247,-2.0893,-2.1025,-2.1577,-2.0654,-2.0354,-2.0775,-2.0259,-1.9384,-1.819,-1.88,-1.8556,-1.7255,-1.6476,-1.6045,-1.5831,-1.4907,-1.443,-1.4408,0.0,0.0,0.0,0.0,0.0,0.0,0.0,0.0,0.0,0.0,0.0,0.0,0.0,0.0,0.0,-2.3409,0.0,-2.5005,-2.5113,0.0,0.0,0.0,-2.5729,-2.5952,-2.6293,-2.6743,-2.7398,0.0,0.0,0.0,0.0,-2.9685,-3.0762,-3.0702,-3.0582,-3.0775,-3.0384,-3.0111,-3.0251,-2.9931,-2.9574,-2.9085,-2.8583,-2.7762,-2.646,-2.5983,-2.5587,-2.5202,-2.5097,-2.4905,-2.4554,-2.4458,-2.4253,-2.392,-2.3041,-2.2291,-2.2157,-2.1738,-2.1075,-1.9993,-1.9766,-1.9687,-3.7165,-3.7082,-3.6221,-3.6204,-3.6638,-3.5561,-3.4686,-3.3962,-3.3242,-3.2067,-3.0548,-2.9917,-2.9151,-2.8205,-2.7777,-2.7569,-2.7587,-2.7526,-2.7469,-2.7438,-2.7258,-2.7244,-2.7296,-2.6595,-2.6289,-2.6285,-2.5536,-2.5056,-2.4822,-2.4483,-2.3716,-2.2654,-2.272,-2.2118,-2.0924,-2.0695,-2.0855,-2.1435,-2.0971,-2.0513,-2.0055,-1.9333,-1.8537,-1.7693,-1.7866,-1.7483,-1.6516,-1.6183,-1.5913,-1.5581,-1.4929,-1.4569,-1.4534,-1.4321,0.0,0.0,0.0,0.0,0.0,0.0,0.0,0.0,0.0,-1.9309,-1.9012,0.0,-2.2279,0.0,-2.2964,-2.4,-2.4581,-2.4635,0.0,0.0,-2.5092,-2.5154,-2.5025,-2.5625,-2.6249,-2.6895,-2.7207,-2.7646,-2.8614,-2.8734,-2.8958,-2.954,-2.9808,-3.024,-3.0898,-3.0368,-2.987,-2.9856,-2.9393,-2.9008,-2.8675,-2.7615,-2.6413,-2.5144,-2.4834,-2.4548,-2.4225,-2.4154,-2.4098,-2.3946,-2.3728,-2.33,-2.288,-2.2365,-2.1662,-2.0978,-2.0596,-2.0173,-1.9115,-1.8952,-1.8851,-3.6618,-3.6591,-3.639,-3.6321,-3.6259,-3.5733,-3.4727,-3.3424,-3.2918,-3.1719,-3.0073,-2.9275,-2.8536,-2.7882,-2.7659,-2.7587,-2.7557,-2.7452,-2.7327,-2.7264,-2.7152,-2.6963,-2.6747,-2.6224,-2.5876,-2.5592,-2.4734,-2.4211,-2.4015,-2.3421,-2.2729,-2.1988,-2.1778,-2.134,-2.0677,-2.0494,-2.0559,-2.0773,-2.0339,-1.9891,-1.9493,-1.8775,-1.8175,-1.7598,-1.7227,-1.6778,-1.6231,-1.5824,-1.5496,-1.5253,-1.4807,-1.4569,-1.4523,-1.4233,-1.4144,0.0,0.0,0.0,0.0,0.0,0.0,0.0,0.0,0.0,0.0,0.0,-2.2297,0.0,-2.289,0.0,-2.3962,-2.3838,-2.3869,-2.4093,-2.4459,-2.4675,-2.4721,-2.5269,-2.588,-2.6533,-2.6587,-2.6843,-2.7476,-2.7521,-2.7597,-2.7849,-2.8381,-2.8983,-2.9602,-2.9454,-2.9083,-2.8497,-2.8415,-2.8261,-2.792,-2.6644,-2.5469,-2.4814,-2.4377,-2.4056,-2.3851,-2.3814,-2.3723,-2.3311,-2.3018,-2.2741,-2.216,-2.1374,-2.0698,-2.0247,-1.9595,-1.9193,-1.8968,-1.8726,-1.8495,-3.6382,-3.6311,-3.625,-3.5789,-3.5036,-3.4906,-3.3897,-3.2402,-3.2092,-3.1109,-2.9712,-2.8765,-2.8146,-2.7789,-2.7689,-2.7617,-2.7509,-2.7348,-2.7172,-2.7012,-2.6894,-2.653,-2.5988,-2.5777,-2.5382,-2.4804,-2.3916,-2.3357,-2.3123,-2.2079,-2.1479,-2.1277,-2.0958,-2.0695,-2.0494,-2.0339,-2.0146,-1.9884,-1.9362,-1.9064,-1.8974,-1.845,-1.7989,-1.7639,-1.6934,-1.6448,-1.62,-1.5558,-1.5096,-1.4903,-1.4754,-1.4581,-1.4419,-1.4102,-1.4275,0.0,-1.5148,0.0,0.0,0.0,0.0,0.0,0.0,0.0,0.0,-2.1134,-2.1965,-2.2967,-2.2992,-2.3032,-2.3292,-2.3132,-2.3127,-2.3339,-2.3901,-2.43,-2.4611,-2.5017,-2.5508,-2.6073,-2.6131,-2.606,-2.61,-2.6113,-2.6241,-2.6379,-2.6961,-2.7417,-2.7625,-2.8166,-2.8158,-2.6816,-2.7209,-2.737,-2.662,-2.5645,-2.489,-2.453,-2.4025,-2.3741,-2.3574,-2.3466,-2.3281,-2.2604,-2.2303,-2.2031,-2.1615,-2.0479,-1.9709,-1.9797,-1.8909,-1.8439,-1.8818,-1.8699,-1.8521,-3.4825,-3.4801,-3.4734,-3.4587,-3.4328,-3.3617,-3.3029,-3.247,-3.1169,-2.9984,-2.8986,-2.8641,-2.8414,-2.8317,-2.7933,-2.7742,-2.7695,-2.6859,-2.6492,-2.6445,-2.5784,-2.5438,-2.5322,-2.4528,-2.4093,-2.3977,-2.3117,-2.2609,-2.2411,-2.2024,-2.1661,-2.1309,-2.1007,-2.0712,-2.0339,0.0,0.0,0.0,-1.9228,-1.8898,-1.8461,-1.8149,-1.7801,-1.7474,-1.7044,0.0,-1.6188,-1.5836,-1.5424,-1.4949,-1.48,0.0,0.0,0.0,0.0,0.0,0.0,0.0,0.0,0.0,0.0,0.0,-1.8208,-1.8888,-1.9936,-2.0716,-2.1596,-2.2676,-2.2749,-2.2784,-2.2969,-2.3754,-2.3917,-2.3261,-2.404,-2.4568,-2.4307,-2.4601,-2.4988,-2.5335,-2.577,-2.5998,-2.5913,-2.628,-2.6358,-2.5988,-2.6277,-2.6206,-2.5673,-2.6918,-2.7516,-2.6748,-2.6506,-2.5936,-2.4544,-2.4459,-2.4087,-2.3201,-2.2797,-2.2662,-2.2546,-2.2305,-2.2091,-2.1839,-2.136,-2.0857,-2.051,-1.9976,-1.9438,-1.893,-1.86,-1.8397,-1.8282,-1.8046,-1.7841,-3.4409,0.0,-3.4335,-3.4046,0.0,-3.2725,-3.2038,-3.1513,-3.0654,-2.9774,-2.8887,-2.8718,-2.8644,-2.8583,-2.7718,-2.7384,-2.7341,-2.6332,-2.5795,-2.5681,-2.5322,-2.4969,-2.4649,-2.4078,-2.3598,-2.3237,-2.2757,-2.2405,-2.218,-2.1915,-2.148,-2.0835,-2.0558,-2.0051,-1.9333,-1.9254,-1.9218,-1.9228,-1.9026,-1.8798,-1.8489,-1.8135,-1.7868,-1.7651,0.0,0.0,0.0,0.0,0.0,0.0,0.0,0.0,0.0,0.0,0.0,-1.6214,-1.6383,-1.6678,-1.7101,-1.7372,-1.7543,-1.7733,-1.8425,-1.9099,-1.9878,-2.0711,-2.1391,-2.1916,-2.2025,-2.2261,-2.2653,-2.3207,-2.3542,-2.3368,-2.3946,-2.4285,-2.4322,-2.4585,-2.5005,-2.524,-2.5428,-2.5546,-2.5785,-2.5524,-2.5445,-2.5406,-2.5516,-2.5366,-2.4872,-2.5748,-2.6452,-2.5773,-2.5189,-2.4707,-2.4137,-2.3756,-2.3514,-2.2805,-2.2466,-2.2247,-2.1987,-2.1812,-2.1572,-2.1169,-2.0711,-2.0399,-1.9922,-1.9594,-1.9285,-1.8875,-1.8607,-1.8337,-1.8134,-1.7998,-1.7872,-3.4046,-3.3979,-3.3952,-3.3492,-3.2776,-3.1935,-3.1114,-3.0287,0.0,0.0,0.0,-2.8699,-2.8573,-2.8427,-2.7217,-2.6695,-2.6676,-2.5667,-2.51,-2.4923,-2.4858,-2.4485,-2.3884,-2.3779,-2.3352,-2.2703,-2.2542,-2.2326,-2.1955,-2.1645,-2.1059,-2.0228,-1.9823,-1.9155,-1.8221,-1.8291,-1.8498,-1.8838,-1.8817,-1.8721,-1.8595,-1.8214,-1.7935,-1.7801,-1.6934,-1.6423,-1.6281,-1.5659,-1.5165,-1.4903,-1.4846,-1.4862,-1.4952,-1.505,-1.5454,-1.6197,-1.635,-1.6525,-1.6796,-1.7058,-1.7462,-1.7889,-1.8658,-1.932,-1.9851,-2.0705,-2.1244,-2.121,-2.1458,-2.1785,-2.2199,-2.2492,-2.2887,-2.3454,-2.3671,-2.3888,-2.4096,-2.449,-2.4827,-2.5107,-2.5078,-2.5136,-2.5344,-2.4827,-2.4346,-2.4619,-2.4684,-2.4541,-2.4164,-2.4721,-2.513,-2.4563,-2.4165,-2.3776,-2.3821,-2.3502,-2.2955,-2.2635,-2.23,-2.1937,-2.16,-2.1463,-2.1158,-2.0529,-2.0335,-2.0074,-1.9671,-1.9407,-1.9131,-1.9075,-1.8674,-1.8317,-1.818,-1.8035,-1.7852,-3.25,-3.2422,-3.2416,-3.2339,-3.2168,-3.1241,-3.0341,-2.9558,-2.9493,-2.9289,-2.8943,-2.8067,-2.761,-2.7434,-2.6267,-2.5791,-2.5738,-2.4804,-2.4322,0.0,-2.3675,-2.3282,-2.305,-2.2998,-2.2842,-2.2623,-2.247,-2.1972,-2.1167,-2.087,-2.0291,-1.9414,-1.8866,-1.8268,-1.7709,-1.7894,-1.8057,-1.8078,-1.848,-1.8556,-1.8282,-1.8043,-1.7747,-1.7446,-1.682,-1.6392,-1.6188,-1.5614,-1.5165,-1.4903,-1.4846,-1.4717,-1.454,-1.4886,-1.5159,-1.5312,-1.5694,-1.5916,-1.6003,-1.6645,-1.7431,-1.8251,-1.8594,-1.9066,-1.984,-2.0273,-2.0699,-2.1112,-2.1544,-2.1777,-2.1642,-2.238,-2.291,-2.3084,-2.3244,-2.3219,-2.313,-2.3577,-2.3932,-2.4013,-2.4728,-2.4906,-2.4486,-2.46,-2.4427,-2.3866,-2.3748,-2.3513,-2.3386,-2.362,-2.3803,-2.3628,-2.3567,-2.3355,-2.3021,-2.3028,-2.2504,-2.1753,-2.1526,-2.1272,-2.0756,-2.0501,-2.0245,-2.0139,-1.9825,-1.9661,-1.9486,-1.9407,-1.9079,-1.8859,-1.8546,-1.8235,-1.7691,-1.7566,-1.7492,-3.2126,-3.2145,-3.2102,-3.1553,-3.0597,-2.9305,-2.8501,-2.8108,-2.807,-2.8233,-2.8402,-2.7368,-2.6909,-2.6813,-2.5649,-2.5162,-2.5165,-2.4131,-2.3603,-2.3484,-2.3177,-2.2995,-2.2816,-2.2468,-2.2159,-2.1935,-2.1394,-2.0853,-2.0338,-2.0069,-1.9525,-1.8676,-1.7663,-1.7289,-1.7602,-1.7524,-1.7662,-1.7912,-1.8437,-1.8556,-1.8254,-1.8109,-1.7868,-1.7584,-1.6863,-1.6349,-1.6088,-1.5457,-1.4971,-1.4743,-1.4719,-1.4702,-1.4814,-1.4985,-1.5225,-1.5487,-1.5665,-1.5785,-1.5785,-1.6374,-1.7058,-1.7835,-1.7912,-1.8295,-1.8996,-1.9532,-1.9934,-2.018,-2.0562,-2.0947,-2.121,-2.1435,-2.1745,-2.2165,-2.2335,-2.2567,-2.2811,-2.345,-2.3997,-2.4215,-2.4568,-2.4756,-2.4589,-2.4325,-2.4151,-2.3771,-2.3378,-2.2812,-2.2425,-2.2375,-2.2602,-2.3012,-2.2823,-2.2445,-2.2092,-2.1717,-2.127,-2.061,-2.0514,-2.027,-1.9767,-1.9456,-1.928,-1.9028,-1.8786,-1.8723,-1.8617,-1.8478,-1.8433,-1.8455,-1.8031,-1.7686,-1.75,-1.7187,-1.6876,-3.1562,-3.1429,-3.1336,-3.0395,-2.8876,-2.7642,-2.7064,-2.6991,-2.6823,-2.7047,-2.7379,-2.6539,-2.6155,-2.6103,-2.4959,-2.4497,-2.4459,-2.365,-2.3168,-2.3045,-2.3045,-2.2952,-2.2764,-2.2243,-2.171,-2.1071,-2.0543,-2.0077,-1.9569,-1.93,-1.8724,-1.7813,-1.6647,-1.6441,-1.7156,-1.6957,-1.7139,-1.7684,-1.82,-1.8401,-1.8279,-1.8189,-1.7989,-1.7557,-1.6837,-1.6306,-1.6001,-1.5277,-1.4777,-1.4662,-1.4616,-1.47,-1.4908,-1.4941,-1.5105,-1.5404,-1.5498,-1.5618,-1.5826,-1.6164,-1.6677,-1.7413,-1.7379,-1.7533,-1.8146,-1.8638,-1.9084,-1.9277,-1.9519,-1.9843,-2.0335,-2.0211,-2.0205,-2.0855,-2.1163,-2.1463,-2.1982,-2.2823,-2.3466,-2.3779,-2.3815,-2.3948,-2.4014,-2.3548,-2.3135,-2.31,-2.2707,-2.2097,-2.1637,-2.1369,-2.1654,-2.1962,-2.1881,-2.1543,-2.1163,-2.0676,-2.01,-1.9584,-1.944,-1.9197,-1.8753,-1.8538,-1.8405,-1.8101,-1.8018,-1.7936,-1.7761,-1.7647,-1.7665,-1.7708,-1.7386,-1.7026,-1.685,-1.6379,-1.6018,-2.9825,-2.9148,-2.9023,-2.8308,-2.7344,-2.7138,-2.699,-2.6842,-2.6226,-2.5893,-2.5913,-2.5493,-2.523,-2.5009,-2.4078,-2.3682,-2.3682,-2.3442,-2.3265,-2.3102,-2.3168,-2.3003,-2.2686,-2.2703,-2.1747,-2.0187,-2.0585,-2.0052,-1.8751,-1.8557,-1.7834,-1.6593,-1.6151,-1.5886,-1.5727,-1.5973,-1.6398,-1.6964,-1.7475,-1.788,-1.8201,-1.8043,-1.7706,-1.7227,-1.6667,-1.6238,-1.5988,-1.521,-1.4811,-1.4869,-1.4708,-1.4545,-1.4496,-1.446,-1.4471,-1.4537,-1.4537,-1.4875,-1.5665,-1.5829,-1.6348,-1.7357,-1.7368,-1.7401,-1.7578,-1.764,-1.8078,-1.8654,-1.8757,-1.8794,-1.889,-1.8857,-1.9006,-1.9474,-1.9723,-1.9817,-2.0111,-2.0452,-2.0791,-2.0955,-2.1665,-2.1817,-2.1878,-2.1873,-2.1743,-2.1403,-2.1346,-2.1156,-2.0839,-2.0621,-2.0475,-2.0531,-2.0519,-2.0589,-2.0263,-2.0041,-1.9387,-1.884,-1.8643,-1.8337,-1.792,-1.7789,-1.7771,-1.7582,-1.7616,-1.7523,-1.7441,-1.7346,-1.7119,-1.6981,-1.668,-1.635,-1.5561,-1.512,-1.4958,-2.837,-2.8079,-2.7896,-2.7269,-2.6388,-2.5901,-2.5624,-2.5517,-2.5235,-2.5069,-2.4999,-2.4689,-2.4511,-2.4369,-2.3833,-2.3594,-2.3539,-2.3407,-2.3307,-2.3164,-2.2687,-2.2314,-2.2114,-2.1105,-2.0137,-1.9234,-1.9068,-1.8593,-1.7897,-1.7548,-1.7258,-1.6971,-1.6351,-1.6006,-1.6037,-1.6016,-1.6061,-1.6135,-1.6492,-1.6789,-1.7002,-1.7555,-1.7531,-1.6849,-1.6418,-1.6076,-1.5724,-1.5131,-1.4765,-1.4593,-1.4512,-1.4466,-1.443,-1.443,-1.443,-1.443,-1.443,-1.4679,-1.5356,-1.5662,-1.6173,-1.7025,-1.7103,-1.7245,-1.7545,-1.7283,-1.7374,-1.7868,-1.8181,-1.8455,-1.8594,-1.8447,-1.8449,-1.8672,-1.8964,-1.9149,-1.9321,-1.9854,-2.0274,-2.0251,-2.051,-2.0698,-2.0589,-2.0754,-2.0716,-2.0249,-2.0161,-2.0077,-1.9799,-1.9471,-1.9116,-1.8904,-1.886,-1.8953,-1.9023,-1.868,-1.8235,-1.7799,-1.7546,-1.7323,-1.7082,-1.6943,-1.6922,-1.6953,-1.6806,-1.6736,-1.6624,-1.6467,-1.6317,-1.6182,-1.6009,-1.5585,-1.4739,-1.4523,-1.4532,-2.7472,-2.7281,-2.6882,-2.6273,-2.5574,-2.4957,-2.4663,-2.458,-2.4599,-2.4564,-2.4532,-2.4302,-2.4172,-2.4016,-2.3813,-2.366,-2.3585,-2.3471,-2.3354,-2.32,-2.2353,-2.172,-2.1129,-2.0095,-1.916,-1.8576,-1.8035,-1.756,-1.7183,-1.6789,-1.6795,-1.6949,-1.6268,-1.595,-1.6109,-1.5823,-1.5651,-1.5616,-1.5792,-1.5855,-1.5906,-1.6723,-1.685,-1.6101,-1.5827,-1.5532,-1.512,-1.4606,-1.4339,-1.4314,-1.4233,-1.4253,-1.443,-1.443,-1.443,-1.443,-1.443,-1.4657,-1.5258,-1.5578,-1.6036,-1.6731,-1.6783,-1.6909,-1.7145,-1.6864,-1.6694,-1.6995,-1.7541,-1.7954,-1.8132,-1.8035,-1.7953,-1.8113,-1.8351,-1.8464,-1.8544,-1.9091,-1.9356,-1.9345,-1.9378,-1.9562,-1.9574,-1.9665,-1.9568,-1.9274,-1.9179,-1.9097,-1.8774,-1.8433,-1.8052,-1.7744,-1.7545,-1.7578,-1.7842,-1.7676,-1.7166,-1.6973,-1.6831,-1.6854,-1.6456,-1.6389,-1.6216,-1.6295,-1.5926,-1.5672,-1.5694,-1.5547,-1.54,-1.5463,-1.5214,-1.4802,-1.4107,-1.4072,-1.3761,-2.7402,-2.6561,-2.5608,-2.5152,-2.4846,-2.4749,-2.4623,-2.4435,-2.4524,-2.4513,-2.4336,-2.4336,-2.4339,-2.4115,-2.3759,-2.3656,-2.3607,-2.3585,-2.3494,-2.3265,-2.2412,-2.1261,-1.9877,-2.0062,-1.9386,-1.8037,-1.8153,-1.7764,-1.6889,-1.6543,-1.6332,-1.6169,-1.5712,-1.5388,-1.5294,-1.5063,-1.5113,-1.5444,-1.5353,-1.5209,-1.5007,-1.5325,-1.5325,-1.4954,-1.4678,-1.4353,-1.3965,-1.3519,-1.3524,-1.3971,-1.3839,-1.3903,-1.4343,-1.4373,-1.4373,-1.443,-1.443,-1.4777,-1.5513,-1.5647,-1.5944,-1.6675,-1.6455,-1.6218,-1.6513,-1.6285,-1.6171,-1.6363,-1.6835,-1.7127,-1.7183,-1.7296,-1.7288,-1.7467,-1.7445,-1.7512,-1.7445,-1.7656,-1.7567,-1.7846,-1.8069,-1.8269,-1.8374,-1.8251,-1.8299,-1.8242,-1.8196,-1.8185,-1.8118,-1.7799,-1.7468,-1.7245,-1.6965,-1.6761,-1.6998,-1.7019,-1.6828,-1.6669,-1.6597,-1.6739,-1.6519,-1.6242,-1.5968,-1.5733,-1.54,-1.5118,-1.4893,-1.4715,-1.4616,-1.4519,-1.4297,-1.3847,-1.3528,-1.3103,-1.292,-2.6101,-2.5676,-2.5279,-2.5,-2.4851,-2.4798,-2.4426,-2.388,-2.3824,-2.35,-2.2978,-2.2873,-2.3067,-2.34,-2.3227,-2.3361,-2.3753,-2.37,-2.3611,-2.3361,-2.1985,-2.095,-2.035,-1.9264,-1.8386,-1.7843,-1.7691,-1.7335,-1.6723,-1.634,-1.6179,-1.6039,-1.5624,-1.5374,-1.5209,-1.4949,-1.4763,-1.4572,-1.4413,-1.4211,-1.3973,-1.3851,-1.3702,-1.3594,-1.4004,-1.4106,-1.3853,-1.3481,-1.3334,-1.3406,-1.3301,-1.3423,-1.3903,-1.4163,-1.4316,-1.4373,-1.4326,-1.4432,-1.4875,-1.5143,-1.5528,-1.6093,-1.619,-1.6266,-1.662,-1.6457,-1.6306,-1.6467,-1.6627,-1.6786,-1.6965,-1.7301,-1.7567,-1.7634,-1.7634,-1.759,-1.749,-1.7423,-1.7423,-1.7434,-1.749,-1.7534,-1.7645,-1.7755,-1.781,-1.7755,-1.7689,-1.7634,-1.7523,-1.7256,-1.7022,-1.6853,-1.6684,-1.6581,-1.6591,-1.6602,-1.6488,-1.6384,-1.6304,-1.6229,-1.6014,-1.5869,-1.5606,-1.5322,-1.5001,-1.4765,-1.4538,-1.4359,-1.4181,-1.3941,-1.364,-1.3338,-1.3033,-1.2736,-1.249,-2.6197,-2.6033,-2.5685,-2.5488,-2.5346,-2.4998,-2.4331,-2.3558,-2.3487,-2.294,-2.22,-2.2017,-2.2234,-2.2555,-2.2539,-2.272,-2.3247,-2.3557,-2.3696,-2.3464,-2.1905,-2.0985,-2.039,-1.8801,-1.7836,-1.7582,-1.7248,-1.6914,-1.657,-1.6219,-1.6039,-1.5911,-1.5536,-1.5269,-1.5149,-1.4918,-1.4543,-1.4065,-1.3908,-1.3687,-1.3335,-1.3035,-1.2826,-1.2817,-1.3285,-1.3477,-1.326,-1.2981,-1.2854,-1.2803,-1.2702,-1.2997,-1.3641,-1.4076,-1.4326,-1.4373,-1.4316,-1.4356,-1.4613,-1.4882,-1.5124,-1.5474,-1.5532,-1.5802,-1.6098,-1.6079,-1.6095,-1.6234,-1.657,-1.6751,-1.6909,-1.7357,-1.7623,-1.7623,-1.7678,-1.7634,-1.7401,-1.7412,-1.7423,-1.7323,-1.7267,-1.7211,-1.7211,-1.7323,-1.7312,-1.7245,-1.7245,-1.719,-1.7022,-1.6864,-1.6637,-1.6457,-1.6524,-1.6353,-1.6181,-1.6124,-1.6181,-1.6134,-1.6085,-1.5918,-1.5585,-1.539,-1.5214,-1.4911,-1.4588,-1.4359,-1.4189,-1.407,-1.383,-1.3588,-1.3285,-1.292,-1.2674,-1.2428,-1.2182,-2.7808,-2.7557,-2.685,-2.6221,-2.6041,-2.5133,-2.4331,-2.3535,-2.3422,-2.2745,-2.1849,-2.1939,-2.181,-2.1898,-2.1818,-2.1822,-2.2172,-2.3057,-2.343,-2.3119,-2.2212,-2.1255,-2.0308,-1.9123,-1.8094,-1.7394,-1.6993,-1.6712,-1.6528,-1.6163,-1.5898,-1.561,-1.5344,-1.5117,-1.4902,-1.4808,-1.4529,-1.4065,-1.3894,-1.3607,-1.3163,-1.2943,-1.2768,-1.2579,-1.2603,-1.2447,-1.2062,-1.2036,-1.2125,-1.2223,-1.22,-1.268,-1.3477,-1.4034,-1.434,-1.4329,-1.4362,-1.4613,-1.4914,-1.4795,-1.4739,-1.4935,-1.4714,-1.4693,-1.4899,-1.5119,-1.5437,-1.5699,-1.6254,-1.6701,-1.6837,-1.6982,-1.7081,-1.7067,-1.7357,-1.7357,-1.7179,-1.729,-1.7412,-1.7267,-1.7088,-1.7011,-1.6955,-1.6909,-1.6864,-1.6751,-1.6751,-1.6761,-1.6637,-1.6513,-1.641,-1.6228,-1.6124,-1.6009,-1.5826,-1.5633,-1.5758,-1.5846,-1.5861,-1.5781,-1.5281,-1.5006,-1.4768,-1.4483,-1.4181,-1.3941,-1.3778,-1.3597,-1.3415,-1.3111,-1.2805,-1.2552,-1.2305,-1.2112,-1.1864,-2.7141,-2.6931,-2.5428,-2.5138,-2.5403,-2.4011,-2.3144,-2.281,-2.2199,-2.1362,-2.0613,-2.0406,-2.0604,-2.0991,-2.1055,-2.132,-2.1804,-2.2135,-2.2162,-2.1985,-2.1519,-2.103,-2.0397,-1.9335,-1.8243,-1.7297,-1.6831,-1.6659,-1.6538,-1.6108,-1.5827,-1.5741,-1.5299,-1.4996,-1.4825,-1.462,-1.4287,-1.3908,-1.3661,-1.3357,-1.2978,-1.2838,-1.2745,-1.2615,-1.2556,-1.2389,-1.2258,-1.2102,-1.2073,-1.2133,-1.1968,-1.2113,-1.268,-1.3368,-1.3792,-1.3936,-1.4163,-1.423,-1.418,-1.4148,-1.4202,-1.4357,-1.4369,-1.4584,-1.4889,-1.5151,-1.5287,-1.5324,-1.5626,-1.5829,-1.5818,-1.5882,-1.6213,-1.6935,-1.7123,-1.7079,-1.6824,-1.6933,-1.6976,-1.6987,-1.692,-1.6797,-1.6729,-1.6662,-1.644,-1.6255,-1.6389,-1.64,-1.6171,-1.6093,-1.6056,-1.5894,-1.5778,-1.5662,-1.542,-1.5177,-1.5177,-1.5235,-1.53,-1.5333,-1.4883,-1.457,-1.4339,-1.409,-1.3726,-1.3528,-1.3363,-1.318,-1.3058,-1.2805,-1.2552,-1.2305,-1.1988,-1.1732,-1.1421,-2.7365,-2.6641,-2.5164,-2.462,-2.4678,-2.3245,-2.2446,-2.2089,-2.1498,-2.071,-1.9998,-1.9782,-1.9929,-2.0299,-2.0296,-2.048,-2.0866,-2.0731,-2.0608,-2.0624,-2.0883,-2.0582,-1.9958,-1.8833,-1.7978,-1.7273,-1.6847,-1.6633,-1.6581,-1.6151,-1.5856,-1.5697,-1.5299,-1.4996,-1.4842,-1.462,-1.43,-1.3821,-1.3573,-1.3242,-1.2943,-1.2768,-1.2627,-1.2508,-1.2473,-1.2437,-1.2377,-1.2222,-1.2066,-1.2039,-1.189,-1.1976,-1.2214,-1.2796,-1.3238,-1.3368,-1.3592,-1.3733,-1.3522,-1.369,-1.3772,-1.3836,-1.4006,-1.4302,-1.4665,-1.4903,-1.512,-1.5122,-1.5175,-1.5133,-1.5091,-1.5091,-1.5415,-1.5842,-1.6178,-1.6275,-1.6176,-1.6066,-1.6045,-1.6069,-1.6025,-1.614,-1.621,-1.5898,-1.5772,-1.5582,-1.5652,-1.5662,-1.5464,-1.5553,-1.5555,-1.5546,-1.542,-1.5245,-1.501,-1.4775,-1.4588,-1.4588,-1.4565,-1.451,-1.4285,-1.4096,-1.3856,-1.3623,-1.3346,-1.3224,-1.305,-1.3058,-1.2928,-1.2621,-1.2243,-1.1864,-1.149,-1.1219,-1.0905,-2.8214,-2.6757,-2.5661,-2.4731,-2.403,-2.2911,-2.2048,-2.1522,-2.1281,-2.0716,-2.0085,-1.9904,-1.9861,-1.9782,-1.9708,-1.967,-1.9427,-1.9468,-1.9356,-1.9453,-1.9894,-1.9933,-1.9009,-1.8119,-1.7576,-1.7232,-1.6892,-1.6649,-1.6463,-1.6136,-1.5898,-1.5668,-1.5374,-1.5102,-1.489,-1.4763,-1.4351,-1.3808,-1.356,-1.322,-1.2838,-1.2733,-1.2556,-1.2282,-1.2365,-1.2377,-1.2294,-1.215,-1.2029,-1.194,-1.2014,-1.2019,-1.2103,-1.2379,-1.2616,-1.2595,-1.301,-1.3034,-1.2989,-1.3233,-1.3443,-1.3226,-1.3577,-1.3941,-1.3941,-1.4343,-1.4668,-1.4748,-1.4769,-1.4718,-1.4645,-1.4583,-1.4477,-1.4307,-1.4891,-1.5164,-1.4903,-1.4848,-1.5024,-1.511,-1.4964,-1.4961,-1.5485,-1.4982,-1.4627,-1.4583,-1.4683,-1.4694,-1.4715,-1.4907,-1.5129,-1.5099,-1.4934,-1.4646,-1.4308,-1.3874,-1.3683,-1.3558,-1.3655,-1.3661,-1.3819,-1.37,-1.3338,-1.3094,-1.2981,-1.2858,-1.2736,-1.2674,-1.2428,-1.2058,-1.1615,-1.131,-1.0982,-1.0647,-1.0388,-2.7294,-2.666,-2.4552,-2.3831,-2.3797,-2.1845,-2.1144,-2.1339,-2.068,-2.0266,-1.9955,-1.9915,-1.9854,-1.9744,-1.963,-1.9523,-1.9413,-1.9311,-1.9152,-1.9002,-1.909,-1.9185,-1.8903,-1.8418,-1.7765,-1.7149,-1.6789,-1.6581,-1.6517,-1.6136,-1.5942,-1.5955,-1.5507,-1.5163,-1.4856,-1.4578,-1.4163,-1.3615,-1.3391,-1.3151,-1.2896,-1.265,-1.2508,-1.2365,-1.2377,-1.2258,-1.2066,-1.1957,-1.1895,-1.1918,-1.1934,-1.1799,-1.1627,-1.1948,-1.2084,-1.1984,-1.2256,-1.243,-1.2294,-1.2539,-1.2679,-1.2562,-1.2987,-1.3364,-1.3621,-1.3903,-1.4121,-1.4178,-1.4226,-1.4112,-1.3955,-1.3867,-1.361,-1.3331,-1.3969,-1.4518,-1.437,-1.445,-1.456,-1.4785,-1.4526,-1.4522,-1.4582,-1.4311,-1.3863,-1.3917,-1.4071,-1.4241,-1.4138,-1.4354,-1.4627,-1.4471,-1.424,-1.392,-1.3527,-1.3068,-1.2711,-1.2555,-1.2618,-1.278,-1.3101,-1.3502,-1.2956,-1.2474,-1.2482,-1.2428,-1.2236,-1.2042,-1.174,-1.149,-1.1115,-1.08,-1.0465,-1.0135,-0.9812,-2.6275,-2.5184,-2.3673,-2.2866,-2.2493,-2.0985,-2.0597,-2.0862,-2.0417,-2.0079,-2.003,-2.003,-1.9958,-1.9818,-1.9757,-1.965,-1.9523,-1.9398,-1.923,-1.9035,-1.8714,-1.851,-1.8387,-1.8128,-1.7642,-1.7092,-1.6805,-1.6649,-1.649,-1.6179,-1.6039,-1.5913,-1.5551,-1.5163,-1.4842,-1.442,-1.4019,-1.3547,-1.3185,-1.2908,-1.272,-1.2461,-1.2186,-1.2077,-1.2016,-1.1884,-1.1664,-1.1689,-1.17,-1.1612,-1.1538,-1.1415,-1.125,-1.1397,-1.1428,-1.1263,-1.1624,-1.1703,-1.1571,-1.19,-1.2193,-1.2198,-1.2554,-1.293,-1.3222,-1.3388,-1.3501,-1.3621,-1.3467,-1.3296,-1.3142,-1.2987,-1.2803,-1.2713,-1.3159,-1.343,-1.3326,-1.3288,-1.3494,-1.3576,-1.3528,-1.3489,-1.3793,-1.3393,-1.314,-1.3055,-1.3176,-1.3232,-1.3259,-1.3707,-1.3896,-1.3678,-1.3425,-1.3011,-1.2745,-1.2293,-1.1944,-1.1719,-1.1784,-1.1922,-1.2214,-1.2751,-1.2377,-1.1959,-1.1981,-1.1881,-1.1606,-1.1421,-1.1296,-1.1052,-1.0667,-1.0351,-0.9958,-0.9703,-0.9378,-2.5289,-2.3195,-2.3031,-2.2064,-2.0873,-2.0538,-2.0468,-2.0416,-2.0334,-2.0246,-2.0195,-2.0203,-2.0097,-1.999,-1.9907,-1.9847,-1.9707,-1.955,-1.9335,-1.9031,-1.8605,-1.8215,-1.7918,-1.7581,-1.7314,-1.7052,-1.6991,-1.6733,-1.6436,-1.6246,-1.6067,-1.5841,-1.5448,-1.5133,-1.4828,-1.4374,-1.3934,-1.3547,-1.3151,-1.2803,-1.2579,-1.233,-1.2077,-1.1796,-1.1686,-1.1564,-1.1442,-1.1479,-1.1501,-1.1223,-1.1105,-1.1115,-1.1109,-1.086,-1.0746,-1.073,-1.0955,-1.0993,-1.0857,-1.141,-1.1807,-1.1817,-1.2083,-1.2507,-1.2683,-1.273,-1.2838,-1.3131,-1.2735,-1.2628,-1.2627,-1.2274,-1.2224,-1.2342,-1.237,-1.2243,-1.2076,-1.1977,-1.2045,-1.2221,-1.2199,-1.2319,-1.2475,-1.2328,-1.1971,-1.2382,-1.2466,-1.2574,-1.2644,-1.291,-1.2996,-1.2819,-1.2483,-1.2078,-1.1861,-1.159,-1.1241,-1.102,-1.1027,-1.1118,-1.1203,-1.1455,-1.1413,-1.13,-1.115,-1.0994,-1.089,-1.0802,-1.0767,-1.0557,-1.0147,-0.9799,-0.9518,-0.9332,-0.9011,-2.452,-2.3853,-2.2596,-2.1835,-2.1377,-2.0717,-2.0422,-2.0415,-2.0349,-2.0263,-2.0223,-2.025,-2.0214,-2.0089,-2.0002,-1.9941,-1.9851,-1.9701,-1.9504,-1.9028,-1.8753,-1.8293,-1.7888,-1.7472,-1.7167,-1.7018,-1.6805,-1.6586,-1.6355,-1.6191,-1.5983,-1.5827,-1.5551,-1.5224,-1.4887,-1.4547,-1.4098,-1.3615,-1.3323,-1.2978,-1.2627,-1.2413,-1.2197,-1.1943,-1.1734,-1.166,-1.1638,-1.1511,-1.1335,-1.1223,-1.1239,-1.1228,-1.104,-1.0954,-1.0791,-1.0582,-1.0527,-1.0538,-1.0498,-1.082,-1.1064,-1.1126,-1.1384,-1.1767,-1.1967,-1.192,-1.2173,-1.2503,-1.2437,-1.2291,-1.2425,-1.251,-1.2314,-1.2157,-1.2126,-1.2026,-1.1877,-1.1918,-1.2095,-1.2166,-1.2007,-1.1921,-1.233,-1.195,-1.1701,-1.1711,-1.18,-1.1965,-1.2068,-1.2215,-1.2141,-1.2041,-1.1731,-1.1353,-1.0996,-1.0748,-1.0477,-1.0307,-1.0327,-1.0331,-1.0355,-1.0444,-1.0545,-1.0371,-1.0158,-1.0086,-1.0217,-1.0113,-1.0071,-0.9848,-0.9631,-0.9427,-0.9145,-0.8924,-0.87,-2.3791,-2.2944,-2.2096,-2.151,-2.1092,-2.0641,-2.0449,-2.0447,-2.0406,-2.0352,-2.0301,-2.0334,-2.0282,-2.0195,-2.0097,-2.0021,-1.9909,-1.9769,-1.9495,-1.9095,-1.8825,-1.8471,-1.8061,-1.7641,-1.7337,-1.7076,-1.6892,-1.6659,-1.6448,-1.6274,-1.6123,-1.5898,-1.5624,-1.5359,-1.5025,-1.4578,-1.413,-1.3735,-1.331,-1.2931,-1.2627,-1.2484,-1.2233,-1.1979,-1.1697,-1.1511,-1.1367,-1.1325,-1.1195,-1.1082,-1.1136,-1.1153,-1.1002,-1.0926,-1.0764,-1.0572,-1.0418,-1.0351,-1.0332,-1.035,-1.0495,-1.0464,-1.0685,-1.0919,-1.1107,-1.1132,-1.1291,-1.1589,-1.1562,-1.1519,-1.1833,-1.184,-1.1759,-1.19,-1.1868,-1.1819,-1.1669,-1.1728,-1.1831,-1.1866,-1.1692,-1.1531,-1.1506,-1.1455,-1.1336,-1.126,-1.1463,-1.1593,-1.1524,-1.1601,-1.1547,-1.1381,-1.1052,-1.068,-1.0219,-0.9917,-0.9602,-0.9571,-0.9635,-0.961,-0.9526,-0.9645,-0.9743,-0.9617,-0.9569,-0.9552,-0.9606,-0.9446,-0.9427,-0.9438,-0.9296,-0.908,-0.885,-0.8603,-0.8366,-2.305,-2.1626,-2.1512,-2.1056,-2.05,-2.0449,-2.0466,-2.0468,-2.0484,-2.0445,-2.0434,-2.0422,-2.0386,-2.0321,-2.0215,-2.0105,-1.9992,-1.9797,-1.9572,-1.9283,-1.901,-1.8663,-1.8275,-1.798,-1.7625,-1.7207,-1.7052,-1.6866,-1.6659,-1.649,-1.6274,-1.6024,-1.5725,-1.5433,-1.5133,-1.456,-1.4098,-1.3835,-1.3276,-1.2861,-1.2615,-1.2508,-1.2269,-1.2004,-1.176,-1.1501,-1.1341,-1.1212,-1.1092,-1.0978,-1.0919,-1.0881,-1.0881,-1.0833,-1.0746,-1.0582,-1.0467,-1.0312,-1.0127,-1.0117,-1.0127,-1.0049,-1.0068,-1.0181,-1.0406,-1.0437,-1.0592,-1.0726,-1.0831,-1.0819,-1.0854,-1.1033,-1.1191,-1.1326,-1.1522,-1.1516,-1.1418,-1.1368,-1.1394,-1.1495,-1.1462,-1.1387,-1.1277,-1.1243,-1.1032,-1.0871,-1.1074,-1.1226,-1.1124,-1.104,-1.0995,-1.0821,-1.0493,-1.012,-0.9671,-0.9394,-0.9113,-0.9068,-0.9088,-0.9042,-0.8944,-0.9031,-0.9173,-0.9158,-0.9141,-0.9118,-0.9002,-0.8902,-0.8961,-0.9046,-0.8938,-0.8628,-0.8463,-0.8264,-0.8076,-2.2218,-2.1302,-2.0646,-2.032,-2.0263,-2.0274,-2.0289,-2.0414,-2.0355,-2.0449,-2.0479,-2.0471,-2.0472,-2.0434,-2.0405,-2.0314,-2.0177,-1.9955,-1.9764,-1.9518,-1.9298,-1.8993,-1.8494,-1.8255,-1.7984,-1.7579,-1.724,-1.6977,-1.6825,-1.6617,-1.6367,-1.6136,-1.574,-1.5418,-1.5088,-1.4624,-1.4157,-1.3815,-1.3344,-1.2988,-1.2756,-1.2544,-1.2401,-1.2222,-1.2004,-1.1833,-1.1623,-1.1448,-1.1271,-1.1147,-1.1006,-1.0919,-1.085,-1.0791,-1.0736,-1.0621,-1.0495,-1.0312,-1.0088,-1.0019,-0.995,-0.9832,-0.9823,-0.9853,-0.9925,-0.9913,-1.0095,-1.0328,-1.0588,-1.0705,-1.0577,-1.0667,-1.0846,-1.0959,-1.0914,-1.0902,-1.0914,-1.0872,-1.0939,-1.1108,-1.1167,-1.1167,-1.1023,-1.0922,-1.0812,-1.071,-1.0761,-1.0812,-1.0761,-1.0608,-1.0486,-1.0236,-0.9962,-0.9598,-0.9232,-0.8969,-0.8732,-0.8738,-0.8758,-0.8758,-0.8705,-0.8633,-0.8652,-0.8715,-0.8721,-0.8594,-0.8507,-0.8398,-0.8423,-0.8475,-0.8337,-0.8226,-0.8051,-0.7901,-0.7751,-2.1251,-2.0451,-1.9659,-1.9351,-1.9345,-1.8994,-1.9179,-1.9639,-1.9686,-1.9996,-2.0363,-2.0468,-2.0467,-2.0472,-2.0383,-2.0288,-2.0167,-2.0024,-1.9839,-1.9639,-1.9351,-1.9061,-1.857,-1.8356,-1.798,-1.7595,-1.7272,-1.7093,-1.7009,-1.6686,-1.6421,-1.6148,-1.5769,-1.5389,-1.4982,-1.4574,-1.4144,-1.3735,-1.3297,-1.3,-1.2803,-1.2508,-1.2354,-1.2282,-1.215,-1.1906,-1.1686,-1.156,-1.1244,-1.0957,-1.1058,-1.0914,-1.0729,-1.0774,-1.084,-1.0687,-1.0572,-1.0351,-1.0088,-1.0019,-0.9911,-0.9753,-0.9723,-0.9753,-0.9753,-0.971,-0.9734,-0.988,-0.9884,-1.0039,-1.0022,-1.0251,-1.0246,-1.0228,-1.0233,-1.0335,-1.0285,-1.0226,-1.0348,-1.0554,-1.0645,-1.061,-1.0557,-1.0506,-1.0549,-1.0549,-1.0482,-1.0423,-1.0305,-1.0241,-1.0035,-0.9836,-0.9577,-0.9263,-0.8956,-0.8692,-0.8421,-0.8368,-0.8427,-0.8427,-0.8427,-0.8309,-0.8368,-0.8419,-0.8328,-0.8156,-0.8146,-0.8063,-0.8026,-0.7937,-0.7812,-0.7712,-0.7652,-0.7526,-0.7335,-1.9926,-1.9155,-1.8553,-1.8304,-1.827,-1.7737,-1.7994,-1.8732,-1.8922,-1.9469,-2.0294,-2.0354,-2.0363,-2.0387,-2.0312,-2.0178,-2.0091,-1.9986,-1.9896,-1.9782,-1.9415,-1.9043,-1.8681,-1.8278,-1.7915,-1.7549,-1.732,-1.7158,-1.705,-1.6712,-1.6421,-1.612,-1.5769,-1.5285,-1.4859,-1.4337,-1.4,-1.3589,-1.3195,-1.2873,-1.2662,-1.2401,-1.2246,-1.221,-1.2041,-1.1813,-1.1584,-1.1428,-1.1053,-1.0805,-1.0794,-1.0861,-1.0374,-1.0625,-1.0826,-1.0709,-1.0598,-1.038,-1.0157,-1.001,-0.9911,-0.9753,-0.9674,-0.9634,-0.9674,-0.9594,-0.9533,-0.9444,-0.945,-0.9414,-0.9546,-0.9636,-0.9588,-0.9487,-0.958,-0.9652,-0.9506,-0.9407,-0.9328,-0.9597,-0.9864,-0.9953,-0.9872,-0.9726,-0.9691,-0.9635,-0.9577,-0.9706,-0.967,-0.9799,-0.9673,-0.9524,-0.9263,-0.8956,-0.8692,-0.854,-0.8215,-0.8002,-0.8049,-0.8103,-0.8049,-0.799,-0.7996,-0.7943,-0.7895,-0.7788,-0.7735,-0.7758,-0.7732,-0.7566,-0.7373,-0.7231,-0.7225,-0.6997,-0.6719,-1.7858,-1.723,-1.715,-1.7176,-1.7291,-1.721,-1.7645,-1.8343,-1.8503,-1.9106,-1.9996,-2.0106,-2.0185,-2.0279,-2.0156,-2.0088,-2.0095,-2.0048,-2.0011,-1.9961,-1.9647,-1.9273,-1.8942,-1.8681,-1.7971,-1.7509,-1.7296,-1.7175,-1.6942,-1.6607,-1.6378,-1.6105,-1.5521,-1.4984,-1.4564,-1.413,-1.3581,-1.3285,-1.3151,-1.2908,-1.265,-1.2484,-1.2365,-1.233,-1.2162,-1.1988,-1.1676,-1.1433,-1.0979,-1.0487,-1.0467,-1.0318,-1.0106,-1.036,-1.0493,-1.0436,-1.0348,-1.0341,-1.0147,-1.0049,-0.9941,-0.9734,-0.9549,-0.9536,-0.946,-0.9496,-0.9395,-0.9234,-0.9388,-0.9315,-0.9073,-0.9164,-0.9115,-0.8925,-0.8715,-0.873,-0.8702,-0.8587,-0.8509,-0.8462,-0.8679,-0.8994,-0.9065,-0.889,-0.8758,-0.8724,-0.8734,-0.8855,-0.9005,-0.9076,-0.921,-0.9034,-0.8878,-0.8573,-0.841,-0.8265,-0.8047,-0.7688,-0.7777,-0.7824,-0.7783,-0.7676,-0.7456,-0.7408,-0.7408,-0.7408,-0.7461,-0.7453,-0.7439,-0.7219,-0.6947,-0.6879,-0.6894,-0.6532,-0.6145,-1.5717,-1.6511,-1.6027,-1.6143,-1.6573,-1.6242,-1.6821,-1.7859,-1.8128,-1.8715,-1.9522,-1.977,-1.996,-2.0179,-2.0153,-2.0199,-2.0282,-2.0204,-2.0061,-1.9884,-1.9578,-1.9176,-1.8753,-1.8378,-1.7832,-1.7476,-1.7126,-1.6825,-1.6617,-1.6336,-1.6034,-1.5694,-1.5315,-1.4797,-1.4342,-1.4019,-1.3735,-1.348,-1.322,-1.2943,-1.272,-1.2544,-1.2449,-1.2508,-1.2294,-1.2165,-1.2024,-1.1594,-1.1057,-1.0582,-1.0388,-1.0059,-0.9756,-0.9843,-1.0023,-0.987,-0.9742,-0.9876,-1.0137,-1.0089,-0.9923,-0.969,-0.9385,-0.9145,-0.9092,-0.9103,-0.9096,-0.8814,-0.8915,-0.8749,-0.846,-0.847,-0.8205,-0.8012,-0.7968,-0.7921,-0.7888,-0.7695,-0.761,-0.7556,-0.7495,-0.7789,-0.8044,-0.801,-0.7908,-0.7882,-0.795,-0.8112,-0.8208,-0.8338,-0.8446,-0.8497,-0.8351,-0.8152,-0.8061,-0.7949,-0.7802,-0.7565,-0.7629,-0.7635,-0.7509,-0.7408,-0.7192,-0.7139,-0.7198,-0.7246,-0.7187,-0.7106,-0.6997,-0.6783,-0.6504,-0.6435,-0.628,-0.5958,-0.558,-1.4039,-1.5593,-1.5052,-1.5327,-1.6044,-1.5545,-1.6189,-1.7462,-1.7713,-1.8361,-1.9197,-1.9599,-1.9907,-2.0088,-2.0167,-2.0211,-2.0398,-2.0298,-1.9963,-1.9632,-1.9357,-1.8962,-1.8427,-1.7939,-1.7719,-1.7396,-1.6936,-1.6708,-1.6507,-1.6243,-1.5907,-1.533,-1.4984,-1.4641,-1.4214,-1.3888,-1.3689,-1.3735,-1.3514,-1.3288,-1.3047,-1.2743,-1.2673,-1.2638,-1.252,-1.2437,-1.2454,-1.1749,-1.1078,-1.0646,-1.0094,-0.9717,-0.9409,-0.9499,-0.9534,-0.9414,-0.9275,-0.9406,-0.9651,-0.9704,-0.963,-0.9374,-0.903,-0.8621,-0.837,-0.8591,-0.8724,-0.839,-0.8455,-0.8216,-0.7908,-0.7924,-0.7674,-0.7488,-0.7251,-0.7214,-0.7153,-0.709,-0.6956,-0.6873,-0.6795,-0.6642,-0.6844,-0.6988,-0.7028,-0.7036,-0.7151,-0.7357,-0.7502,-0.7621,-0.764,-0.7735,-0.7641,-0.7498,-0.7446,-0.7404,-0.7302,-0.7303,-0.7361,-0.7336,-0.7125,-0.7036,-0.6977,-0.6977,-0.6982,-0.6874,-0.6707,-0.6657,-0.6608,-0.641,-0.6201,-0.5854,-0.5656,-0.5332,-0.5117,-1.3141,-1.3978,-1.4366,-1.4958,-1.5627,-1.5724,-1.6191,-1.7119,-1.7399,-1.8157,-1.9184,-1.9675,-1.9945,-2.0042,-2.0076,-2.0128,-2.023,-2.0156,-1.9766,-1.9491,-1.9345,-1.8907,-1.8304,-1.7914,-1.778,-1.7625,-1.7115,-1.6807,-1.6671,-1.6485,-1.6133,-1.5652,-1.5075,-1.4596,-1.4278,-1.4038,-1.4006,-1.4071,-1.4052,-1.3835,-1.3555,-1.3272,-1.3088,-1.3045,-1.2894,-1.2709,-1.2576,-1.1719,-1.1063,-1.0616,-0.99,-0.947,-0.9282,-0.917,-0.9129,-0.9015,-0.8838,-0.8896,-0.896,-0.9044,-0.8837,-0.854,-0.8334,-0.8171,-0.7919,-0.8148,-0.8185,-0.8021,-0.7979,-0.7904,-0.7739,-0.7635,-0.7166,-0.7003,-0.6766,-0.6742,-0.6699,-0.6644,-0.6501,-0.6286,-0.6168,-0.6122,-0.6002,-0.6203,-0.6315,-0.6325,-0.6562,-0.6766,-0.6905,-0.7,-0.6937,-0.6966,-0.6923,-0.6838,-0.6698,-0.6646,-0.6657,-0.6602,-0.6622,-0.6616,-0.6525,-0.6518,-0.6625,-0.6549,-0.6495,-0.6337,-0.615,-0.5936,-0.5869,-0.5932,-0.5837,-0.5467,-0.5206,-0.4941,-0.4725,-1.4058,-1.447,-1.5157,-1.5678,-1.6059,-1.618,-1.6826,-1.7728,-1.8033,-1.8552,-1.9287,-1.9613,-1.9888,-2.0035,-2.0121,-2.02,-2.0291,-2.0302,-1.989,-1.9638,-1.9473,-1.9127,-1.8541,-1.8143,-1.8132,-1.7855,-1.7339,-1.6974,-1.6843,-1.6783,-1.6512,-1.6019,-1.5491,-1.5091,-1.4772,-1.4634,-1.4741,-1.4744,-1.4741,-1.4554,-1.4283,-1.3979,-1.3749,-1.3689,-1.3408,-1.3357,-1.3214,-1.2052,-1.1447,-1.0819,-0.9863,-0.9389,-0.9127,-0.8891,-0.8702,-0.8586,-0.8378,-0.8187,-0.8194,-0.8408,-0.8643,-0.8415,-0.8286,-0.8095,-0.7676,-0.7832,-0.7675,-0.7489,-0.7398,-0.7321,-0.6781,-0.6526,-0.6276,-0.6307,-0.6349,-0.6349,-0.6355,-0.6319,-0.6233,-0.6122,-0.5938,-0.5777,-0.5598,-0.5517,-0.5609,-0.569,-0.5935,-0.6196,-0.6327,-0.6413,-0.6372,-0.6283,-0.62,-0.6112,-0.5976,-0.5944,-0.5963,-0.594,-0.5916,-0.5933,-0.5986,-0.6164,-0.6268,-0.6114,-0.5982,-0.5788,-0.5528,-0.5144,-0.5152,-0.5437,-0.5317,-0.5057,-0.4765,-0.4549,-0.434,-1.4795,-1.5195,-1.5824,-1.6357,-1.6725,-1.6869,-1.7462,-1.8303,-1.857,-1.8975,-1.9489,-1.9703,-1.9917,-2.012,-2.021,-2.0294,-2.0371,-2.0343,-1.9987,-1.9777,-1.9621,-1.922,-1.8687,-1.8431,-1.8373,-1.8114,-1.7693,-1.7322,-1.7382,-1.7223,-1.7077,-1.6804,-1.6422,-1.5876,-1.5593,-1.5606,-1.5792,-1.576,-1.548,-1.5109,-1.479,-1.4384,-1.4123,-1.4025,-1.3785,-1.3658,-1.3324,-1.239,-1.1522,-1.0825,-1.0008,-0.9271,-0.896,-0.8673,-0.8375,-0.8148,-0.7879,-0.7539,-0.757,-0.7689,-0.8199,-0.8117,-0.7871,-0.7676,-0.7536,-0.745,-0.7314,-0.7041,-0.6829,-0.6489,-0.5976,-0.5933,-0.5884,-0.5964,-0.6099,-0.6099,-0.6184,-0.6184,-0.6099,-0.5976,-0.575,-0.5486,-0.5356,-0.5231,-0.5404,-0.5534,-0.5782,-0.5913,-0.5897,-0.5914,-0.583,-0.57,-0.5561,-0.5379,-0.5248,-0.524,-0.5278,-0.525,-0.526,-0.5399,-0.551,-0.5691,-0.5677,-0.5483,-0.5321,-0.5222,-0.4973,-0.4598,-0.4737,-0.5011,-0.485,-0.4646,-0.4457,-0.4236,-0.4012,-1.505,-1.5964,-1.6105,-1.6673,-1.744,-1.7749,-1.8056,-1.8478,-1.8753,-1.917,-1.9707,-2.0002,-2.0192,-2.0272,-2.0277,-2.0367,-2.0449,-2.0414,-2.0048,-1.9638,-1.9856,-1.9035,-1.8441,-1.8263,-1.8734,-1.8629,-1.8072,-1.7703,-1.8111,-1.7866,-1.7732,-1.7562,-1.7126,-1.6561,-1.6402,-1.6522,-1.6655,-1.6611,-1.6032,-1.5458,-1.5083,-1.4684,-1.4471,-1.4456,-1.437,-1.4252,-1.3665,-1.2713,-1.1796,-1.0912,-0.9881,-0.9252,-0.8999,-0.86,-0.8319,-0.8176,-0.7705,-0.7362,-0.7188,-0.6933,-0.7233,-0.7796,-0.7656,-0.7353,-0.7148,-0.707,-0.7034,-0.6793,-0.6526,-0.6227,-0.5927,-0.5712,-0.5626,-0.5674,-0.5804,-0.5933,-0.6062,-0.6099,-0.5964,-0.5836,-0.5529,-0.526,-0.5091,-0.5053,-0.5231,-0.5404,-0.5663,-0.5707,-0.5534,-0.5376,-0.5227,-0.5027,-0.4852,-0.4719,-0.4585,-0.4582,-0.4586,-0.4563,-0.4599,-0.4692,-0.4782,-0.4853,-0.4829,-0.4748,-0.467,-0.4554,-0.4341,-0.4121,-0.4204,-0.4294,-0.4406,-0.4275,-0.4076,-0.3913,-0.3688,-1.6007,-1.6147,-1.6799,-1.7462,-1.7979,-1.7984,-1.8278,-1.8824,-1.9258,-1.96,-1.9836,-2.0105,-2.0241,-2.0286,-2.0356,-2.0408,-2.0469,-2.0479,-2.0116,-1.9981,-2.0191,-1.9793,-1.9188,-1.8992,-1.9237,-1.8948,-1.8299,-1.8036,-1.8555,-1.8271,-1.8198,-1.8069,-1.7908,-1.7139,-1.626,-1.6059,-1.6272,-1.6015,-1.5712,-1.5556,-1.5692,-1.5493,-1.5383,-1.5499,-1.5352,-1.496,-1.4295,-1.312,-1.204,-1.1035,-0.9968,-0.9255,-0.8933,-0.8477,-0.8347,-0.8091,-0.7666,-0.7433,-0.7164,-0.695,-0.6853,-0.7334,-0.7664,-0.7473,-0.7523,-0.7245,-0.6999,-0.6666,-0.6355,-0.597,-0.5539,-0.541,-0.5366,-0.541,-0.5545,-0.5804,-0.589,-0.5922,-0.5836,-0.5707,-0.5443,-0.5009,-0.4753,-0.4709,-0.4884,-0.4971,-0.5145,-0.514,-0.5014,-0.4797,-0.4591,-0.4328,-0.4168,-0.4024,-0.3924,-0.3921,-0.3877,-0.3862,-0.385,-0.3865,-0.3979,-0.4045,-0.4048,-0.4043,-0.4009,-0.3917,-0.3661,-0.3414,-0.3496,-0.3545,-0.361,-0.379,-0.3796,-0.3577,-0.3355,-1.6643,-1.664,-1.7303,-1.7893,-1.8296,-1.8232,-1.8531,-1.9111,-1.9553,-1.9793,-1.9896,-2.0068,-2.0161,-2.0217,-2.0323,-2.0383,-2.0419,-2.0469,-2.0477,-2.036,-2.0367,-2.0156,-2.0011,-1.9884,-1.9782,-1.9462,-1.9011,-1.8713,-1.9077,-1.8517,-1.8377,-1.852,-1.8757,-1.7736,-1.68,-1.6533,-1.6777,-1.6513,-1.6321,-1.5946,-1.5981,-1.5937,-1.5932,-1.5939,-1.5759,-1.5342,-1.4529,-1.3516,-1.2306,-1.1175,-1.0105,-0.9217,-0.8756,-0.8393,-0.8262,-0.8004,-0.7617,-0.7281,-0.6895,-0.6778,-0.6776,-0.704,-0.7563,-0.7591,-0.7377,-0.707,-0.6738,-0.6447,-0.6173,-0.5819,-0.5379,-0.5255,-0.5188,-0.5275,-0.5404,-0.5626,-0.5631,-0.562,-0.5572,-0.5443,-0.5145,-0.4714,-0.4456,-0.4456,-0.4495,-0.4539,-0.4583,-0.4578,-0.4535,-0.4316,-0.41,-0.3924,-0.366,-0.348,-0.3394,-0.3306,-0.3262,-0.3173,-0.3194,-0.3221,-0.3221,-0.3316,-0.33,-0.3279,-0.3221,-0.3145,-0.2873,-0.2732,-0.2785,-0.2812,-0.2751,-0.3007,-0.3403,-0.3297,-0.3019,-1.6892,-1.7361,-1.7542,-1.7932,-1.8426,-1.8465,-1.8807,-1.9289,-1.9499,-1.9676,-1.9835,-2.0012,-2.0088,-2.0088,-2.0262,-2.0322,-2.032,-2.0423,-2.0445,-2.0488,-2.0463,-2.0432,-2.0389,-2.0238,-2.0125,-2.0048,-1.9673,-1.9125,-1.9557,-1.9422,-1.9106,-1.8873,-1.9168,-1.8463,-1.7882,-1.7541,-1.7566,-1.7111,-1.6743,-1.6443,-1.6375,-1.6002,-1.5959,-1.5866,-1.5496,-1.4955,-1.4134,-1.3151,-1.1945,-1.0762,-0.9587,-0.8995,-0.8477,-0.8091,-0.8091,-0.785,-0.7344,-0.6872,-0.6488,-0.6447,-0.6453,-0.6518,-0.6546,-0.6627,-0.6689,-0.6722,-0.6429,-0.6193,-0.5916,-0.5668,-0.5418,-0.5277,-0.5178,-0.5221,-0.5308,-0.5356,-0.5323,-0.528,-0.5226,-0.5009,-0.4666,-0.4368,-0.428,-0.4236,-0.4236,-0.432,-0.4364,-0.432,-0.4228,-0.3965,-0.3788,-0.3656,-0.3347,-0.3081,-0.2948,-0.2907,-0.2821,-0.2773,-0.2687,-0.2705,-0.2647,-0.2679,-0.2704,-0.2677,-0.2535,-0.2357,-0.2315,-0.2233,-0.2162,-0.2128,-0.2193,-0.2445,-0.2892,-0.2903,-0.2685,-1.6712,-1.7018,-1.7479,-1.7866,-1.817,-1.8545,-1.8949,-1.9295,-1.9513,-1.9701,-1.9862,-1.9877,-1.9941,-2.0079,-2.0067,-2.0092,-2.0186,-2.0279,-2.0324,-2.0399,-2.0503,-2.0527,-2.0467,-2.0343,-2.0287,-1.9974,-1.9632,-1.9444,-1.9837,-2.0007,-2.0028,-1.9848,-1.9735,-1.941,-1.9118,-1.8726,-1.8136,-1.7564,-1.7204,-1.6932,-1.6758,-1.6482,-1.6284,-1.5929,-1.542,-1.4844,-1.4121,-1.2876,-1.1871,-1.1597,-1.018,-0.9442,-0.9477,-0.8871,-0.841,-0.7412,-0.6936,-0.6551,-0.6168,-0.5963,-0.5935,-0.6042,-0.5969,-0.6114,-0.6246,-0.6263,-0.6061,-0.5844,-0.5651,-0.543,-0.5246,-0.5121,-0.4993,-0.5017,-0.5099,-0.5188,-0.5106,-0.4971,-0.4879,-0.4661,-0.432,-0.4236,-0.4148,-0.402,-0.3972,-0.41,-0.4144,-0.41,-0.3968,-0.3704,-0.3568,-0.348,-0.3081,-0.2812,-0.2637,-0.2551,-0.2462,-0.2375,-0.233,-0.233,-0.2346,-0.2333,-0.224,-0.214,-0.2037,-0.1935,-0.1923,-0.1828,-0.1764,-0.1831,-0.1889,-0.2082,-0.2273,-0.2339,-0.2291,-1.6581,-1.6841,-1.7191,-1.7555,-1.798,-1.8485,-1.8861,-1.9086,-1.9341,-1.9536,-1.9707,-1.975,-1.9821,-1.988,-1.9925,-2.0002,-2.0024,-2.0214,-2.0297,-2.0352,-2.0467,-2.0465,-2.0435,-2.0336,-2.022,-1.9895,-1.9724,-1.9648,-1.9955,-2.0094,-2.0117,-2.0252,-2.026,-2.0237,-2.0012,-1.9625,-1.9108,-1.8469,-1.794,-1.749,-1.7234,-1.7125,-1.688,-1.5959,-1.5392,-1.4908,-1.4005,-1.2578,-1.2021,-1.1585,-1.0019,-0.9306,-0.9162,-0.8556,-0.7907,-0.7026,-0.6816,-0.6482,-0.6168,-0.5819,-0.5745,-0.5681,-0.5571,-0.5567,-0.5664,-0.5657,-0.5565,-0.5414,-0.5303,-0.5157,-0.5042,-0.4929,-0.4812,-0.4697,-0.4829,-0.5009,-0.4845,-0.4709,-0.4535,-0.4316,-0.4188,-0.41,-0.3972,-0.3843,-0.3799,-0.4016,-0.4016,-0.3924,-0.3836,-0.3615,-0.3568,-0.348,-0.299,-0.2546,-0.2415,-0.2328,-0.2241,-0.2196,-0.2199,-0.2199,-0.2107,-0.1986,-0.193,-0.1724,-0.1558,-0.1511,-0.1417,-0.1428,-0.1419,-0.1484,-0.1487,-0.1558,-0.1749,-0.1889,-0.184,-1.6436,-1.6712,-1.6799,-1.7231,-1.7844,-1.838,-1.8637,-1.8679,-1.8999,-1.9227,-1.9419,-1.9553,-1.9612,-1.9676,-1.9783,-1.9852,-1.9917,-2.0077,-2.0167,-2.0258,-2.0357,-2.0336,-2.0221,-2.0274,-2.0064,-2.0016,-1.9925,-1.9729,-1.9812,-1.9939,-2.011,-2.0351,-2.0277,-2.0244,-2.0226,-2.0185,-1.985,-1.958,-1.8953,-1.8399,-1.7693,-1.7651,-1.7594,-1.5707,-1.5146,-1.4813,-1.346,-1.2319,-1.1415,-1.0583,-0.9615,-0.8872,-0.8375,-0.7957,-0.7324,-0.6846,-0.6656,-0.636,-0.6098,-0.578,-0.5617,-0.5494,-0.5304,-0.5221,-0.523,-0.5068,-0.492,-0.4968,-0.4883,-0.4703,-0.457,-0.4592,-0.4576,-0.4458,-0.4514,-0.4632,-0.4606,-0.4427,-0.4276,-0.4056,-0.388,-0.3836,-0.4016,-0.3888,-0.3796,-0.3972,-0.3972,-0.3836,-0.3748,-0.3571,-0.3435,-0.3432,-0.2946,-0.246,-0.2284,-0.2152,-0.2062,-0.202,-0.2022,-0.202,-0.1928,-0.1801,-0.1627,-0.1353,-0.1062,-0.0984,-0.0903,-0.088,-0.0927,-0.1122,-0.1102,-0.1003,-0.1126,-0.1259,-0.1394,-1.5898,-1.6163,-1.6777,-1.7335,-1.7839,-1.836,-1.8538,-1.8487,-1.8536,-1.8854,-1.9265,-1.9283,-1.9376,-1.9532,-1.9532,-1.9567,-1.9676,-1.9877,-1.9917,-2.0007,-2.013,-1.9995,-1.9811,-1.9958,-1.9774,-1.9484,-1.9433,-1.9637,-1.9735,-1.984,-1.9931,-2.0025,-2.0036,-2.0094,-2.0107,-2.0127,-2.0095,-2.0025,-1.9735,-1.9163,-1.8633,-1.7806,-1.7185,-1.5721,-1.501,-1.4191,-1.2978,-1.1933,-1.2163,-1.2232,-1.0447,-0.9329,-0.8495,-0.7974,-0.7432,-0.6906,-0.6474,-0.6176,-0.5967,-0.5749,-0.5585,-0.5365,-0.5195,-0.5036,-0.4805,-0.4482,-0.4372,-0.4478,-0.4449,-0.4267,-0.4176,-0.4275,-0.4331,-0.426,-0.42,-0.4261,-0.4319,-0.4158,-0.4029,-0.3781,-0.3561,-0.366,-0.3884,-0.3928,-0.388,-0.3836,-0.3792,-0.3744,-0.3792,-0.3704,-0.3303,-0.3167,-0.2812,-0.2415,-0.2241,-0.1973,-0.1839,-0.1711,-0.1714,-0.1711,-0.1756,-0.1369,-0.1022,-0.0821,-0.0598,-0.0401,-0.0249,-0.0196,-0.0296,-0.0561,-0.0666,-0.0615,-0.0262,-0.0268,-0.0605,-1.5463,-1.5681,-1.646,-1.7003,-1.7368,-1.799,-1.8207,-1.8125,-1.8165,-1.8406,-1.8806,-1.8893,-1.9079,-1.9283,-1.9243,-1.9326,-1.9438,-1.9688,-1.9696,-1.9736,-1.9749,-1.9665,-1.9639,-1.9557,-1.9285,-1.8996,-1.8935,-1.9087,-1.9468,-1.9492,-1.9519,-1.9717,-1.9792,-1.9743,-1.9658,-1.9566,-1.967,-1.9705,-1.9754,-1.9594,-1.9246,-1.8565,-1.7233,-1.5851,-1.5072,-1.4197,-1.3261,-1.2372,-1.2702,-1.2484,-1.0776,-0.9435,-0.851,-0.7753,-0.7266,-0.6777,-0.6329,-0.5959,-0.5811,-0.5718,-0.5617,-0.5498,-0.5207,-0.5042,-0.4972,-0.4666,-0.4295,-0.4345,-0.4112,-0.3918,-0.3996,-0.4054,-0.4053,-0.4007,-0.4017,-0.406,-0.3979,-0.3851,-0.3665,-0.3485,-0.34,-0.3568,-0.3748,-0.3792,-0.3704,-0.3663,-0.366,-0.3568,-0.366,-0.3656,-0.3303,-0.299,-0.2635,-0.2326,-0.2107,-0.1839,-0.1569,-0.1486,-0.1448,-0.1441,-0.1368,-0.085,-0.0431,-0.0244,0.005,0.0299,0.0444,0.0486,0.0245,-0.005,-0.015,-0.0198,0.0255,0.0741,0.0598,-1.5075,-1.5256,-1.6016,-1.6438,-1.6763,-1.7509,-1.7752,-1.7664,-1.7805,-1.7919,-1.809,-1.8342,-1.8663,-1.8912,-1.8964,-1.9132,-1.924,-1.9302,-1.9342,-1.9364,-1.9391,-1.9198,-1.9085,-1.9008,-1.8797,-1.8645,-1.8537,-1.8803,-1.9158,-1.912,-1.9198,-1.9444,-1.9413,-1.9303,-1.8878,-1.8728,-1.8913,-1.9091,-1.9211,-1.9412,-1.9317,-1.9123,-1.7548,-1.6522,-1.5855,-1.5106,-1.4039,-1.3504,-1.3408,-1.2642,-1.1402,-0.9932,-0.8705,-0.7858,-0.7257,-0.6798,-0.639,-0.6153,-0.5998,-0.5936,-0.5897,-0.5804,-0.5414,-0.5156,-0.5055,-0.475,-0.4388,-0.4106,-0.3883,-0.3771,-0.3846,-0.3822,-0.3812,-0.3752,-0.375,-0.3782,-0.366,-0.3537,-0.3389,-0.3226,-0.3315,-0.3453,-0.3473,-0.3517,-0.3524,-0.3483,-0.3442,-0.3398,-0.335,-0.3303,-0.3123,-0.2812,-0.2502,-0.2239,-0.2018,-0.1705,-0.1435,-0.135,-0.132,-0.1239,-0.0934,-0.0244,0.0194,0.0339,0.0637,0.0942,0.108,0.1108,0.088,0.0648,0.0649,0.0698,0.0979,0.1437,0.1793,-1.4721,-1.5015,-1.5636,-1.6059,-1.6401,-1.7216,-1.7448,-1.728,-1.7489,-1.7512,-1.7429,-1.7452,-1.7776,-1.8526,-1.8529,-1.8643,-1.8842,-1.8856,-1.8838,-1.8819,-1.8765,-1.8627,-1.8502,-1.8427,-1.8346,-1.8208,-1.8165,-1.8419,-1.8682,-1.8735,-1.8753,-1.8822,-1.9188,-1.9173,-1.9106,-1.8858,-1.851,-1.8627,-1.8803,-1.9041,-1.9101,-1.8773,-1.8108,-1.7244,-1.6552,-1.5374,-1.4409,-1.4222,-1.4233,-1.3727,-1.259,-1.088,-0.9433,-0.8277,-0.7598,-0.699,-0.6579,-0.6299,-0.6176,-0.599,-0.5959,-0.5959,-0.5571,-0.5251,-0.503,-0.4628,-0.4318,-0.4123,-0.3933,-0.377,-0.3766,-0.3667,-0.363,-0.3402,-0.3322,-0.3331,-0.3288,-0.3238,-0.3164,-0.3099,-0.3089,-0.3104,-0.3052,-0.3102,-0.3111,-0.3117,-0.3173,-0.3126,-0.3037,-0.2946,-0.2904,-0.2679,-0.2413,-0.2237,-0.2018,-0.1658,-0.139,-0.126,-0.1092,-0.0802,-0.034,0.0496,0.089,0.0876,0.1229,0.1647,0.1719,0.1669,0.1756,0.164,0.1606,0.1676,0.188,0.202,0.2264]},{"header":{"parameterUnit":"m.s-1","parameterCategory":1,"la1":31.0,"la2":29.5877,"lo1":-88.7671,"lo2":-86.6584,"dy":0.0162,"dx":0.0185,"nx":115,"ny":88,"refTime":"2023-10-21T12:00:00:Z","depth":0,"parameterNumber":3,"parameterNumberName":"V-component_of_WINDS"},"data":[0.0,0.0,0.0,0.0,0.0,0.0,0.0,0.0,0.0,0.0,0.0,0.0,0.0,0.0,0.0,0.0,0.0,0.0,0.0,0.0,0.0,0.0,0.0,0.0,0.0,0.0,0.0,0.0,0.0,0.0,0.0,0.0,0.0,0.0,0.0,0.0,0.0,0.0,0.0,0.0,0.0,0.0,0.0,0.0,0.0,0.0,0.0,0.0,0.0,0.0,0.0,0.0,0.0,0.0,0.0,0.0,0.0,0.0,0.0,0.0,0.0,0.0,0.0,0.0,0.0,0.0,0.0,0.0,0.0,0.0,0.0,0.0,0.0,0.0,0.0,0.0,0.0,0.0,0.0,0.0,0.0,0.0,0.0,0.0,0.0,0.0,0.0,0.0,0.0,0.0,0.0,0.0,0.0,0.0,0.0,0.0,0.0,0.0,0.0,0.0,0.0,0.0,0.0,0.0,0.0,0.0,0.0,0.0,0.0,0.0,0.0,0.0,0.0,0.0,0.0,0.0,0.0,0.0,0.0,0.0,0.0,0.0,0.0,0.0,0.0,0.0,0.0,0.0,0.0,0.0,0.0,0.0,0.0,0.0,0.0,0.0,0.0,0.0,0.0,0.0,0.0,0.0,0.0,0.0,0.0,0.0,0.0,0.0,0.0,0.0,0.0,0.0,0.0,0.0,0.0,0.0,0.0,0.0,0.0,0.0,0.0,0.0,0.0,0.0,0.0,0.0,0.0,0.0,0.0,0.0,0.0,0.0,0.0,0.0,0.0,0.0,0.0,0.0,0.0,0.0,0.0,0.0,0.0,0.0,0.0,0.0,0.0,0.0,0.0,0.0,0.0,0.0,0.0,0.0,0.0,0.0,0.0,0.0,0.0,0.0,0.0,0.0,0.0,0.0,0.0,0.0,0.0,0.0,0.0,0.0,0.0,0.0,0.0,0.0,0.0,0.0,0.0,0.0,0.0,0.0,0.0,0.0,0.0,0.0,0.0,0.0,0.0,0.0,0.0,0.0,0.0,0.0,0.0,0.0,0.0,0.0,0.0,0.0,0.0,0.0,0.0,0.0,0.0,0.0,0.0,0.0,0.0,0.0,0.0,0.0,0.0,0.0,0.0,0.0,0.0,0.0,0.0,0.0,0.0,0.0,0.0,0.0,0.0,0.0,0.0,0.0,0.0,0.0,0.0,0.0,0.0,0.0,0.0,0.0,0.0,0.0,0.0,0.0,0.0,0.0,0.0,0.0,0.0,0.0,0.0,0.0,0.0,0.0,0.0,0.0,0.0,0.0,0.0,0.0,0.0,0.0,0.0,0.0,0.0,0.0,0.0,0.0,0.0,0.0,0.0,0.0,0.0,0.0,0.0,0.0,0.0,0.0,0.0,0.0,0.0,0.0,0.0,0.0,0.0,0.0,0.0,0.0,0.0,0.0,0.0,0.0,0.0,0.0,0.0,0.0,0.0,0.0,0.0,0.0,0.0,0.0,0.0,0.0,0.0,0.0,0.0,0.0,0.0,0.0,0.0,0.0,0.0,0.0,0.0,0.0,0.0,0.0,0.0,0.0,0.0,0.0,0.0,0.0,0.0,0.0,0.0,0.0,0.0,0.0,0.0,0.0,0.0,0.0,0.0,0.0,0.0,0.0,0.0,0.0,0.0,0.0,0.0,0.0,0.0,0.0,0.0,0.0,0.0,0.0,0.0,0.0,0.0,0.0,0.0,0.0,0.0,0.0,0.0,0.0,0.0,0.0,0.0,0.0,0.0,0.0,0.0,0.0,0.0,0.0,0.0,0.0,0.0,0.0,0.0,0.0,0.0,0.0,0.0,0.0,0.0,0.0,0.0,0.0,0.0,0.0,0.0,0.0,0.0,0.0,0.0,0.0,0.0,0.0,0.0,0.0,0.0,0.0,0.0,0.0,0.0,0.0,0.0,0.0,0.0,0.0,0.0,0.0,0.0,0.0,0.0,0.0,0.0,0.0,0.0,0.0,0.0,0.0,0.0,0.0,0.0,0.0,0.0,0.0,0.0,0.0,0.0,0.0,0.0,0.0,0.0,0.0,0.0,0.0,0.0,0.0,0.0,0.0,0.0,0.0,0.0,0.0,0.0,0.0,0.0,0.0,0.0,0.0,0.0,0.0,0.0,0.0,0.0,0.0,0.0,0.0,0.0,0.0,0.0,0.0,0.0,0.0,0.0,0.0,0.0,0.0,0.0,0.0,0.0,0.0,0.0,0.0,0.0,0.0,0.0,0.0,0.0,0.0,0.0,0.0,0.0,0.0,0.0,0.0,0.0,0.0,0.0,0.0,0.0,0.0,0.0,0.0,0.0,0.0,0.0,0.0,0.0,0.0,0.0,0.0,0.0,0.0,0.0,0.0,0.0,0.0,0.0,0.0,0.0,0.0,0.0,0.0,0.0,0.0,0.0,0.0,0.0,0.0,0.0,0.0,0.0,0.0,0.0,0.0,0.0,0.0,0.0,0.0,0.0,0.0,0.0,0.0,0.0,0.0,0.0,0.0,0.0,0.0,0.0,0.0,0.0,0.0,0.0,0.0,0.0,0.0,0.0,0.0,0.0,0.0,0.0,0.0,0.0,0.0,0.0,0.0,0.0,0.0,0.0,0.0,0.0,0.0,0.0,0.0,0.0,0.0,0.0,0.0,0.0,0.0,0.0,0.0,0.0,0.0,0.0,0.0,0.0,0.0,0.0,0.0,0.0,0.0,0.0,0.0,0.0,0.0,0.0,0.0,0.0,0.0,0.0,0.0,0.0,0.0,0.0,0.0,0.0,0.0,0.0,0.0,0.0,0.0,0.0,0.0,0.0,0.0,0.0,0.0,0.0,0.0,0.0,0.0,0.0,0.0,0.0,0.0,0.0,0.0,0.0,0.0,0.0,0.0,0.0,0.0,0.0,0.0,0.0,0.0,0.0,0.0,0.0,0.0,0.0,0.0,0.0,0.0,0.0,0.0,0.0,0.0,0.0,0.0,0.0,0.0,0.0,0.0,0.0,0.0,0.0,0.0,0.0,0.0,0.0,0.0,0.0,0.0,0.0,0.0,0.0,0.0,0.0,0.0,0.0,0.0,0.0,0.0,0.0,0.0,0.0,0.0,0.0,0.0,0.0,0.0,0.0,0.0,0.0,0.0,0.0,0.0,0.0,0.0,0.0,0.0,0.0,0.0,0.0,0.0,0.0,0.0,0.0,0.0,0.0,0.0,0.0,0.0,0.0,0.0,0.0,0.0,0.0,0.0,0.0,0.0,0.0,0.0,0.0,0.0,0.0,0.0,0.0,0.0,0.0,0.0,0.0,0.0,0.0,0.0,0.0,0.0,0.0,0.0,0.0,0.0,0.0,0.0,0.0,0.0,0.0,0.0,0.0,0.0,0.0,0.0,0.0,0.0,0.0,0.0,0.0,0.0,0.0,0.0,0.0,0.0,0.0,0.0,0.0,0.0,0.0,0.0,0.0,0.0,0.0,0.0,0.0,0.0,0.0,0.0,0.0,0.0,0.0,0.0,0.0,0.0,0.0,0.0,0.0,0.0,0.0,0.0,0.0,0.0,0.0,0.0,0.0,0.0,0.0,0.0,0.0,0.0,0.0,0.0,0.0,0.0,0.0,0.0,0.0,0.0,0.0,0.0,0.0,0.0,0.0,0.0,0.0,0.0,0.0,0.0,0.0,0.0,0.0,0.0,0.0,0.0,0.0,0.0,0.0,0.0,0.0,0.0,0.0,0.0,0.0,0.0,0.0,0.0,0.0,0.0,0.0,0.0,0.0,0.0,0.0,0.0,0.0,0.0,0.0,0.0,0.0,0.0,0.0,0.0,0.0,0.0,0.0,0.0,0.0,0.0,0.0,0.0,0.0,0.0,0.0,0.0,0.0,0.0,0.0,0.0,0.0,0.0,0.0,0.0,0.0,0.0,0.0,0.0,0.0,0.0,0.0,0.0,0.0,0.0,0.0,0.0,0.0,0.0,0.0,0.0,0.0,0.0,0.0,0.0,0.0,0.0,0.0,0.0,0.0,0.0,0.0,0.0,0.0,0.0,0.0,0.0,0.0,0.0,0.0,0.0,0.0,0.0,0.0,0.0,0.0,0.0,0.0,0.0,0.0,0.0,0.0,0.0,0.0,0.0,0.0,0.0,0.0,0.0,0.0,0.0,0.0,0.0,0.0,0.0,0.0,0.0,0.0,0.0,0.0,0.0,0.0,0.0,0.0,0.0,0.0,0.0,0.0,0.0,0.0,0.0,0.0,0.0,0.0,0.0,1.3673,0.0,0.0,0.0,0.0,0.0,0.0,0.0,0.0,0.0,0.0,0.0,0.0,0.0,0.0,0.0,0.0,0.0,0.0,0.0,0.0,0.0,0.0,0.0,0.0,0.0,0.0,0.0,0.0,0.0,0.0,0.0,0.0,0.0,0.0,0.0,0.0,0.0,0.0,0.0,0.0,0.0,0.0,0.0,0.0,0.0,0.0,0.0,0.0,0.0,0.0,0.0,0.0,0.0,0.0,0.0,0.0,0.0,0.0,0.0,0.0,0.0,0.0,0.0,0.0,0.0,0.0,0.0,0.0,0.0,0.0,0.0,0.0,0.0,0.0,0.0,0.0,0.0,0.0,0.0,0.0,0.0,0.0,0.0,0.0,0.0,0.0,0.0,0.0,0.0,0.0,0.0,0.0,0.0,0.0,0.0,0.0,0.0,0.0,0.0,0.0,0.0,0.0,0.0,0.0,0.0,0.0,0.0,0.0,0.0,0.0,1.9446,1.8485,1.7893,1.5603,1.1357,0.0,0.0,0.0,0.0,0.0,0.0,0.0,0.0,0.0,0.0,0.0,0.0,0.0,0.0,0.0,0.0,0.0,0.0,0.0,0.0,0.0,0.0,0.0,0.0,0.0,0.0,0.0,0.0,0.0,0.0,0.0,0.0,0.0,0.0,0.0,0.0,0.0,0.0,0.0,0.0,0.0,0.0,0.0,0.0,0.0,0.0,0.0,0.0,0.0,0.0,0.0,0.0,0.0,0.0,0.0,0.0,0.0,0.0,0.0,0.0,0.0,0.0,0.0,0.0,0.0,0.0,0.0,0.0,0.0,0.0,0.0,0.0,0.0,0.0,0.0,0.0,0.0,0.0,0.0,0.0,0.0,0.0,0.0,0.0,0.0,0.0,0.0,0.0,0.0,0.0,0.0,0.0,0.0,0.0,0.0,0.0,0.0,0.0,0.0,0.0,0.0,0.0,0.0,0.0,0.0,0.0,0.0,0.0,0.0,0.0,0.0,0.0,1.7806,1.3593,0.7013,0.0,0.0,0.0,0.0,0.0,0.0,0.0,0.0,0.0,0.0,0.0,0.0,0.0,0.0,0.0,0.0,0.0,0.0,0.0,0.0,0.0,0.0,0.0,0.0,0.0,0.0,0.0,0.0,0.0,0.0,0.0,0.0,0.0,0.0,0.0,0.0,0.0,0.0,0.0,0.0,0.0,0.0,0.0,0.0,0.0,0.0,0.0,0.0,0.0,0.0,0.0,0.0,0.0,0.0,0.0,0.0,0.0,0.0,0.0,0.0,0.0,0.0,0.0,0.0,0.0,0.0,0.0,0.0,0.0,0.0,0.0,0.0,0.0,0.0,0.0,0.0,0.0,0.0,0.0,0.0,0.0,0.0,0.0,0.0,0.0,0.0,0.0,0.0,0.0,0.0,0.0,0.0,0.0,0.0,0.0,0.0,0.0,0.0,0.0,0.0,0.0,0.0,0.0,0.0,0.0,0.0,0.0,0.0,0.0,0.0,2.0462,2.0869,1.4636,0.0,0.0857,0.0,0.0,0.0,0.0,0.0,0.0,0.0,0.0,0.0,0.0,0.0,0.0,0.0,0.0,0.0,0.0,0.0,0.0,0.0,0.0,0.0,0.0,0.0,0.0,0.0,0.0,0.0,0.0,0.0,0.0,0.0,0.0,0.0,0.0,0.0,0.0,0.0,0.0,0.0,0.0,0.0,0.0,0.0,0.0,0.0,0.0,0.0,0.0,0.0,0.0,0.0,0.0,0.0,0.0,0.0,0.0,0.0,0.0,0.0,0.0,0.0,0.0,0.0,0.0,0.0,0.0,0.0,0.0,0.0,0.0,0.0,0.0,0.0,0.0,0.0,0.0,0.0,0.0,0.0,0.0,0.0,0.0,0.0,0.0,0.0,0.0,0.0,0.0,0.0,0.0,0.0,0.0,0.0,0.0,0.0,0.0,0.0,0.0,0.0,0.0,0.0,0.0,0.0,0.0,0.0,0.0,0.0,0.0,0.0,0.0,2.0294,2.1077,1.1183,0.2761,0.0,0.0,0.0,0.0,0.0,0.0,0.0,0.0,0.0,0.0,0.0,0.0,0.0,0.0,0.0,0.0,0.0,0.0,0.0,0.0,0.0,0.0,0.0,0.0,0.0,0.0,0.0,0.0,0.0,0.0,0.0,0.0,0.0,0.0,0.0,0.0,0.0,0.0,0.0,0.0,0.0,0.0,0.0,0.0,0.0,0.0,0.0,0.0,0.0,0.0,0.0,0.0,0.0,0.0,0.0,0.0,0.0,0.0,0.0,0.0,0.0,0.0,0.0,0.0,0.0,0.0,0.0,0.0,0.0,0.0,0.0,0.0,0.0,0.0,0.0,0.0,0.0,0.0,0.0,0.0,0.0,0.0,0.0,0.0,0.0,0.0,0.0,0.0,0.0,0.0,0.0,0.0,0.0,0.0,0.0,0.0,0.0,0.0,0.0,0.0,0.0,0.0,0.0,0.0,0.0,0.0,0.0,0.0,0.0,0.0,1.9101,1.7983,1.534,0.6524,-0.1634,-0.8484,0.0,0.0,0.0,0.0,0.0,0.0,0.0,0.0,0.0,0.0,0.0,0.0,0.0,0.0,0.0,0.0,0.0,0.0,0.0,0.0,0.0,0.0,0.0,0.0,0.0,0.0,0.0,0.0,0.0,0.0,0.0,0.0,0.0,0.0,0.0,0.0,0.0,0.0,0.0,0.0,0.0,0.0,0.0,0.0,0.0,0.0,0.0,0.0,0.0,0.0,0.0,0.0,0.0,0.0,0.0,0.0,0.0,0.0,0.0,0.0,0.0,0.0,0.0,0.0,0.0,0.0,0.0,0.0,0.0,0.0,0.0,0.0,0.0,0.0,0.0,0.0,0.0,0.0,0.0,0.0,0.0,0.0,0.0,0.0,0.0,0.0,0.0,0.0,0.0,0.0,0.0,0.0,0.0,0.0,0.0,0.0,0.0,0.0,0.0,0.0,0.0,0.0,0.0,0.0,0.0,0.0,0.0,0.0,1.852,1.7918,1.2617,0.2718,0.0163,-0.5093,0.0,0.0,0.0,0.0,0.0,0.0,0.0,0.0,0.0,0.0,0.0,0.0,0.0,0.0,0.0,0.0,0.0,0.0,0.0,0.0,0.0,0.0,0.0,0.0,0.0,0.0,0.0,0.0,0.0,0.0,0.0,0.0,0.0,0.0,0.0,0.0,0.0,0.0,0.0,0.0,0.0,0.0,0.0,0.0,0.0,0.0,0.0,0.0,0.0,0.0,0.0,0.0,0.0,0.0,0.0,0.0,0.0,0.0,0.0,0.0,0.0,0.0,0.0,0.0,0.0,0.0,0.0,0.0,0.0,0.0,0.0,0.0,0.0,0.0,0.0,0.0,0.0,0.0,0.0,0.0,0.0,0.0,0.0,0.0,0.0,0.0,0.0,0.0,0.0,0.0,0.0,0.0,0.0,0.0,0.0,0.0,0.0,0.0,0.0,0.0,0.0,0.0,0.0,0.0,0.0,0.0,0.0,0.0,0.0,1.6063,1.579,1.1082,0.1805,-0.0469,-0.5383,0.0,0.0,0.0,0.0,0.0,0.0,0.0,0.0,0.0,0.0,0.0,0.0,0.0,0.0,0.0,0.0,0.0,0.0,0.0,0.0,0.0,0.0,0.0,0.0,0.0,0.0,0.0,0.0,0.0,0.0,0.0,0.0,0.0,0.0,0.0,0.0,0.0,0.0,0.0,0.0,0.0,0.0,0.0,0.0,0.0,0.0,0.0,0.0,0.0,0.0,0.0,0.0,0.0,0.0,0.0,0.0,0.0,0.0,0.0,0.0,0.0,0.0,0.0,0.0,0.0,0.0,0.0,0.0,0.0,0.0,0.0,0.0,0.0,0.0,0.0,0.0,0.0,0.0,0.0,0.0,0.0,0.0,0.0,0.0,0.0,0.0,0.0,0.0,0.0,0.0,0.0,0.0,0.0,0.0,0.0,0.0,0.0,0.0,0.0,0.0,0.0,0.0,0.0,0.0,0.0,0.0,0.0,0.0,0.0,1.3336,0.0,0.8652,0.0935,-0.1492,-0.5927,0.0,0.0,0.0,0.0,0.0,0.0,0.0,0.0,0.0,0.0,0.0,0.0,0.0,0.0,0.0,0.0,0.0,0.0,0.0,0.0,0.0,0.0,0.0,0.0,0.0,0.0,0.0,0.0,0.0,0.0,0.0,0.0,0.0,0.0,0.0,0.0,0.0,0.0,0.0,0.0,0.0,0.0,0.0,0.0,0.0,0.0,0.0,0.0,0.0,0.0,0.0,0.0,0.0,0.0,0.0,0.0,0.0,0.0,0.0,0.0,0.0,0.0,0.0,0.0,0.0,0.0,0.0,0.0,0.0,0.0,0.0,0.0,0.0,0.0,0.0,0.0,0.0,0.0,0.0,0.0,0.0,0.0,0.0,0.0,0.0,0.0,0.0,0.0,0.0,0.0,0.0,0.0,0.0,0.0,0.0,0.0,0.0,0.0,0.0,0.0,0.0,0.0,0.0,0.0,0.0,0.0,0.0,0.0,1.051,1.0435,0.8881,0.5052,-0.1144,-0.3378,-0.6986,0.0,0.0,0.0,0.0,0.0,0.0,0.0,0.0,0.0,0.0,0.0,0.0,0.0,0.0,0.0,0.0,0.0,0.0,0.0,0.0,0.0,0.0,0.0,0.0,0.0,0.0,0.0,0.0,0.0,0.0,0.0,0.0,0.0,0.0,0.0,0.0,0.0,0.0,0.0,0.0,0.0,0.0,0.0,0.0,0.0,0.0,0.0,0.0,0.0,0.0,0.0,0.0,0.0,0.0,0.0,0.0,0.0,0.0,0.0,0.0,0.0,0.0,0.0,0.0,0.0,0.0,0.0,0.0,0.0,0.0,0.0,0.0,0.0,0.0,0.0,0.0,0.0,0.0,0.0,0.0,0.0,0.0,0.0,0.0,0.0,0.0,0.0,0.0,0.0,0.0,0.0,0.0,0.0,0.0,0.0,0.0,0.0,0.0,0.0,0.0,0.0,0.0,0.0,0.0,0.0,0.0,0.0,0.0,0.0,0.8172,0.5918,0.2846,-0.0955,-0.436,-0.7565,0.0,0.0,0.0,0.0,0.0,0.0,0.0,0.0,0.0,0.0,0.0,0.0,0.0,0.0,0.0,0.0,0.0,0.0,0.0,0.0,0.0,0.0,0.0,0.0,0.0,0.0,0.0,0.0,0.0,0.0,0.0,0.0,0.0,0.0,0.0,0.0,0.0,0.0,0.0,0.0,0.0,0.0,0.0,0.0,0.0,0.0,0.0,0.0,0.0,0.0,0.0,0.0,0.0,0.0,0.0,0.0,0.0,0.0,0.0,0.0,0.0,0.0,0.0,0.0,0.0,0.0,0.0,0.0,0.0,0.0,0.0,0.0,0.0,0.0,0.0,0.0,0.0,0.0,0.0,0.0,0.0,0.0,0.0,0.0,0.0,0.0,0.0,0.0,0.0,0.0,0.0,0.0,0.0,0.0,0.0,0.0,0.0,0.0,0.0,0.0,0.0,0.0,0.0,0.0,0.0,0.0,0.0,0.0,0.0,0.4201,0.2739,0.06,-0.212,-0.5105,-0.7678,-0.9741,0.0,0.0,0.0,0.0,0.0,0.0,0.0,0.0,0.0,0.0,0.0,0.0,0.0,0.0,0.0,0.0,0.0,0.0,0.0,0.0,0.0,0.0,0.0,0.0,0.0,0.0,0.0,0.0,0.0,0.0,0.0,0.0,0.0,0.0,0.0,0.0,0.0,0.0,0.0,0.0,0.0,0.0,0.0,0.0,0.0,0.0,0.0,0.0,0.0,0.0,0.0,0.0,0.0,0.0,0.0,0.0,0.0,0.0,0.0,0.0,0.0,0.0,0.0,0.0,0.0,0.0,0.0,0.0,0.0,0.0,0.0,0.0,0.0,0.0,0.0,0.0,0.0,0.0,0.0,0.0,0.0,0.0,0.0,0.0,0.0,0.0,0.0,0.0,0.0,0.0,0.0,0.0,0.0,0.0,0.0,0.0,0.0,0.0,0.0,0.0,0.0,0.0,0.0,0.0,0.0,0.0,0.0,0.0,-0.0805,-0.0524,-0.1668,-0.4247,-0.5671,-0.7393,0.0,0.0,0.0,0.0,0.0,0.0,0.0,0.0,0.0,0.0,0.0,0.0,0.0,0.0,0.0,0.0,0.0,0.0,0.0,0.0,0.0,0.0,0.0,0.0,0.0,0.0,0.0,0.0,0.0,0.0,0.0,0.0,0.0,0.0,0.0,0.0,0.0,0.0,0.0,0.0,0.0,0.0,0.0,0.0,0.0,0.0,0.0,0.0,0.0,0.0,0.0,0.0,0.0,0.0,0.0,0.0,0.0,0.0,0.0,0.0,0.0,0.0,0.0,0.0,0.0,0.0,0.0,0.0,0.0,0.0,0.0,0.0,0.0,0.0,0.0,0.0,0.0,0.0,0.0,0.0,0.0,0.0,0.0,0.0,0.0,0.0,0.0,0.0,0.0,0.0,0.0,0.0,0.0,0.0,0.0,0.0,0.0,0.0,0.0,0.0,0.0,0.0,0.0,0.0,0.0,0.0,0.0,0.0,0.0,-0.2627,-0.2591,-0.3096,-0.4232,-0.6067,-0.7673,0.0,0.0,0.0,0.0,0.0,0.0,0.0,0.0,0.0,0.0,0.0,0.0,0.0,0.0,0.0,0.0,0.0,0.0,0.0,0.0,0.0,0.0,0.0,0.0,0.0,0.0,0.0,0.0,0.0,0.0,0.0,0.0,0.0,0.0,0.0,0.0,0.0,0.0,0.0,0.0,0.0,0.0,0.0,0.0,0.0,0.0,0.0,0.0,0.0,0.0,0.0,0.0,0.0,0.0,0.0,0.0,0.0,0.0,0.0,0.0,0.0,0.0,0.0,0.0,0.0,0.0,0.0,0.0,0.0,0.0,0.0,0.0,0.0,0.0,0.0,0.0,0.0,0.0,0.0,0.0,0.0,0.0,0.0,0.0,0.0,0.0,0.0,0.0,0.0,0.0,0.0,0.0,0.0,0.0,0.0,0.0,0.0,0.0,0.0,0.0,0.0,0.0,0.0,0.0,0.0,0.0,0.0,0.0,-0.2651,-0.3704,-0.3616,-0.4036,-0.5014,-0.6597,-0.7978,0.0,0.0,0.0,0.0,0.0,0.0,0.0,0.0,0.0,0.0,0.0,0.0,0.0,0.0,0.0,0.0,0.0,0.0,0.0,0.0,0.0,0.0,0.0,0.0,0.0,0.0,0.0,0.0,0.0,0.0,0.0,0.0,0.0,0.0,0.0,0.0,0.0,0.0,0.0,0.0,0.0,0.0,0.0,0.0,0.0,0.0,0.0,0.0,0.0,0.0,0.0,0.0,0.0,0.0,0.0,0.0,0.0,0.0,0.0,0.0,0.0,0.0,0.0,0.0,0.0,0.0,0.0,0.0,0.0,0.0,0.0,0.0,0.0,0.0,0.0,0.0,0.0,0.0,0.0,0.0,0.0,0.0,0.0,0.0,0.0,0.0,0.0,0.0,0.0,0.0,0.0,0.0,0.0,0.0,0.0,0.0,0.0,0.0,0.0,0.0,0.0,0.0,0.0,0.0,0.0,0.0,0.0,0.0,-0.3256,-0.4212,-0.4038,-0.4627,-0.6155,-0.7106,-0.8228,0.0,0.0,0.0,0.0,0.0,0.0,0.0,0.0,0.0,0.0,0.0,0.0,0.0,0.0,0.0,0.0,0.0,0.0,0.0,0.0,0.0,0.0,0.0,0.0,0.0,0.0,0.0,0.0,0.0,0.0,0.0,0.0,0.0,0.0,0.0,0.0,0.0,0.0,0.0,0.0,0.0,0.0,0.0,0.0,0.0,0.0,0.0,0.0,0.0,0.0,0.0,0.0,0.0,0.0,0.0,0.0,0.0,0.0,0.0,0.0,0.0,0.0,0.0,0.0,0.0,0.0,0.0,0.0,0.0,0.0,0.0,0.0,0.0,0.0,0.0,0.0,0.0,0.0,0.0,0.0,0.0,0.0,0.0,0.0,0.0,0.0,0.0,0.0,0.0,0.0,0.0,0.0,0.0,0.0,0.0,0.0,0.0,0.0,0.0,0.0,0.0,0.0,0.0,0.0,0.0,0.0,0.0,0.0,-0.3895,-0.4576,-0.4494,-0.5253,-0.6857,-0.7532,-0.8382,0.0,0.0,0.0,0.0,0.0,0.0,0.0,0.0,0.0,0.0,0.0,0.0,0.0,0.0,0.0,0.0,0.0,0.0,0.0,0.0,0.0,0.0,0.0,0.0,0.0,0.0,0.0,0.0,0.0,0.0,0.0,0.0,0.0,0.0,0.0,0.0,0.0,0.0,0.0,0.0,0.0,0.0,0.0,0.0,0.0,0.0,0.0,0.0,-2.3797,0.0,0.0,0.0,0.0,0.0,0.0,0.0,0.0,0.0,0.0,0.0,0.0,0.0,0.0,0.0,0.0,0.0,0.0,0.0,0.0,0.0,0.0,0.0,0.0,0.0,0.0,0.0,0.0,0.0,0.0,0.0,0.0,0.0,0.0,0.0,0.0,0.0,0.0,0.0,0.0,0.0,0.0,0.0,0.0,0.0,0.0,0.0,0.0,0.0,0.0,0.0,0.0,0.0,0.0,0.0,0.0,0.0,0.0,0.0,-0.4654,-0.5081,-0.5064,-0.5979,-0.7632,-0.8043,-0.8835,0.0,0.0,0.0,0.0,0.0,0.0,0.0,0.0,0.0,0.0,0.0,0.0,0.0,0.0,0.0,0.0,0.0,0.0,0.0,0.0,0.0,0.0,0.0,0.0,0.0,0.0,0.0,0.0,0.0,0.0,0.0,0.0,0.0,0.0,0.0,0.0,0.0,0.0,0.0,0.0,0.0,0.0,0.0,0.0,0.0,0.0,0.0,0.0,0.0,0.0,0.0,0.0,0.0,0.0,0.0,0.0,0.0,0.0,0.0,0.0,0.0,0.0,0.0,0.0,0.0,0.0,0.0,0.0,0.0,0.0,0.0,0.0,0.0,0.0,0.0,0.0,0.0,0.0,0.0,0.0,0.0,0.0,0.0,0.0,0.0,0.0,0.0,0.0,0.0,0.0,0.0,0.0,0.0,0.0,0.0,0.0,0.0,0.0,0.0,0.0,0.0,0.0,0.0,0.0,0.0,0.0,0.0,-0.5177,-0.5386,-0.5552,-0.5742,-0.6606,-0.8351,-0.8695,-0.9488,-1.0812,0.0,0.0,0.0,0.0,0.0,0.0,0.0,0.0,0.0,0.0,0.0,0.0,0.0,0.0,0.0,0.0,0.0,0.0,0.0,0.0,0.0,0.0,0.0,0.0,0.0,0.0,0.0,0.0,0.0,0.0,0.0,0.0,0.0,0.0,0.0,0.0,0.0,0.0,-2.1947,-2.21,0.0,0.0,0.0,0.0,0.0,0.0,0.0,0.0,-2.3862,0.0,0.0,0.0,0.0,0.0,0.0,0.0,0.0,0.0,0.0,0.0,0.0,0.0,0.0,0.0,0.0,0.0,0.0,0.0,0.0,0.0,0.0,0.0,0.0,0.0,0.0,0.0,0.0,0.0,0.0,0.0,0.0,0.0,0.0,0.0,0.0,0.0,0.0,0.0,0.0,0.0,0.0,0.0,0.0,0.0,0.0,0.0,0.0,0.0,0.0,0.0,0.0,0.0,0.0,0.0,0.0,-0.5485,-0.5536,-0.5623,-0.5748,-0.6058,-0.6969,-0.8407,-0.9203,-1.0325,-1.1704,0.0,0.0,0.0,0.0,0.0,0.0,0.0,0.0,0.0,0.0,0.0,0.0,0.0,0.0,0.0,0.0,0.0,0.0,0.0,0.0,0.0,0.0,0.0,0.0,0.0,0.0,0.0,0.0,0.0,0.0,0.0,0.0,0.0,0.0,0.0,0.0,0.0,0.0,0.0,-2.1165,-2.1215,0.0,0.0,0.0,0.0,0.0,0.0,0.0,0.0,-2.3566,0.0,0.0,0.0,0.0,0.0,0.0,0.0,0.0,0.0,0.0,0.0,0.0,0.0,0.0,0.0,0.0,0.0,0.0,0.0,0.0,0.0,0.0,0.0,0.0,0.0,0.0,0.0,0.0,0.0,0.0,0.0,0.0,0.0,0.0,0.0,0.0,0.0,0.0,0.0,0.0,0.0,0.0,0.0,0.0,0.0,0.0,0.0,0.0,0.0,0.0,0.0,0.0,0.0,0.0,0.0,-0.6137,-0.6234,-0.6495,-0.7003,-0.7198,-0.8084,-0.9565,-1.0108,-1.105,0.0,0.0,0.0,0.0,0.0,0.0,0.0,0.0,0.0,0.0,0.0,0.0,0.0,0.0,0.0,0.0,0.0,0.0,0.0,0.0,0.0,0.0,0.0,0.0,0.0,0.0,0.0,0.0,0.0,0.0,0.0,0.0,0.0,0.0,0.0,0.0,0.0,0.0,0.0,0.0,-1.9517,-1.9443,-1.8248,0.0,0.0,0.0,0.0,0.0,0.0,-2.3246,-2.3223,0.0,0.0,0.0,0.0,0.0,0.0,0.0,0.0,0.0,0.0,0.0,0.0,0.0,0.0,0.0,0.0,0.0,0.0,0.0,0.0,0.0,0.0,0.0,0.0,0.0,0.0,0.0,0.0,0.0,0.0,0.0,0.0,0.0,0.0,0.0,0.0,0.0,0.0,0.0,0.0,0.0,0.0,0.0,0.0,0.0,0.0,0.0,0.0,0.0,0.0,0.0,0.0,0.0,0.0,0.0,-0.6802,-0.7035,-0.7441,-0.8058,-0.8321,-0.9198,-1.0763,-1.1026,-1.1904,0.0,0.0,0.0,0.0,0.0,0.0,0.0,0.0,0.0,0.0,0.0,0.0,0.0,0.0,0.0,0.0,0.0,0.0,0.0,0.0,0.0,0.0,0.0,0.0,0.0,0.0,0.0,0.0,0.0,0.0,0.0,0.0,0.0,0.0,0.0,0.0,0.0,0.0,0.0,0.0,0.0,-1.8231,-1.7189,-1.8557,0.0,0.0,0.0,0.0,-2.4038,-2.3367,0.0,0.0,0.0,0.0,0.0,0.0,0.0,0.0,0.0,0.0,0.0,0.0,0.0,0.0,0.0,0.0,0.0,0.0,0.0,0.0,0.0,0.0,0.0,0.0,0.0,0.0,0.0,0.0,0.0,0.0,0.0,0.0,0.0,0.0,0.0,0.0,0.0,0.0,0.0,0.0,0.0,0.0,0.0,0.0,0.0,0.0,0.0,0.0,0.0,0.0,0.0,0.0,0.0,0.0,0.0,0.0,-0.755,-0.7761,-0.7967,-0.8179,-0.8933,-0.9951,-1.1192,-1.2035,-1.3024,0.0,0.0,0.0,0.0,0.0,0.0,0.0,0.0,0.0,0.0,0.0,0.0,0.0,0.0,0.0,0.0,0.0,0.0,0.0,0.0,0.0,0.0,0.0,0.0,0.0,0.0,0.0,0.0,0.0,0.0,0.0,0.0,0.0,0.0,0.0,0.0,0.0,0.0,0.0,0.0,0.0,-1.9284,-1.7979,-1.9307,-2.0794,0.0,0.0,0.0,-2.4377,-2.4237,0.0,0.0,0.0,0.0,0.0,0.0,0.0,0.0,0.0,0.0,0.0,0.0,0.0,0.0,0.0,0.0,0.0,0.0,0.0,0.0,0.0,0.0,0.0,0.0,0.0,0.0,0.0,0.0,0.0,0.0,0.0,0.0,0.0,0.0,0.0,0.0,0.0,0.0,0.0,0.0,0.0,0.0,0.0,0.0,0.0,0.0,0.0,0.0,0.0,0.0,0.0,0.0,0.0,0.0,0.0,-0.7836,-0.8101,-0.842,-0.8874,-0.9479,-1.0168,-1.0975,-1.197,-1.2893,-1.3782,0.0,0.0,0.0,0.0,0.0,0.0,0.0,0.0,0.0,0.0,0.0,0.0,0.0,0.0,0.0,0.0,0.0,0.0,0.0,0.0,0.0,0.0,0.0,0.0,0.0,0.0,0.0,0.0,0.0,0.0,0.0,0.0,0.0,0.0,0.0,0.0,0.0,0.0,0.0,0.0,0.0,0.0,-1.8957,-1.9742,0.0,0.0,0.0,-2.4342,-2.4838,0.0,0.0,0.0,0.0,0.0,0.0,0.0,0.0,0.0,0.0,0.0,0.0,0.0,0.0,0.0,0.0,0.0,0.0,0.0,0.0,0.0,0.0,0.0,0.0,0.0,0.0,0.0,0.0,0.0,0.0,0.0,0.0,0.0,0.0,0.0,0.0,0.0,0.0,0.0,0.0,0.0,0.0,0.0,0.0,0.0,0.0,0.0,0.0,0.0,0.0,0.0,0.0,0.0,0.0,0.0,0.0,0.0,-0.869,-0.931,-0.9924,-1.066,-1.1403,-1.2158,-1.2929,-1.379,0.0,0.0,0.0,0.0,0.0,0.0,0.0,0.0,0.0,0.0,0.0,0.0,0.0,0.0,0.0,0.0,0.0,0.0,0.0,0.0,0.0,0.0,0.0,0.0,0.0,0.0,0.0,-1.9452,0.0,0.0,0.0,0.0,0.0,0.0,0.0,0.0,0.0,0.0,0.0,0.0,0.0,0.0,-1.9595,-2.0075,-2.037,-2.1094,0.0,0.0,-2.4761,-2.523,-2.5779,-2.6063,0.0,0.0,0.0,0.0,0.0,0.0,0.0,0.0,0.0,0.0,0.0,0.0,0.0,0.0,0.0,0.0,0.0,0.0,0.0,0.0,0.0,0.0,0.0,0.0,0.0,0.0,0.0,0.0,0.0,0.0,0.0,0.0,0.0,0.0,0.0,0.0,0.0,0.0,0.0,0.0,0.0,0.0,0.0,0.0,0.0,0.0,0.0,0.0,0.0,0.0,0.0,0.0,0.0,0.0,0.0,-0.9547,-1.0622,-1.1156,-1.1303,-1.2528,-1.3459,-1.407,-1.4831,-1.5553,0.0,0.0,0.0,0.0,0.0,0.0,0.0,0.0,0.0,0.0,0.0,0.0,0.0,0.0,0.0,0.0,0.0,0.0,0.0,0.0,0.0,0.0,0.0,0.0,0.0,0.0,0.0,0.0,0.0,0.0,0.0,0.0,0.0,0.0,0.0,0.0,0.0,0.0,0.0,0.0,0.0,-2.1408,-2.1359,-2.168,-2.2166,0.0,0.0,-2.4513,-2.5182,-2.5931,-2.6416,-2.6497,0.0,0.0,0.0,0.0,0.0,0.0,0.0,0.0,0.0,0.0,0.0,0.0,0.0,0.0,0.0,0.0,0.0,0.0,0.0,0.0,0.0,0.0,0.0,0.0,0.0,0.0,0.0,0.0,0.0,0.0,0.0,0.0,0.0,0.0,0.0,0.0,0.0,0.0,0.0,0.0,0.0,0.0,0.0,0.0,0.0,0.0,0.0,0.0,0.0,0.0,0.0,0.0,0.0,-1.037,-1.0413,-1.1428,-1.2116,-1.2381,-1.3545,-1.424,-1.442,-1.5371,-1.6098,0.0,0.0,0.0,0.0,0.0,0.0,0.0,0.0,0.0,0.0,0.0,0.0,0.0,0.0,0.0,0.0,0.0,0.0,0.0,0.0,0.0,0.0,0.0,0.0,0.0,0.0,0.0,0.0,-1.938,-1.9768,-2.0314,0.0,0.0,0.0,0.0,0.0,0.0,0.0,0.0,0.0,0.0,-2.2048,-2.2392,-2.2478,0.0,0.0,-2.4565,-2.5324,-2.6188,-2.6688,-2.6947,-2.7053,-2.6919,0.0,0.0,0.0,0.0,0.0,0.0,0.0,0.0,0.0,0.0,0.0,0.0,0.0,0.0,0.0,0.0,0.0,0.0,0.0,0.0,0.0,0.0,0.0,0.0,0.0,0.0,0.0,0.0,0.0,0.0,0.0,0.0,0.0,0.0,0.0,0.0,0.0,0.0,0.0,0.0,0.0,0.0,0.0,0.0,0.0,0.0,0.0,0.0,0.0,0.0,0.0,0.0,-1.1229,-1.1217,-1.2347,-1.3124,-1.3424,-1.4424,-1.4971,-1.5097,-1.572,-1.6349,0.0,0.0,0.0,0.0,0.0,0.0,0.0,0.0,0.0,0.0,0.0,0.0,0.0,0.0,0.0,0.0,0.0,0.0,0.0,0.0,0.0,0.0,0.0,0.0,0.0,0.0,0.0,0.0,-1.9941,-2.0522,-2.0894,0.0,0.0,0.0,0.0,0.0,0.0,0.0,0.0,0.0,0.0,-2.267,-2.3095,-2.315,-2.3508,-2.4647,-2.5325,-2.6019,-2.6888,-2.7297,-2.7615,-2.7825,0.0,0.0,0.0,0.0,0.0,0.0,0.0,0.0,0.0,0.0,0.0,0.0,0.0,0.0,0.0,0.0,0.0,0.0,0.0,0.0,0.0,0.0,0.0,0.0,0.0,0.0,0.0,0.0,0.0,0.0,0.0,0.0,0.0,0.0,0.0,0.0,0.0,0.0,0.0,0.0,0.0,0.0,0.0,0.0,0.0,0.0,0.0,0.0,0.0,0.0,0.0,0.0,0.0,0.0,-1.1912,-1.3461,-1.4326,-1.4486,-1.5154,-1.5721,-1.6008,-1.5961,-1.6363,-1.7269,0.0,0.0,0.0,0.0,0.0,0.0,0.0,0.0,0.0,0.0,0.0,0.0,0.0,0.0,0.0,0.0,0.0,0.0,0.0,0.0,0.0,0.0,0.0,0.0,0.0,0.0,-2.1355,-2.1253,-2.1296,0.0,0.0,0.0,0.0,0.0,0.0,0.0,0.0,0.0,0.0,-2.2739,-2.3361,-2.3593,-2.3886,-2.4394,-2.4945,-2.5652,-2.6346,-2.7095,-2.7617,-2.8163,0.0,0.0,0.0,0.0,0.0,0.0,0.0,0.0,0.0,0.0,0.0,0.0,0.0,0.0,0.0,0.0,0.0,0.0,0.0,0.0,0.0,0.0,0.0,0.0,0.0,0.0,0.0,-0.9996,-1.0425,0.0,0.0,0.0,0.0,0.0,0.0,0.0,0.0,0.0,0.0,0.0,-1.0208,-1.0821,0.0,0.0,0.0,0.0,0.0,0.0,0.0,0.0,0.0,0.0,0.0,0.0,-1.3323,-1.3221,-1.4683,-1.5429,-1.5247,-1.6461,-1.6796,-1.613,-1.705,-1.7836,-1.8344,0.0,0.0,0.0,0.0,0.0,0.0,0.0,0.0,0.0,0.0,0.0,0.0,0.0,0.0,0.0,0.0,0.0,0.0,0.0,0.0,0.0,0.0,0.0,0.0,0.0,-2.1369,0.0,0.0,0.0,0.0,0.0,0.0,0.0,0.0,0.0,0.0,0.0,-2.3991,-2.372,-2.4091,-2.4443,-2.436,-2.4659,-2.517,0.0,0.0,0.0,0.0,0.0,0.0,0.0,0.0,0.0,0.0,0.0,0.0,0.0,0.0,-3.0965,-3.1321,-3.1408,-3.1625,-3.2454,0.0,0.0,0.0,0.0,0.0,0.0,0.0,0.0,0.0,0.0,0.0,0.0,0.0,0.0,0.0,0.0,-1.1581,0.0,0.0,0.0,0.0,0.0,0.0,0.0,0.0,-1.064,-1.0903,-1.1115,-1.1648,-1.2451,0.0,-1.3285,-1.2873,0.0,0.0,0.0,0.0,0.0,0.0,0.0,0.0,-1.399,-1.4233,-1.5254,-1.5872,-1.5968,-1.6843,-1.7124,-1.6717,-1.808,-1.8943,-1.9151,-1.9842,-2.0365,0.0,0.0,0.0,0.0,0.0,0.0,0.0,0.0,0.0,0.0,0.0,0.0,0.0,0.0,0.0,0.0,0.0,0.0,0.0,0.0,0.0,0.0,0.0,-2.1876,0.0,0.0,0.0,0.0,0.0,0.0,0.0,0.0,0.0,-2.3953,-2.4333,-2.4612,-2.4543,-2.4838,-2.5087,-2.4933,0.0,0.0,0.0,0.0,0.0,0.0,0.0,-2.8848,-2.9334,-2.9711,-3.0127,-3.0676,-3.0957,-3.1165,-3.1388,0.0,0.0,-3.1589,-3.1731,-3.2133,-3.2937,-3.3227,-3.3271,-3.3068,-3.2478,-3.1858,0.0,0.0,0.0,0.0,0.0,0.0,0.0,0.0,-1.1861,-1.2424,0.0,-1.2583,0.0,0.0,0.0,0.0,0.0,0.0,0.0,0.0,-1.127,-1.1634,-1.2142,-1.2233,-1.2783,-1.3666,-1.3614,-1.3784,-1.4175,-1.391,0.0,0.0,0.0,0.0,0.0,0.0,-1.4196,-1.4925,-1.5333,-1.5838,-1.6554,-1.6454,-1.6871,-1.7784,-1.891,-1.9555,-1.9618,-2.0406,-2.1027,-2.1378,-2.129,0.0,0.0,0.0,0.0,0.0,0.0,0.0,0.0,0.0,0.0,0.0,0.0,0.0,0.0,0.0,0.0,0.0,0.0,0.0,0.0,-2.2981,0.0,0.0,0.0,0.0,0.0,0.0,0.0,0.0,0.0,0.0,-2.3953,-2.4835,-2.5354,-2.465,0.0,0.0,0.0,0.0,-2.6427,-2.6427,-2.7242,-2.7855,-2.8026,-2.8624,-2.9324,-2.9993,0.0,0.0,-3.2398,-3.2037,-3.1725,-3.1987,-3.1522,-3.1171,-3.1662,-3.2043,-3.2475,-3.2885,-3.3259,-3.3195,-3.2611,-3.2925,-3.2858,-1.1587,0.0,0.0,0.0,0.0,-1.2451,-1.2799,-1.3053,-1.3042,-1.3292,-1.3721,-1.2856,0.0,0.0,0.0,0.0,0.0,0.0,-1.2251,-1.2271,-1.2585,-1.2797,-1.2972,-1.334,-1.3907,-1.469,-1.4479,-1.4726,-1.5336,-1.5225,-1.4693,-1.3859,0.0,0.0,0.0,0.0,-1.5241,-1.5734,-1.6802,-1.7154,-1.6622,-1.7714,-1.8367,-1.8605,-1.8587,-1.8925,-1.9612,-2.0146,-2.0817,-2.1701,-2.1455,0.0,0.0,0.0,0.0,0.0,0.0,0.0,0.0,0.0,0.0,0.0,0.0,0.0,0.0,0.0,0.0,0.0,0.0,0.0,-2.331,-2.3558,-2.3708,0.0,0.0,0.0,0.0,0.0,0.0,0.0,0.0,0.0,-2.5627,-2.5875,-2.6111,0.0,0.0,-2.6452,-2.6897,-2.7036,-2.7053,-2.7188,0.0,0.0,0.0,-2.9121,-2.9822,-3.0387,-3.1161,-3.191,-3.2342,-3.2299,-3.2214,-3.2269,-3.2114,-3.2098,-3.2468,-3.262,-3.3047,-3.4121,-3.4547,-3.4449,-3.4006,-3.366,-3.3069,-1.2719,-1.2584,-1.2437,-1.2479,-1.2709,-1.3396,-1.3688,-1.3745,-1.3542,-1.3772,-1.4215,-1.3263,-1.3123,-1.3609,-1.319,0.0,0.0,0.0,-1.3086,-1.3268,-1.3371,-1.349,-1.3659,-1.395,-1.4382,-1.4935,-1.466,-1.4837,-1.537,-1.5355,-1.5063,-1.4438,0.0,0.0,-1.451,-1.5034,-1.5612,-1.6103,-1.6896,-1.7146,-1.6827,-1.8037,-1.8668,-1.8632,-1.8933,-1.9437,-2.0079,-2.0518,-2.1105,-2.1805,-2.1504,-2.1356,0.0,0.0,0.0,0.0,0.0,0.0,0.0,0.0,0.0,0.0,0.0,-2.532,0.0,0.0,0.0,0.0,-2.3985,-2.3851,-2.3645,-2.3851,0.0,0.0,0.0,0.0,0.0,0.0,0.0,-2.5994,-2.6526,-2.6912,-2.7006,-2.7131,-2.7156,-2.7031,-2.6998,-2.7114,-2.7447,0.0,-2.7603,-2.7656,-2.7921,-2.8379,-2.8817,-2.9387,-3.0007,-3.0851,-3.1509,-3.2094,-3.2342,-3.2398,-3.2305,-3.2059,-3.1997,-3.2106,-3.2422,-3.2349,-3.2773,-3.446,-3.4994,-3.4977,-3.457,-3.3768,-3.2789,-1.3159,-1.3342,-1.3205,-1.2966,-1.2729,-1.3977,-1.4328,-1.4,-1.3637,-1.3878,-1.4585,-1.368,-1.3477,-1.3765,-1.3804,0.0,0.0,-1.3511,-1.364,-1.401,-1.37,-1.3828,-1.4249,-1.42,-1.4359,-1.4601,-1.4373,-1.4401,-1.4642,-1.4811,-1.4759,-1.4545,-1.4933,-1.4942,-1.4671,-1.4971,-1.5487,-1.6185,-1.6137,-1.6483,-1.7202,-1.7689,-1.8076,-1.827,-1.9639,-2.0428,-2.0655,-2.1183,-2.1584,-2.179,-2.1488,-2.1294,-2.1261,0.0,0.0,0.0,0.0,0.0,0.0,0.0,0.0,0.0,0.0,0.0,0.0,0.0,0.0,0.0,-2.3821,0.0,-2.4041,-2.4041,0.0,0.0,0.0,-2.5729,-2.6525,-2.6408,-2.651,-2.7042,0.0,0.0,0.0,0.0,-2.8417,-2.7335,-2.7403,-2.7536,-2.7468,-2.7842,-2.8079,-2.7842,-2.8157,-2.856,-2.9085,-2.947,-3.0033,-3.0981,-3.166,-3.1881,-3.2112,-3.2268,-3.2021,-3.1428,-3.1305,-3.1464,-3.1743,-3.1568,-3.1983,-3.3957,-3.462,-3.4731,-3.4283,-3.3556,-3.2603,-1.2525,-1.2588,-1.3094,-1.3536,-1.3881,-1.4277,-1.4456,-1.4416,-1.4111,-1.4026,-1.4164,-1.3477,-1.3132,-1.3227,-1.3623,-1.3821,-1.383,-1.395,-1.4148,-1.4207,-1.4341,-1.441,-1.4437,-1.4216,-1.4126,-1.405,-1.3793,-1.3817,-1.4115,-1.435,-1.4604,-1.4712,-1.4967,-1.5059,-1.4994,-1.5244,-1.5715,-1.6373,-1.6681,-1.7212,-1.7978,-1.7872,-1.8058,-1.8644,-1.8992,-1.9502,-2.0125,-2.0345,-2.0926,-2.1945,-2.152,-2.1199,-2.1247,-2.1132,0.0,0.0,0.0,0.0,0.0,0.0,0.0,0.0,0.0,-2.6215,-2.4777,0.0,-2.6434,0.0,-2.4519,-2.5071,-2.5678,-2.5734,0.0,0.0,-2.6674,-2.6857,-2.6603,-2.6652,-2.6945,-2.7488,-2.7565,-2.801,-2.8865,-2.924,-2.9212,-2.8651,-2.8287,-2.8199,-2.8437,-2.8319,-2.8222,-2.8208,-2.8634,-2.9135,-2.9435,-2.9743,-2.9987,-3.0098,-3.0531,-3.0861,-3.0867,-3.1195,-3.1263,-3.0788,-3.0784,-3.106,-3.1347,-3.15,-3.1965,-3.2928,-3.3283,-3.3245,-3.2942,-3.3328,-3.3318,-1.2252,-1.2332,-1.2797,-1.322,-1.3557,-1.3896,-1.3943,-1.3674,-1.3467,-1.3301,-1.3076,-1.2805,-1.2929,-1.3224,-1.364,-1.383,-1.389,-1.4139,-1.4378,-1.4497,-1.4666,-1.4563,-1.4222,-1.4164,-1.3904,-1.3607,-1.3429,-1.3489,-1.3795,-1.4073,-1.4341,-1.4623,-1.4968,-1.5152,-1.53,-1.5513,-1.5846,-1.6303,-1.6841,-1.7367,-1.7784,-1.7895,-1.8175,-1.8707,-1.9049,-1.9472,-1.9955,-2.0254,-2.0751,-2.1483,-2.1344,-2.1199,-2.123,-2.1003,-2.0969,0.0,0.0,0.0,0.0,0.0,0.0,0.0,0.0,0.0,0.0,0.0,-2.6928,0.0,-2.5646,0.0,-2.673,-2.6474,-2.6393,-2.6875,-2.7045,-2.7165,-2.7097,-2.7097,-2.7272,-2.7838,-2.7894,-2.8163,-2.8828,-2.9001,-2.8955,-2.8713,-2.8629,-2.8606,-2.8587,-2.8319,-2.8085,-2.8126,-2.854,-2.9265,-3.0072,-3.0382,-3.0488,-3.0371,-3.0373,-3.0379,-3.0391,-3.0618,-3.0639,-3.0242,-3.027,-3.0454,-3.0783,-3.0955,-3.1271,-3.1935,-3.2133,-3.2261,-3.2688,-3.3097,-3.3025,-1.1909,-1.2061,-1.2305,-1.2323,-1.2407,-1.3051,-1.3012,-1.2438,-1.2319,-1.2098,-1.1704,-1.2062,-1.2605,-1.3329,-1.358,-1.3769,-1.3941,-1.4085,-1.4296,-1.4514,-1.4526,-1.4255,-1.3818,-1.3923,-1.371,-1.3258,-1.3053,-1.3215,-1.362,-1.3796,-1.4082,-1.4419,-1.488,-1.5244,-1.5513,-1.5748,-1.6025,-1.6318,-1.6905,-1.724,-1.731,-1.7895,-1.8386,-1.8669,-1.931,-1.9777,-2.0005,-2.046,-2.0778,-2.0893,-2.1071,-2.1215,-2.1277,-2.0809,-2.1163,0.0,-2.267,0.0,0.0,0.0,0.0,0.0,0.0,0.0,0.0,-2.6688,-2.7124,-2.7615,-2.6802,-2.6612,-2.7393,-2.6965,-2.684,-2.7327,-2.7254,-2.7345,-2.7696,-2.7541,-2.7594,-2.8083,-2.8268,-2.844,-2.8483,-2.8497,-2.8512,-2.8412,-2.8535,-2.8641,-2.8358,-2.8043,-2.7913,-2.7891,-2.8299,-2.9223,-3.0221,-3.0698,-3.0737,-3.0701,-3.0204,-2.998,-3.0038,-3.0171,-3.0068,-2.9726,-2.9732,-2.991,-3.0164,-3.0218,-3.0494,-3.1226,-3.1316,-3.1618,-3.2594,-3.2551,-3.2405,-1.0813,-1.0889,-1.1035,-1.1238,-1.1403,-1.1493,-1.1696,-1.1979,-1.1499,-1.1211,-1.1199,-1.1645,-1.1988,-1.2166,-1.3025,-1.3381,-1.3433,-1.3538,-1.3571,-1.362,-1.3494,-1.3313,-1.3112,-1.3111,-1.3013,-1.2816,-1.2682,-1.2791,-1.3135,-1.3364,-1.38,-1.4373,-1.4777,-1.5187,-1.5748,0.0,0.0,0.0,-1.7086,-1.7393,-1.7828,-1.8228,-1.8595,-1.8903,-1.9265,0.0,-1.999,-2.027,-2.0561,-2.0861,-2.1038,0.0,0.0,0.0,0.0,0.0,0.0,0.0,0.0,0.0,0.0,0.0,-2.725,-2.7355,-2.682,-2.6396,-2.6669,-2.7754,-2.772,-2.764,-2.774,-2.8561,-2.8629,-2.7599,-2.8398,-2.8512,-2.7234,-2.7443,-2.7752,-2.7648,-2.8123,-2.8497,-2.8653,-2.9059,-2.9146,-2.8611,-2.8426,-2.8226,-2.7894,-2.8119,-2.8246,-2.8064,-2.88,-2.9444,-2.925,-2.9803,-2.9879,-2.9037,-2.866,-2.8618,-2.8858,-2.9069,-2.9183,-2.8982,-2.9264,-2.9649,-2.9842,-3.0038,-3.0366,-3.0891,-3.0955,-3.1076,-3.1506,-3.1574,-3.1533,-1.0438,0.0,-1.0743,-1.0816,0.0,-1.0712,-1.0798,-1.1005,-1.0855,-1.0763,-1.08,-1.124,-1.1428,-1.1476,-1.2414,-1.2769,-1.2677,-1.2843,-1.3002,-1.3226,-1.3112,-1.286,-1.2627,-1.2668,-1.2614,-1.242,-1.2485,-1.2676,-1.3065,-1.343,-1.3684,-1.3922,-1.4328,-1.4702,-1.5037,-1.5731,-1.6414,-1.7086,-1.7282,-1.7529,-1.7855,-1.8214,-1.8503,-1.8764,0.0,0.0,0.0,0.0,0.0,0.0,0.0,0.0,0.0,0.0,0.0,-2.3813,-2.4288,-2.4843,-2.5594,-2.6,-2.6379,-2.6792,-2.7316,-2.766,-2.7612,-2.7484,-2.7752,-2.8432,-2.8446,-2.8238,-2.7974,-2.8531,-2.8432,-2.7482,-2.7913,-2.806,-2.7612,-2.7667,-2.7893,-2.8155,-2.8117,-2.8248,-2.8637,-2.8347,-2.826,-2.8216,-2.8091,-2.7804,-2.7382,-2.7611,-2.7753,-2.7881,-2.8723,-2.9445,-2.9411,-2.9468,-2.9562,-2.8928,-2.8498,-2.8348,-2.8525,-2.8684,-2.8889,-2.9137,-2.9441,-2.9681,-2.9957,-3.0172,-3.0417,-3.0651,-3.0814,-3.0975,-3.1095,-3.1173,-3.1269,-1.0085,-1.0307,-1.0461,-1.056,-1.0492,-1.0299,-1.0109,-1.006,0.0,0.0,0.0,-1.0801,-1.0968,-1.1126,-1.1905,-1.2165,-1.2017,-1.2243,-1.2514,-1.2905,-1.2734,-1.2476,-1.2235,-1.2313,-1.2286,-1.2135,-1.2431,-1.2696,-1.3062,-1.346,-1.3545,-1.3389,-1.388,-1.4239,-1.4429,-1.5484,-1.6438,-1.7111,-1.7394,-1.7611,-1.7801,-1.8135,-1.8411,-1.8595,-1.931,-1.9747,-1.9839,-2.0407,-2.0777,-2.0893,-2.1006,-2.1424,-2.2167,-2.2313,-2.2912,-2.4013,-2.424,-2.4616,-2.5257,-2.5529,-2.601,-2.6899,-2.7276,-2.7721,-2.835,-2.8629,-2.8841,-2.9059,-2.8998,-2.8778,-2.8286,-2.8403,-2.8137,-2.7461,-2.7351,-2.7602,-2.7965,-2.7803,-2.7817,-2.8378,-2.8221,-2.8039,-2.8272,-2.7817,-2.7278,-2.7584,-2.7657,-2.7496,-2.7074,-2.7097,-2.7305,-2.7764,-2.8419,-2.91,-2.9416,-2.9546,-2.9381,-2.9234,-2.8801,-2.8589,-2.8795,-2.8873,-2.9121,-2.9592,-2.9726,-2.9902,-3.0146,-3.0316,-3.0468,-3.0526,-3.0773,-3.0942,-3.0864,-3.0926,-3.1077,-0.9243,-0.9373,-0.9602,-0.9656,-0.9682,-0.9775,-0.9639,-0.9461,-0.9725,-1.0085,-1.0534,-1.0704,-1.1015,-1.1294,-1.1832,-1.2026,-1.2002,-1.1964,-1.2061,0.0,-1.1739,-1.1608,-1.1808,-1.1908,-1.2081,-1.2283,-1.252,-1.2686,-1.2781,-1.3041,-1.3114,-1.3095,-1.3707,-1.4401,-1.4992,-1.5971,-1.6547,-1.6784,-1.7384,-1.7842,-1.8123,-1.8361,-1.862,-1.8955,-1.9435,-1.9797,-1.999,-2.0441,-2.0777,-2.0893,-2.1006,-2.1215,-2.1455,-2.207,-2.2475,-2.2701,-2.3268,-2.3708,-2.3837,-2.5029,-2.6336,-2.7574,-2.7697,-2.7872,-2.8334,-2.8291,-2.8489,-2.9058,-2.9517,-2.9564,-2.8983,-2.9699,-2.9589,-2.8253,-2.845,-2.8546,-2.781,-2.7484,-2.7409,-2.7623,-2.8321,-2.84,-2.7676,-2.8174,-2.8349,-2.7698,-2.744,-2.7409,-2.7261,-2.7292,-2.7262,-2.7543,-2.8336,-2.8713,-2.8556,-2.895,-2.9064,-2.8998,-2.8826,-2.8747,-2.9098,-2.9278,-2.9456,-2.9717,-2.9811,-2.9989,-3.0149,-3.0316,-3.0385,-3.0476,-3.0714,-3.065,-3.0335,-3.0273,-3.0451,-0.906,-0.899,-0.9357,-0.9421,-0.9209,-0.896,-0.885,-0.893,-0.8985,-0.9242,-0.978,-1.0233,-1.0397,-1.0427,-1.1152,-1.1335,-1.1138,-1.1381,-1.1576,-1.1773,-1.1556,-1.1528,-1.1751,-1.1572,-1.1659,-1.2034,-1.2043,-1.2161,-1.2341,-1.2663,-1.268,-1.2479,-1.307,-1.3938,-1.4967,-1.571,-1.6255,-1.6704,-1.7344,-1.7842,-1.8095,-1.8268,-1.8503,-1.8774,-1.9398,-1.9833,-2.0045,-2.0512,-2.0893,-2.1055,-2.1119,-2.1392,-2.1859,-2.2216,-2.2572,-2.296,-2.3335,-2.3513,-2.3513,-2.4506,-2.5529,-2.6442,-2.6555,-2.6744,-2.7256,-2.8025,-2.8602,-2.8954,-2.964,-2.9777,-2.9059,-2.9234,-2.8857,-2.774,-2.7829,-2.7868,-2.7795,-2.7823,-2.7973,-2.8352,-2.8512,-2.8478,-2.8287,-2.8231,-2.8278,-2.7832,-2.7372,-2.6827,-2.6489,-2.643,-2.6698,-2.7425,-2.781,-2.7841,-2.7649,-2.7672,-2.7845,-2.7852,-2.785,-2.8028,-2.8361,-2.8575,-2.8718,-2.8885,-2.9067,-2.9108,-2.9222,-2.9287,-2.9499,-2.9969,-2.9861,-2.9727,-2.9859,-2.977,-2.9678,-0.8457,-0.8275,-0.8838,-0.8931,-0.8828,-0.8319,-0.8274,-0.8575,-0.8329,-0.8528,-0.8962,-0.9659,-0.9909,-0.9824,-1.053,-1.0715,-1.0508,-1.084,-1.1175,-1.1427,-1.1427,-1.1569,-1.185,-1.1456,-1.1422,-1.174,-1.1682,-1.1709,-1.1875,-1.2236,-1.2335,-1.2185,-1.2602,-1.3433,-1.4588,-1.5201,-1.5843,-1.649,-1.7196,-1.7693,-1.8042,-1.8189,-1.8386,-1.8745,-1.9369,-1.9869,-2.0115,-2.0646,-2.1007,-2.1135,-2.1167,-2.1488,-2.2102,-2.2151,-2.2394,-2.2945,-2.2977,-2.3155,-2.3462,-2.3964,-2.4608,-2.5335,-2.5524,-2.575,-2.6158,-2.7502,-2.8426,-2.8579,-2.9075,-2.9281,-2.8774,-2.8335,-2.781,-2.7302,-2.7088,-2.7225,-2.7636,-2.781,-2.809,-2.8591,-2.8256,-2.804,-2.8241,-2.7816,-2.7449,-2.753,-2.6942,-2.6102,-2.5672,-2.5693,-2.6268,-2.7,-2.7142,-2.6962,-2.7088,-2.6946,-2.6917,-2.7078,-2.7254,-2.7544,-2.7802,-2.7875,-2.7939,-2.8277,-2.8283,-2.8428,-2.8423,-2.8517,-2.8826,-2.9326,-2.9223,-2.905,-2.9333,-2.8949,-2.8749,-0.6954,-0.6931,-0.7438,-0.7917,-0.836,-0.8232,-0.8316,-0.8463,-0.8206,-0.8226,-0.8482,-0.9279,-0.9811,-1.0104,-1.0407,-1.0482,-1.0482,-1.0683,-1.0972,-1.1267,-1.1175,-1.1469,-1.1999,-1.1756,-1.1685,-1.1714,-1.1885,-1.1753,-1.1491,-1.1765,-1.2086,-1.2447,-1.2733,-1.3154,-1.3792,-1.4572,-1.5292,-1.5888,-1.6655,-1.7417,-1.8121,-1.8361,-1.8659,-1.9049,-1.9515,-1.9874,-2.01,-2.0744,-2.1054,-2.0942,-2.1103,-2.1263,-2.1391,-2.1438,-2.1455,-2.1552,-2.1552,-2.2054,-2.3335,-2.3578,-2.4123,-2.5255,-2.5508,-2.5556,-2.5577,-2.6525,-2.7313,-2.7656,-2.794,-2.8127,-2.7874,-2.7826,-2.7653,-2.7301,-2.7146,-2.715,-2.7055,-2.6774,-2.6611,-2.6581,-2.7115,-2.6942,-2.654,-2.6771,-2.6851,-2.6549,-2.6243,-2.5894,-2.5849,-2.5924,-2.6089,-2.6516,-2.65,-2.6471,-2.6647,-2.6839,-2.6931,-2.7412,-2.764,-2.7704,-2.7859,-2.8059,-2.8301,-2.7866,-2.8191,-2.818,-2.8322,-2.8586,-2.8632,-2.8827,-2.889,-2.8898,-2.851,-2.7994,-2.7837,-0.6485,-0.6354,-0.6955,-0.7498,-0.7879,-0.7734,-0.7773,-0.7923,-0.7775,-0.7784,-0.7942,-0.8743,-0.9286,-0.9599,-0.9933,-1.0198,-1.0419,-1.0667,-1.093,-1.1049,-1.1004,-1.1186,-1.145,-1.1104,-1.1048,-1.1217,-1.1344,-1.1338,-1.1347,-1.167,-1.2197,-1.2789,-1.289,-1.3253,-1.4002,-1.4612,-1.5109,-1.5513,-1.6349,-1.6936,-1.7302,-1.81,-1.8474,-1.8549,-1.9394,-2.003,-2.0308,-2.0826,-2.1087,-2.1135,-2.1214,-2.1246,-2.1294,-2.1294,-2.1294,-2.1294,-2.1294,-2.1762,-2.2766,-2.3219,-2.3864,-2.4772,-2.5357,-2.5567,-2.541,-2.5989,-2.6374,-2.649,-2.7339,-2.7883,-2.7697,-2.7348,-2.6969,-2.6791,-2.6586,-2.6477,-2.6351,-2.6467,-2.6541,-2.6632,-2.6729,-2.6732,-2.6471,-2.6565,-2.6396,-2.5918,-2.5689,-2.5582,-2.5229,-2.5261,-2.5483,-2.5664,-2.5721,-2.5967,-2.6303,-2.6188,-2.6286,-2.6513,-2.6635,-2.6803,-2.7073,-2.7114,-2.7081,-2.7131,-2.7291,-2.7311,-2.7128,-2.7406,-2.7563,-2.8027,-2.844,-2.8408,-2.7866,-2.7604,-2.7621,-0.5839,-0.5799,-0.633,-0.6917,-0.7394,-0.7274,-0.7306,-0.7515,-0.7521,-0.7568,-0.7735,-0.8309,-0.8738,-0.9159,-0.9621,-1.0043,-1.0316,-1.0573,-1.0828,-1.088,-1.0842,-1.0889,-1.1058,-1.0798,-1.0675,-1.0833,-1.1052,-1.1187,-1.1373,-1.1811,-1.2371,-1.2947,-1.3056,-1.3443,-1.4127,-1.4562,-1.4917,-1.5346,-1.6,-1.6347,-1.6543,-1.7545,-1.807,-1.8039,-1.8946,-1.9614,-1.9884,-2.0289,-2.067,-2.0924,-2.1003,-2.1131,-2.1294,-2.1294,-2.1294,-2.1294,-2.1294,-2.173,-2.262,-2.3205,-2.3886,-2.4689,-2.5477,-2.5791,-2.5659,-2.5844,-2.5954,-2.5922,-2.6755,-2.7254,-2.7136,-2.6613,-2.6244,-2.611,-2.5967,-2.5886,-2.5878,-2.6157,-2.6277,-2.6383,-2.6188,-2.6197,-2.6213,-2.6096,-2.5851,-2.5461,-2.5337,-2.5228,-2.4688,-2.4798,-2.5076,-2.5224,-2.541,-2.5696,-2.6083,-2.596,-2.5691,-2.5889,-2.6167,-2.6455,-2.6336,-2.6355,-2.6462,-2.6985,-2.6637,-2.6606,-2.691,-2.6928,-2.6945,-2.747,-2.7876,-2.7987,-2.7687,-2.7618,-2.7752,-0.4647,-0.4803,-0.521,-0.5922,-0.6657,-0.6864,-0.7235,-0.7587,-0.7498,-0.7729,-0.8025,-0.8025,-0.8262,-0.8837,-0.9599,-1.0102,-1.0265,-1.0316,-1.0522,-1.0787,-1.063,-1.0716,-1.1075,-1.1063,-1.0912,-1.0784,-1.1233,-1.1591,-1.1771,-1.2186,-1.2532,-1.2804,-1.3301,-1.3674,-1.3953,-1.4232,-1.4659,-1.5243,-1.5555,-1.575,-1.6023,-1.6872,-1.7474,-1.7665,-1.8046,-1.8454,-1.8701,-1.8954,-1.9404,-2.0045,-2.0231,-2.0613,-2.1164,-2.1309,-2.1309,-2.1294,-2.1294,-2.1908,-2.3108,-2.3418,-2.4088,-2.5314,-2.5829,-2.6208,-2.6046,-2.6189,-2.626,-2.6187,-2.6049,-2.5999,-2.5961,-2.5886,-2.5751,-2.5653,-2.5621,-2.5599,-2.5621,-2.5689,-2.5561,-2.5486,-2.5449,-2.5377,-2.506,-2.5005,-2.5187,-2.5108,-2.5045,-2.5029,-2.5053,-2.5185,-2.5416,-2.5567,-2.5754,-2.5934,-2.5803,-2.5835,-2.5914,-2.604,-2.6432,-2.6919,-2.6825,-2.6766,-2.684,-2.6842,-2.6809,-2.6858,-2.7006,-2.7103,-2.7201,-2.7451,-2.7612,-2.7622,-2.7736,-2.794,-2.8025,-0.4251,-0.4759,-0.5258,-0.5887,-0.6485,-0.6761,-0.7004,-0.713,-0.7114,-0.7241,-0.7466,-0.7598,-0.7999,-0.8575,-0.9033,-0.9438,-0.9718,-0.9999,-1.0205,-1.034,-1.0252,-1.0332,-1.0481,-1.0569,-1.0615,-1.0615,-1.1162,-1.1638,-1.2039,-1.2425,-1.2697,-1.2873,-1.3344,-1.3661,-1.3815,-1.4124,-1.4571,-1.5089,-1.5321,-1.5509,-1.5724,-1.6218,-1.6548,-1.6712,-1.7685,-1.83,-1.8467,-1.8813,-1.9132,-1.9415,-1.9535,-1.99,-2.0613,-2.1097,-2.1324,-2.1309,-2.134,-2.1599,-2.2054,-2.2556,-2.3239,-2.42,-2.4931,-2.5532,-2.5839,-2.6082,-2.6222,-2.6099,-2.5974,-2.5848,-2.5754,-2.553,-2.5323,-2.5301,-2.5301,-2.5355,-2.5448,-2.547,-2.547,-2.5486,-2.5448,-2.5394,-2.5317,-2.524,-2.5201,-2.524,-2.5262,-2.5301,-2.5378,-2.5584,-2.5717,-2.5828,-2.5937,-2.6026,-2.6043,-2.6059,-2.6132,-2.622,-2.6476,-2.6614,-2.6652,-2.6807,-2.6894,-2.6944,-2.6923,-2.7053,-2.7198,-2.7293,-2.7386,-2.7509,-2.7659,-2.7806,-2.795,-2.8109,-2.8219,-0.4149,-0.4649,-0.5226,-0.5767,-0.6202,-0.6465,-0.6691,-0.67,-0.6735,-0.6795,-0.6947,-0.726,-0.7656,-0.8098,-0.8371,-0.8665,-0.8982,-0.9578,-1.0058,-1.0202,-1.0331,-1.0349,-1.0445,-1.0637,-1.0664,-1.0669,-1.1201,-1.1734,-1.215,-1.2615,-1.2873,-1.3,-1.3446,-1.3749,-1.3881,-1.4157,-1.4543,-1.4951,-1.5178,-1.5403,-1.5683,-1.5883,-1.6052,-1.6258,-1.7157,-1.7723,-1.7838,-1.8114,-1.8443,-1.8716,-1.8831,-1.9269,-2.0224,-2.0967,-2.134,-2.1309,-2.1324,-2.1485,-2.1665,-2.2167,-2.285,-2.3602,-2.4263,-2.4924,-2.5638,-2.5857,-2.6009,-2.6106,-2.601,-2.5917,-2.5791,-2.5492,-2.5285,-2.5285,-2.5246,-2.5301,-2.5438,-2.5454,-2.547,-2.5562,-2.56,-2.5637,-2.5637,-2.5562,-2.5546,-2.5567,-2.5567,-2.5605,-2.5717,-2.5844,-2.599,-2.6082,-2.6063,-2.617,-2.6277,-2.6312,-2.6277,-2.6329,-2.677,-2.6756,-2.6725,-2.6928,-2.7028,-2.704,-2.7149,-2.7293,-2.7404,-2.7465,-2.7587,-2.7707,-2.7853,-2.8025,-2.8136,-2.8246,-2.8353,-0.4342,-0.4426,-0.4855,-0.5335,-0.5714,-0.5918,-0.6236,-0.6417,-0.6386,-0.6415,-0.6628,-0.6865,-0.7139,-0.7433,-0.778,-0.7943,-0.8235,-0.9199,-0.9885,-1.0354,-1.0595,-1.0771,-1.0855,-1.1096,-1.1143,-1.0975,-1.1516,-1.192,-1.2174,-1.2685,-1.3047,-1.3391,-1.3695,-1.3974,-1.4203,-1.43,-1.4529,-1.4951,-1.5163,-1.5448,-1.5827,-1.5983,-1.6123,-1.6246,-1.6425,-1.6593,-1.6755,-1.6797,-1.7237,-1.7952,-1.8087,-1.8799,-1.9981,-2.0807,-2.126,-2.1244,-2.1293,-2.1665,-2.2216,-2.2459,-2.2915,-2.367,-2.4129,-2.4575,-2.5293,-2.5413,-2.5564,-2.5999,-2.5886,-2.5717,-2.5558,-2.5415,-2.5443,-2.5663,-2.5492,-2.5492,-2.5589,-2.5513,-2.5454,-2.56,-2.5696,-2.5701,-2.5738,-2.5791,-2.5844,-2.5917,-2.5917,-2.5934,-2.599,-2.6046,-2.6134,-2.6225,-2.6312,-2.6382,-2.6469,-2.6539,-2.6487,-2.6503,-2.7061,-2.7334,-2.7147,-2.7211,-2.7341,-2.7382,-2.7386,-2.7509,-2.7635,-2.7724,-2.7813,-2.7957,-2.8099,-2.8191,-2.83,-2.8362,-2.8466,-0.3633,-0.3725,-0.4255,-0.4659,-0.4938,-0.5213,-0.5503,-0.5634,-0.5741,-0.5924,-0.6057,-0.6336,-0.6744,-0.7126,-0.7301,-0.755,-0.7936,-0.8608,-0.9067,-0.9389,-0.9864,-1.0257,-1.0561,-1.0883,-1.1125,-1.1341,-1.1785,-1.1993,-1.2126,-1.2756,-1.3163,-1.3267,-1.3715,-1.4046,-1.4254,-1.4493,-1.4794,-1.5178,-1.5374,-1.5639,-1.5955,-1.6067,-1.6166,-1.6219,-1.6289,-1.6367,-1.649,-1.6581,-1.677,-1.7088,-1.7251,-1.7791,-1.8799,-2.0007,-2.0641,-2.0661,-2.1097,-2.1499,-2.1835,-2.1995,-2.2401,-2.3088,-2.3333,-2.3682,-2.4297,-2.4365,-2.4464,-2.4763,-2.4527,-2.4374,-2.4357,-2.4339,-2.4729,-2.5587,-2.5626,-2.5561,-2.566,-2.5705,-2.577,-2.5787,-2.5807,-2.5864,-2.5885,-2.5905,-2.5931,-2.6139,-2.6101,-2.6118,-2.626,-2.6262,-2.633,-2.6452,-2.6521,-2.6589,-2.6708,-2.6825,-2.6825,-2.6791,-2.7181,-2.752,-2.7411,-2.7402,-2.7546,-2.7652,-2.7682,-2.7736,-2.7859,-2.7946,-2.8003,-2.8099,-2.8191,-2.83,-2.8414,-2.85,-2.8626,-0.3421,-0.3389,-0.3929,-0.423,-0.4351,-0.4676,-0.4873,-0.4948,-0.5161,-0.526,-0.5358,-0.5626,-0.6093,-0.6546,-0.6742,-0.7052,-0.7543,-0.7906,-0.8222,-0.8596,-0.9517,-1.015,-1.0556,-1.0818,-1.1071,-1.1378,-1.1796,-1.2029,-1.2102,-1.2733,-1.3129,-1.3288,-1.3715,-1.4046,-1.4208,-1.4493,-1.4808,-1.5283,-1.5477,-1.5711,-1.5983,-1.6123,-1.6234,-1.6301,-1.6328,-1.6355,-1.6425,-1.6517,-1.6607,-1.6723,-1.7139,-1.7672,-1.8194,-1.9332,-2.0,-2.0101,-2.0632,-2.1147,-2.1328,-2.1592,-2.1933,-2.2468,-2.2524,-2.2777,-2.3356,-2.3506,-2.3506,-2.3852,-2.3935,-2.3869,-2.3918,-2.3918,-2.4314,-2.5107,-2.5032,-2.5062,-2.5149,-2.5219,-2.5186,-2.5102,-2.5153,-2.5335,-2.5568,-2.5441,-2.5611,-2.5933,-2.605,-2.6067,-2.6253,-2.6404,-2.6539,-2.6657,-2.6708,-2.6808,-2.694,-2.707,-2.7149,-2.7149,-2.725,-2.7434,-2.7442,-2.7517,-2.7639,-2.7777,-2.7824,-2.7882,-2.7986,-2.8003,-2.8042,-2.8182,-2.8327,-2.8466,-2.8619,-2.8664,-2.8785,-0.3402,-0.3404,-0.3778,-0.3917,-0.3967,-0.4246,-0.4386,-0.4428,-0.4621,-0.4735,-0.4776,-0.5101,-0.5415,-0.5766,-0.6214,-0.6582,-0.6927,-0.7327,-0.7722,-0.8307,-0.9329,-1.0266,-1.0864,-1.1103,-1.1197,-1.1298,-1.1664,-1.2041,-1.2294,-1.272,-1.3047,-1.3323,-1.3661,-1.396,-1.413,-1.4319,-1.4732,-1.5268,-1.5463,-1.5755,-1.6067,-1.6151,-1.6289,-1.6448,-1.6409,-1.6425,-1.6463,-1.657,-1.6633,-1.6817,-1.748,-1.7902,-1.8199,-1.8882,-1.9334,-1.9394,-2.0033,-2.0459,-2.0787,-2.128,-2.1724,-2.1903,-2.194,-2.1988,-2.2862,-2.2843,-2.2914,-2.3488,-2.3636,-2.3783,-2.3782,-2.3797,-2.3976,-2.4168,-2.4181,-2.415,-2.4082,-2.423,-2.4397,-2.4298,-2.4182,-2.4413,-2.5146,-2.4812,-2.4955,-2.5387,-2.569,-2.5841,-2.6009,-2.6349,-2.674,-2.6824,-2.6804,-2.6696,-2.6768,-2.6511,-2.6566,-2.6608,-2.68,-2.7103,-2.7417,-2.763,-2.7806,-2.7922,-2.7996,-2.8053,-2.8109,-2.8136,-2.8246,-2.8406,-2.8569,-2.8712,-2.8797,-2.886,-2.8934,-0.2208,-0.2508,-0.2581,-0.2873,-0.3291,-0.3656,-0.3919,-0.4148,-0.4537,-0.4772,-0.4975,-0.5058,-0.5366,-0.5895,-0.6002,-0.6343,-0.6732,-0.7076,-0.7496,-0.7968,-0.8599,-0.967,-1.0695,-1.1287,-1.1482,-1.1459,-1.1811,-1.2102,-1.2222,-1.272,-1.3025,-1.2978,-1.348,-1.3894,-1.4222,-1.4452,-1.4859,-1.5389,-1.561,-1.5812,-1.5996,-1.6191,-1.6301,-1.6409,-1.6425,-1.649,-1.6607,-1.6686,-1.6753,-1.6785,-1.6965,-1.7249,-1.7483,-1.8137,-1.8608,-1.8812,-1.9425,-1.9893,-2.016,-2.0766,-2.1206,-2.1434,-2.1613,-2.2024,-2.2119,-2.2035,-2.2059,-2.2254,-2.2223,-2.2365,-2.2441,-2.2518,-2.2651,-2.2975,-2.3597,-2.4043,-2.4154,-2.4288,-2.4473,-2.4975,-2.4538,-2.4654,-2.5004,-2.4913,-2.4628,-2.4978,-2.5384,-2.5692,-2.5771,-2.6299,-2.6661,-2.6791,-2.6782,-2.6597,-2.6405,-2.6068,-2.5918,-2.5885,-2.6159,-2.6644,-2.7162,-2.7683,-2.7943,-2.8183,-2.8201,-2.8246,-2.8309,-2.837,-2.8518,-2.8619,-2.8767,-2.8887,-2.8948,-2.9023,-2.9114,-0.132,-0.1595,-0.1655,-0.195,-0.2364,-0.2809,-0.317,-0.3491,-0.3876,-0.4268,-0.4578,-0.4578,-0.4884,-0.5496,-0.5572,-0.5867,-0.6343,-0.6774,-0.7238,-0.7787,-0.8578,-0.9533,-1.0456,-1.1163,-1.1457,-1.1474,-1.1822,-1.2041,-1.2258,-1.2697,-1.2873,-1.306,-1.3459,-1.3894,-1.4208,-1.461,-1.4968,-1.5448,-1.5784,-1.6011,-1.6136,-1.6313,-1.6543,-1.6623,-1.6691,-1.6738,-1.6892,-1.685,-1.6866,-1.6975,-1.7025,-1.7084,-1.724,-1.7634,-1.7938,-1.8112,-1.8784,-1.9286,-1.9547,-2.0101,-2.0495,-2.0605,-2.0893,-2.1099,-2.1263,-2.1321,-2.1295,-2.1797,-2.1869,-2.202,-2.2089,-2.2158,-2.2287,-2.2586,-2.3141,-2.3616,-2.3675,-2.3607,-2.385,-2.4117,-2.4032,-2.3964,-2.4756,-2.4286,-2.4202,-2.4425,-2.4781,-2.5017,-2.5201,-2.5915,-2.6411,-2.6415,-2.6347,-2.6096,-2.5988,-2.5773,-2.5614,-2.5567,-2.5709,-2.6161,-2.6801,-2.75,-2.7799,-2.8003,-2.8226,-2.8332,-2.8193,-2.8268,-2.8676,-2.8791,-2.8915,-2.903,-2.9126,-2.9212,-2.9297,-0.0441,-0.0607,-0.0855,-0.106,-0.1368,-0.1887,-0.2377,-0.2642,-0.2948,-0.3388,-0.3788,-0.3744,-0.418,-0.4753,-0.5009,-0.5318,-0.5744,-0.6258,-0.6894,-0.7641,-0.8626,-0.9634,-1.0293,-1.0933,-1.1244,-1.1394,-1.1623,-1.1991,-1.233,-1.2579,-1.2838,-1.3116,-1.3607,-1.3927,-1.4195,-1.4627,-1.5074,-1.5448,-1.5812,-1.6095,-1.6246,-1.6436,-1.6623,-1.6847,-1.6924,-1.6984,-1.7043,-1.7018,-1.705,-1.7281,-1.7264,-1.7281,-1.7354,-1.7465,-1.7536,-1.7683,-1.8232,-1.8663,-1.89,-1.937,-1.9747,-1.9764,-1.9717,-1.9822,-2.0495,-2.0672,-2.095,-2.164,-2.2169,-2.2207,-2.2432,-2.2605,-2.2632,-2.2613,-2.2664,-2.2667,-2.2712,-2.2764,-2.2773,-2.2745,-2.2823,-2.3047,-2.334,-2.3308,-2.312,-2.3786,-2.4205,-2.4545,-2.4816,-2.5338,-2.5645,-2.5712,-2.5595,-2.5464,-2.5437,-2.5433,-2.5397,-2.5344,-2.5512,-2.5877,-2.6393,-2.6986,-2.7385,-2.7622,-2.7598,-2.7556,-2.7471,-2.7778,-2.8419,-2.881,-2.8854,-2.9077,-2.9293,-2.9373,-2.9474,0.1231,0.0833,0.0296,-0.0143,-0.0653,-0.1358,-0.1876,-0.2146,-0.2544,-0.3028,-0.352,-0.348,-0.3792,-0.4408,-0.4526,-0.4787,-0.5226,-0.5696,-0.6337,-0.7543,-0.83,-0.927,-1.0069,-1.0812,-1.1255,-1.1479,-1.1822,-1.2161,-1.2437,-1.265,-1.2943,-1.3163,-1.3459,-1.3828,-1.4189,-1.4483,-1.4921,-1.5389,-1.5668,-1.5955,-1.6234,-1.6398,-1.6559,-1.6743,-1.6914,-1.6965,-1.6933,-1.7066,-1.7207,-1.7281,-1.7224,-1.7208,-1.7329,-1.7361,-1.7439,-1.7612,-1.7782,-1.7979,-1.8183,-1.8741,-1.9164,-1.9174,-1.9521,-1.9976,-2.0016,-2.0135,-2.0461,-2.1015,-2.1326,-2.1725,-2.23,-2.2453,-2.2561,-2.2624,-2.2685,-2.2738,-2.2816,-2.2773,-2.2989,-2.3371,-2.3189,-2.3146,-2.3813,-2.3328,-2.3214,-2.3362,-2.3667,-2.413,-2.4471,-2.4769,-2.4892,-2.4963,-2.4872,-2.4768,-2.4843,-2.4866,-2.4833,-2.4883,-2.5086,-2.5253,-2.5792,-2.6177,-2.6431,-2.6668,-2.6812,-2.6798,-2.679,-2.7413,-2.8051,-2.8399,-2.8783,-2.9015,-2.9228,-2.9418,-2.9608,0.2134,0.1705,0.1206,0.0751,0.0276,-0.036,-0.0893,-0.1295,-0.1606,-0.2184,-0.2763,-0.2812,-0.3167,-0.3788,-0.418,-0.453,-0.4918,-0.5529,-0.6428,-0.7426,-0.8136,-0.891,-0.9755,-1.0495,-1.0992,-1.1356,-1.1664,-1.1993,-1.2282,-1.2544,-1.2768,-1.3047,-1.3344,-1.3648,-1.4072,-1.4452,-1.489,-1.5255,-1.5653,-1.5968,-1.6234,-1.6344,-1.6532,-1.6717,-1.694,-1.7066,-1.7093,-1.7191,-1.7322,-1.7395,-1.7314,-1.7256,-1.7353,-1.7401,-1.7479,-1.7595,-1.7687,-1.7749,-1.7986,-1.82,-1.8455,-1.8495,-1.8886,-1.9202,-1.9433,-1.9576,-1.9957,-2.0484,-2.0858,-2.1215,-2.2022,-2.2151,-2.2349,-2.2738,-2.2799,-2.2825,-2.2902,-2.2893,-2.2972,-2.3415,-2.3196,-2.3255,-2.3333,-2.3228,-2.3242,-2.3344,-2.3245,-2.3638,-2.3628,-2.3917,-2.4073,-2.4131,-2.4111,-2.4129,-2.4222,-2.4241,-2.4221,-2.4296,-2.446,-2.4553,-2.4816,-2.5126,-2.5382,-2.5722,-2.6114,-2.6245,-2.6392,-2.705,-2.7574,-2.8003,-2.84,-2.8798,-2.9175,-2.9514,-2.9663,0.2983,0.256,0.2166,0.1796,0.1389,0.0893,0.0357,-0.0134,-0.0402,-0.0982,-0.1743,-0.1876,-0.2233,-0.2901,-0.3565,-0.4045,-0.457,-0.5351,-0.6124,-0.6923,-0.7536,-0.8407,-0.9262,-0.9864,-1.0485,-1.1121,-1.1394,-1.17,-1.1993,-1.2258,-1.2544,-1.2861,-1.3195,-1.3535,-1.3927,-1.4497,-1.4921,-1.5165,-1.5682,-1.6024,-1.6219,-1.6301,-1.6506,-1.6675,-1.6873,-1.705,-1.7134,-1.7265,-1.7411,-1.7484,-1.7474,-1.7498,-1.7498,-1.7505,-1.7536,-1.7612,-1.7681,-1.7772,-1.79,-1.7973,-1.799,-1.7944,-1.7978,-1.8273,-1.8774,-1.9024,-1.9407,-2.0067,-2.0586,-2.112,-2.1651,-2.1888,-2.2202,-2.2593,-2.2735,-2.2848,-2.3028,-2.3052,-2.3105,-2.3055,-2.3115,-2.3217,-2.3249,-2.3179,-2.3259,-2.3313,-2.3217,-2.3144,-2.3193,-2.3276,-2.3578,-2.3744,-2.3848,-2.3988,-2.4088,-2.4156,-2.4054,-2.4092,-2.4147,-2.4185,-2.4243,-2.4481,-2.4866,-2.5162,-2.5459,-2.5571,-2.5778,-2.6225,-2.6783,-2.7434,-2.7921,-2.8222,-2.8802,-2.955,-2.9622,0.4723,0.4334,0.3594,0.3173,0.2893,0.2176,0.1597,0.1204,0.08,0.0134,-0.0626,-0.0849,-0.1207,-0.1743,-0.2235,-0.281,-0.3558,-0.447,-0.525,-0.5967,-0.6645,-0.7578,-0.8772,-0.9301,-0.9815,-1.0562,-1.1142,-1.1505,-1.1726,-1.2018,-1.2389,-1.272,-1.3207,-1.3581,-1.3947,-1.4433,-1.4918,-1.5209,-1.5624,-1.5896,-1.6108,-1.6274,-1.6382,-1.6517,-1.6675,-1.6821,-1.6991,-1.7133,-1.7273,-1.733,-1.7443,-1.7474,-1.7448,-1.7439,-1.7519,-1.7589,-1.7641,-1.7772,-1.7922,-1.7983,-1.8044,-1.8108,-1.8091,-1.8053,-1.828,-1.8353,-1.8788,-1.9527,-2.0558,-2.1354,-2.0871,-2.1394,-2.1873,-2.21,-2.2253,-2.2476,-2.3012,-2.3183,-2.3194,-2.3157,-2.3151,-2.3151,-2.3241,-2.3289,-2.3319,-2.3365,-2.3342,-2.3319,-2.3342,-2.3412,-2.3552,-2.3683,-2.3757,-2.3907,-2.4051,-2.415,-2.4154,-2.4172,-2.4227,-2.4227,-2.4246,-2.421,-2.4431,-2.4782,-2.48,-2.4783,-2.506,-2.5467,-2.6117,-2.6879,-2.727,-2.7548,-2.8311,-2.8981,-2.9183,0.5348,0.5004,0.4358,0.4025,0.376,0.3178,0.261,0.2238,0.1982,0.1311,0.0578,0.0179,-0.0223,-0.0804,-0.1381,-0.2043,-0.2879,-0.3847,-0.4626,-0.5262,-0.6428,-0.746,-0.861,-0.9102,-0.9864,-1.0572,-1.1057,-1.1367,-1.1527,-1.1957,-1.2318,-1.2673,-1.3173,-1.3615,-1.4032,-1.4511,-1.4904,-1.5255,-1.5638,-1.5911,-1.6095,-1.6301,-1.6394,-1.6448,-1.657,-1.6769,-1.6924,-1.7057,-1.6987,-1.6872,-1.7109,-1.7131,-1.7087,-1.7243,-1.7432,-1.7526,-1.7595,-1.7749,-1.7922,-1.7983,-1.8065,-1.8151,-1.819,-1.8151,-1.8151,-1.8262,-1.8404,-1.8879,-1.9295,-2.0136,-2.0101,-2.0903,-2.1361,-2.1564,-2.1821,-2.2291,-2.27,-2.2834,-2.2972,-2.3158,-2.3223,-2.3282,-2.3435,-2.3458,-2.3417,-2.3417,-2.3405,-2.341,-2.3419,-2.3553,-2.3642,-2.3747,-2.3852,-2.3976,-2.4113,-2.4209,-2.4284,-2.4303,-2.4303,-2.4303,-2.4303,-2.4302,-2.4303,-2.445,-2.4358,-2.4375,-2.4522,-2.5001,-2.5649,-2.6166,-2.6163,-2.6458,-2.7591,-2.8334,-2.8364,0.5761,0.5402,0.5015,0.4734,0.4471,0.4095,0.3743,0.3429,0.3251,0.265,0.1775,0.1513,0.1067,0.04,-0.0133,-0.0837,-0.1846,-0.2898,-0.3687,-0.4612,-0.6168,-0.7453,-0.8317,-0.9213,-0.9981,-1.0649,-1.0981,-1.1303,-1.1501,-1.192,-1.2318,-1.2708,-1.3173,-1.3702,-1.4163,-1.4718,-1.5013,-1.5359,-1.5725,-1.6039,-1.6207,-1.6382,-1.6474,-1.6501,-1.6649,-1.6716,-1.6543,-1.6627,-1.6386,-1.6247,-1.6464,-1.6724,-1.6363,-1.6921,-1.7325,-1.7306,-1.7466,-1.771,-1.7861,-1.7966,-1.8065,-1.8151,-1.8194,-1.8215,-1.8194,-1.8236,-1.8312,-1.8336,-1.8749,-1.8985,-1.9465,-2.0202,-2.0678,-2.0939,-2.139,-2.1935,-2.2126,-2.2296,-2.252,-2.2746,-2.3099,-2.3167,-2.3117,-2.2776,-2.2557,-2.2836,-2.2839,-2.3145,-2.3202,-2.3656,-2.3792,-2.3873,-2.3976,-2.4113,-2.4209,-2.4284,-2.4375,-2.4446,-2.441,-2.4393,-2.441,-2.4409,-2.4428,-2.4445,-2.4481,-2.4515,-2.4532,-2.4607,-2.529,-2.5543,-2.5091,-2.564,-2.7201,-2.7301,-2.6948,0.65,0.5933,0.5864,0.5664,0.5369,0.5098,0.5143,0.526,0.4742,0.4236,0.3571,0.3274,0.2747,0.2131,0.1985,0.1405,0.0307,-0.1095,-0.2413,-0.3655,-0.531,-0.6778,-0.7653,-0.8317,-0.9758,-1.0677,-1.1019,-1.1207,-1.159,-1.2066,-1.2342,-1.2696,-1.3374,-1.3973,-1.4438,-1.489,-1.5418,-1.5623,-1.5812,-1.6011,-1.6191,-1.6344,-1.6409,-1.6436,-1.6512,-1.6349,-1.5924,-1.5955,-1.5679,-1.5188,-1.5814,-1.5889,-1.5561,-1.6741,-1.6957,-1.6947,-1.7138,-1.7732,-1.7844,-1.7944,-1.8027,-1.8117,-1.8149,-1.8222,-1.8173,-1.8243,-1.8339,-1.842,-1.8933,-1.9099,-1.9021,-1.954,-1.9886,-2.0164,-2.0532,-2.1076,-2.1404,-2.1661,-2.188,-2.2045,-2.2317,-2.2402,-2.2437,-2.2002,-2.1676,-2.2006,-2.2316,-2.2626,-2.2861,-2.3189,-2.3682,-2.3687,-2.3746,-2.3879,-2.4082,-2.4173,-2.4226,-2.4383,-2.4478,-2.4442,-2.4497,-2.453,-2.4578,-2.4613,-2.4613,-2.4613,-2.4596,-2.4762,-2.5113,-2.5177,-2.5051,-2.5899,-2.7146,-2.6693,-2.5842,0.7287,0.6839,0.668,0.6604,0.6528,0.6194,0.6206,0.6324,0.6021,0.5588,0.5094,0.4746,0.397,0.3061,0.2832,0.1945,0.0664,-0.0661,-0.2153,-0.364,-0.5338,-0.6932,-0.8154,-0.9013,-1.0089,-1.0657,-1.1282,-1.1726,-1.2018,-1.2366,-1.2754,-1.311,-1.3609,-1.4227,-1.4658,-1.4968,-1.5255,-1.5507,-1.5755,-1.5983,-1.6136,-1.6274,-1.6371,-1.6301,-1.6463,-1.6218,-1.5884,-1.5597,-1.5288,-1.4835,-1.5185,-1.5054,-1.481,-1.5451,-1.5962,-1.5873,-1.6134,-1.685,-1.7647,-1.7832,-1.7902,-1.7941,-1.7838,-1.7567,-1.7748,-1.8158,-1.8445,-1.8582,-1.8902,-1.8979,-1.9002,-1.9596,-1.9687,-1.9829,-1.9973,-2.0369,-2.0821,-2.0998,-2.1195,-2.1338,-2.1463,-2.1545,-2.166,-2.1568,-2.1294,-2.1366,-2.1695,-2.1989,-2.2099,-2.2155,-2.274,-2.3345,-2.3419,-2.3509,-2.3747,-2.3929,-2.3834,-2.3992,-2.4381,-2.44,-2.4561,-2.4613,-2.4676,-2.4692,-2.4695,-2.466,-2.4657,-2.4782,-2.5017,-2.5096,-2.5149,-2.5811,-2.6412,-2.6066,-2.543,0.8105,0.7945,0.7587,0.7559,0.7739,0.7332,0.7335,0.7547,0.7202,0.6774,0.6145,0.5481,0.4413,0.3497,0.3014,0.2213,0.0712,-0.0753,-0.2142,-0.3816,-0.555,-0.6949,-0.7774,-0.8798,-0.9771,-1.0712,-1.0893,-1.1483,-1.2103,-1.252,-1.2881,-1.3504,-1.3973,-1.4388,-1.4783,-1.509,-1.527,-1.5255,-1.5477,-1.5697,-1.5898,-1.6093,-1.6148,-1.6176,-1.6243,-1.6208,-1.5798,-1.5381,-1.4836,-1.4257,-1.4415,-1.4272,-1.382,-1.4697,-1.5184,-1.5213,-1.5436,-1.6129,-1.68,-1.7152,-1.7462,-1.7446,-1.7626,-1.7482,-1.7949,-1.832,-1.8603,-1.8734,-1.8769,-1.8896,-1.9091,-1.9612,-1.9606,-1.9636,-1.9787,-2.0092,-2.0341,-2.0446,-2.0492,-2.0541,-2.0608,-2.0596,-2.0756,-2.1038,-2.1004,-2.0877,-2.1065,-2.1366,-2.1482,-2.1522,-2.2033,-2.2785,-2.2838,-2.2906,-2.3087,-2.3305,-2.3337,-2.3521,-2.3892,-2.4185,-2.4248,-2.4538,-2.4738,-2.4738,-2.4757,-2.4787,-2.4813,-2.4846,-2.4879,-2.5012,-2.5105,-2.5108,-2.5253,-2.5084,-2.5149,0.8948,0.9208,0.859,0.8506,0.8751,0.8493,0.8655,0.8864,0.8299,0.7661,0.6793,0.5503,0.4331,0.3534,0.309,0.2427,0.1326,-0.0088,-0.1512,-0.2913,-0.4333,-0.5961,-0.698,-0.7929,-0.8768,-0.982,-1.0386,-1.1019,-1.1673,-1.2198,-1.2661,-1.3251,-1.3875,-1.4406,-1.4721,-1.4923,-1.4954,-1.4892,-1.4937,-1.5165,-1.5389,-1.5608,-1.5737,-1.5824,-1.5922,-1.5695,-1.479,-1.4536,-1.416,-1.3467,-1.369,-1.3588,-1.3195,-1.4189,-1.4609,-1.4427,-1.4855,-1.5409,-1.5756,-1.6067,-1.6026,-1.6318,-1.6992,-1.7826,-1.8323,-1.8628,-1.8825,-1.8895,-1.8913,-1.8966,-1.9034,-1.9139,-1.9423,-1.9504,-1.9649,-1.9719,-1.9878,-1.9855,-1.9861,-1.9787,-1.9865,-2.0023,-2.01,-2.0447,-2.0494,-2.0369,-2.0499,-2.0823,-2.125,-2.1384,-2.1671,-2.2092,-2.2126,-2.2193,-2.2256,-2.2435,-2.2655,-2.2834,-2.3093,-2.346,-2.3729,-2.4115,-2.4511,-2.4875,-2.4889,-2.495,-2.4896,-2.4727,-2.4683,-2.4949,-2.5032,-2.4915,-2.5031,-2.5124,-2.5186,0.9889,0.9945,0.9796,0.9702,0.9602,0.9436,0.9327,0.9131,0.865,0.778,0.6735,0.5578,0.45,0.3578,0.2783,0.1723,0.0266,-0.0665,-0.2091,-0.3684,-0.5127,-0.6169,-0.7071,-0.7842,-0.8893,-0.9644,-1.0163,-1.0761,-1.163,-1.1752,-1.2162,-1.2742,-1.3289,-1.3828,-1.4141,-1.4256,-1.4173,-1.4114,-1.4173,-1.4365,-1.4662,-1.4925,-1.5137,-1.527,-1.5492,-1.5433,-1.4935,-1.4236,-1.3825,-1.348,-1.3208,-1.2805,-1.2562,-1.3625,-1.3793,-1.3543,-1.4151,-1.4397,-1.4707,-1.5169,-1.5754,-1.6251,-1.7276,-1.8289,-1.8532,-1.8678,-1.8996,-1.9134,-1.9148,-1.9198,-1.9416,-1.9504,-1.9606,-1.9555,-1.9541,-1.9541,-1.956,-1.9592,-1.962,-1.9716,-1.9731,-1.982,-1.9851,-1.9894,-1.9888,-1.9845,-2.0038,-2.0265,-2.0695,-2.0975,-2.1171,-2.1381,-2.1446,-2.1492,-2.155,-2.1802,-2.206,-2.2167,-2.2274,-2.2735,-2.3145,-2.3623,-2.402,-2.4523,-2.4917,-2.4822,-2.4681,-2.4465,-2.4503,-2.4782,-2.4748,-2.4583,-2.48,-2.5158,-2.5255,1.0504,1.0443,1.0523,1.0421,1.0199,1.0036,0.963,0.9076,0.861,0.757,0.6192,0.5326,0.4279,0.3187,0.2392,0.1241,-0.0133,-0.1066,-0.2454,-0.3576,-0.453,-0.5602,-0.6617,-0.7353,-0.7752,-0.8884,-0.9656,-1.0153,-1.0809,-1.1025,-1.1249,-1.1549,-1.1822,-1.2292,-1.32,-1.3153,-1.296,-1.2877,-1.2817,-1.3134,-1.3434,-1.3413,-1.3939,-1.4148,-1.4463,-1.4583,-1.4414,-1.3943,-1.361,-1.3249,-1.2926,-1.2529,-1.2562,-1.2738,-1.2959,-1.3103,-1.3244,-1.3462,-1.3869,-1.4692,-1.5835,-1.6642,-1.7576,-1.8193,-1.842,-1.8792,-1.918,-1.9344,-1.942,-1.9536,-1.9699,-1.9712,-1.9707,-1.9662,-1.9641,-1.9641,-1.9614,-1.9614,-1.9641,-1.9699,-1.9726,-1.9781,-1.9816,-1.987,-1.9823,-1.9788,-1.9838,-1.9963,-2.0069,-2.0289,-2.0333,-2.0552,-2.0752,-2.08,-2.0854,-2.1017,-2.1168,-2.1256,-2.1495,-2.2064,-2.2519,-2.3038,-2.3644,-2.4231,-2.4507,-2.4568,-2.4441,-2.4216,-2.4368,-2.4632,-2.4664,-2.4763,-2.4957,-2.5312,-2.5329,1.0785,1.0666,1.0559,1.0469,1.0376,1.0196,0.96,0.8715,0.8154,0.712,0.5604,0.4526,0.347,0.2534,0.1952,0.0978,0.0,-0.0802,-0.1666,-0.2411,-0.3234,-0.3614,-0.4342,-0.5323,-0.6542,-0.678,-0.7811,-0.8923,-0.9579,-0.9499,-0.9829,-1.0089,-1.0139,-1.05,-1.2081,-1.1949,-1.1662,-1.1417,-1.1018,-1.1386,-1.1784,-1.1628,-1.2197,-1.3017,-1.3342,-1.3525,-1.3845,-1.3515,-1.3216,-1.3178,-1.2704,-1.2446,-1.2558,-1.2811,-1.2995,-1.3085,-1.3346,-1.356,-1.3808,-1.4783,-1.5871,-1.7009,-1.7819,-1.8431,-1.8992,-1.9292,-1.9326,-1.9453,-1.9504,-1.9601,-1.9694,-1.9757,-1.9782,-1.9788,-1.9751,-1.9712,-1.9673,-1.9641,-1.9662,-1.9701,-1.9769,-1.9802,-1.9866,-1.9896,-1.987,-1.9823,-1.9751,-1.9738,-1.9788,-1.9892,-2.0032,-2.0164,-2.0408,-2.0439,-2.0469,-2.025,-2.0269,-2.0374,-2.0746,-2.1386,-2.2026,-2.259,-2.3214,-2.3868,-2.4023,-2.3986,-2.4005,-2.3984,-2.4149,-2.4351,-2.4986,-2.5206,-2.5378,-2.5423,-2.5437,1.1157,1.0637,1.0599,1.0184,0.9661,0.9815,0.9213,0.799,0.682,0.5899,0.513,0.4045,0.3296,0.2581,0.1736,0.0936,0.0089,-0.0626,-0.1274,-0.1968,-0.239,-0.3002,-0.3643,-0.4472,-0.5471,-0.634,-0.7208,-0.7795,-0.8407,-0.823,-0.839,-0.8619,-0.8638,-0.9161,-1.0062,-1.0379,-1.0517,-0.9862,-0.9723,-1.0006,-1.0684,-1.0698,-1.1125,-1.2329,-1.2543,-1.2948,-1.3565,-1.312,-1.2968,-1.3151,-1.2759,-1.2394,-1.2581,-1.2869,-1.2977,-1.3138,-1.3413,-1.3833,-1.4368,-1.5163,-1.5762,-1.6767,-1.7837,-1.8614,-1.9099,-1.9248,-1.936,-1.9497,-1.956,-1.9681,-1.9806,-1.9842,-1.9854,-1.9842,-1.9825,-1.9751,-1.9725,-1.9675,-1.9701,-1.9738,-1.9793,-1.9907,-1.999,-2.0,-1.9958,-1.9936,-1.9892,-1.9873,-1.9926,-1.9979,-2.0087,-2.0146,-2.0259,-2.0229,-2.0188,-2.0169,-2.0178,-2.034,-2.0521,-2.0856,-2.147,-2.2094,-2.2669,-2.3225,-2.333,-2.3405,-2.3446,-2.3543,-2.3748,-2.4076,-2.4896,-2.5363,-2.5401,-2.5453,-2.5483,1.1439,1.0703,1.0603,1.0021,0.9222,0.939,0.874,0.7384,0.6118,0.5443,0.5053,0.4128,0.3646,0.3202,0.2271,0.1381,0.0668,-0.0089,-0.067,-0.1424,-0.1603,-0.1985,-0.2723,-0.364,-0.416,-0.5169,-0.6085,-0.6719,-0.6803,-0.6969,-0.7008,-0.7017,-0.7107,-0.7301,-0.7923,-0.8379,-0.8968,-0.8505,-0.8451,-0.8658,-0.9273,-0.9766,-1.0396,-1.1422,-1.2092,-1.2647,-1.3082,-1.3052,-1.2743,-1.3084,-1.2875,-1.2399,-1.2681,-1.2924,-1.3031,-1.3191,-1.3463,-1.3913,-1.4455,-1.5134,-1.5583,-1.6,-1.7604,-1.8672,-1.9093,-1.9292,-1.9431,-1.955,-1.9577,-1.9645,-1.9729,-1.9783,-1.9881,-1.9858,-1.9823,-1.9782,-1.9801,-1.9763,-1.9757,-1.9793,-1.9892,-2.0019,-2.0098,-2.0098,-2.0069,-2.0059,-2.0049,-2.003,-2.004,-2.0088,-2.0153,-2.0188,-2.0238,-2.025,-2.0284,-2.0299,-2.0306,-2.032,-2.0455,-2.0629,-2.0925,-2.1543,-2.2079,-2.2615,-2.2919,-2.3107,-2.2985,-2.3081,-2.3527,-2.4212,-2.5123,-2.5409,-2.5418,-2.5471,-2.5506,1.1664,1.0954,1.0697,0.9991,0.9136,0.9056,0.8226,0.7021,0.6289,0.5782,0.5361,0.4482,0.4224,0.4316,0.3164,0.245,0.1912,0.1026,0.0401,-0.0134,-0.0491,-0.0847,-0.1292,-0.1949,-0.2605,-0.3265,-0.3913,-0.4503,-0.4876,-0.4933,-0.4986,-0.5101,-0.5136,-0.5338,-0.5767,-0.6341,-0.7097,-0.7175,-0.7193,-0.7624,-0.8388,-0.8553,-0.9542,-1.0601,-1.1467,-1.2164,-1.2615,-1.2755,-1.2922,-1.2998,-1.278,-1.2728,-1.2869,-1.3138,-1.3138,-1.3261,-1.3526,-1.3859,-1.4236,-1.4916,-1.5296,-1.5735,-1.6943,-1.8207,-1.889,-1.8982,-1.8939,-1.9202,-1.935,-1.9445,-1.9536,-1.9696,-1.9843,-1.9832,-1.9809,-1.9816,-1.9866,-1.9877,-1.9851,-1.9907,-2.001,-2.0117,-2.0136,-2.0145,-2.0145,-2.0108,-2.0098,-2.0108,-2.0107,-2.0161,-2.0195,-2.0219,-2.0272,-2.0314,-2.0334,-2.036,-2.0392,-2.0379,-2.041,-2.0545,-2.0809,-2.1061,-2.1629,-2.2202,-2.2691,-2.2906,-2.2989,-2.3193,-2.3534,-2.4321,-2.506,-2.539,-2.5383,-2.548,-2.5543,1.192,1.1479,1.0764,1.0108,0.9509,0.8846,0.7995,0.7118,0.6435,0.5836,0.5183,0.5048,0.4787,0.4268,0.4037,0.3588,0.2882,0.2131,0.1644,0.1114,0.0447,0.0134,-0.0223,-0.0577,-0.1019,-0.1353,-0.1718,-0.2044,-0.2041,-0.228,-0.2592,-0.2613,-0.2993,-0.3292,-0.3803,-0.4323,-0.52,-0.592,-0.6008,-0.6841,-0.7593,-0.7818,-0.8934,-1.0002,-1.0598,-1.139,-1.2275,-1.2166,-1.2564,-1.3699,-1.2741,-1.2474,-1.3225,-1.3028,-1.2889,-1.351,-1.3761,-1.397,-1.4186,-1.4485,-1.4875,-1.5337,-1.618,-1.7146,-1.7886,-1.819,-1.8114,-1.8534,-1.8777,-1.8782,-1.8915,-1.9111,-1.9306,-1.9401,-1.9541,-1.9881,-1.9922,-1.9936,-1.9939,-1.9991,-2.0108,-2.0145,-2.0164,-2.0209,-2.0199,-2.0153,-2.0144,-2.0153,-2.018,-2.023,-2.0235,-2.025,-2.0314,-2.0334,-2.0377,-2.0408,-2.0418,-2.0448,-2.0454,-2.0454,-2.0589,-2.0886,-2.1308,-2.1731,-2.2172,-2.2691,-2.3143,-2.3229,-2.3058,-2.3934,-2.4693,-2.505,-2.5347,-2.5459,-2.5542,1.2102,1.1737,1.1217,1.0601,0.9864,0.9016,0.825,0.7663,0.6992,0.6301,0.5744,0.5524,0.5265,0.4957,0.46,0.416,0.3847,0.2527,0.1954,0.1781,0.1297,0.0983,0.0758,0.0799,0.075,0.0521,0.0344,0.0129,0.0479,0.0395,0.0088,-0.1283,-0.115,-0.1504,-0.2236,-0.2802,-0.3541,-0.4477,-0.5314,-0.6194,-0.6876,-0.7491,-0.8601,-0.9542,-0.99,-1.0981,-1.1961,-1.1627,-1.2502,-1.3684,-1.2595,-1.2576,-1.3207,-1.3051,-1.3159,-1.3715,-1.3821,-1.398,-1.4186,-1.4312,-1.4678,-1.4995,-1.5307,-1.6054,-1.6806,-1.7281,-1.7516,-1.7849,-1.7903,-1.7986,-1.8181,-1.8394,-1.8607,-1.8837,-1.9368,-1.9907,-1.9988,-2.0,-2.004,-2.0088,-2.0135,-2.0153,-2.0199,-2.0244,-2.0252,-2.019,-2.019,-2.0188,-2.0205,-2.0246,-2.0235,-2.025,-2.0308,-2.0369,-2.0404,-2.0434,-2.0464,-2.0468,-2.0488,-2.0488,-2.0478,-2.0627,-2.1005,-2.1317,-2.1604,-2.2312,-2.316,-2.2533,-2.2396,-2.343,-2.431,-2.4599,-2.5017,-2.5418,-2.552,1.233,1.192,1.1763,1.1084,1.0147,0.9315,0.879,0.8513,0.7773,0.7189,0.6592,0.6118,0.5996,0.5782,0.5255,0.4904,0.4461,0.345,0.2879,0.2487,0.214,0.1958,0.2125,0.2176,0.2464,0.2369,0.2314,0.2466,0.2873,0.2669,0.1627,-0.0178,0.0797,0.0619,-0.0574,-0.1102,-0.1911,-0.3101,-0.4115,-0.5059,-0.644,-0.7402,-0.8345,-0.9391,-1.0168,-1.1011,-1.1547,-1.1845,-1.2081,-1.2613,-1.2759,-1.2671,-1.2959,-1.3243,-1.3559,-1.3806,-1.3877,-1.4037,-1.4195,-1.4306,-1.435,-1.4502,-1.4573,-1.5162,-1.5859,-1.6321,-1.6611,-1.7045,-1.7171,-1.6958,-1.7055,-1.7756,-1.8183,-1.8393,-1.8802,-1.9295,-1.9563,-1.9764,-2.0117,-2.0162,-2.0197,-2.0205,-2.019,-2.0235,-2.0233,-2.0199,-2.0199,-2.0205,-2.0222,-2.0254,-2.0258,-2.0238,-2.0315,-2.0399,-2.0439,-2.0473,-2.0482,-2.0506,-2.0526,-2.0506,-2.0495,-2.0585,-2.0678,-2.1363,-2.2103,-2.2537,-2.299,-2.2405,-2.2344,-2.3352,-2.4037,-2.4178,-2.4564,-2.5066,-2.5528,1.3047,1.2685,1.1693,1.0885,1.0196,0.9355,0.9041,0.8967,0.8496,0.7713,0.6917,0.6923,0.6719,0.6252,0.6252,0.6076,0.5642,0.4635,0.4461,0.3934,0.3369,0.3346,0.3716,0.388,0.4293,0.4768,0.489,0.4714,0.4556,0.4262,0.3919,0.3037,0.3218,0.2378,0.1098,0.0615,-0.0307,-0.1708,-0.2423,-0.4161,-0.6235,-0.6969,-0.7787,-0.858,-0.9334,-0.9937,-1.0509,-1.103,-1.2005,-1.3003,-1.2396,-1.2437,-1.2834,-1.3141,-1.3477,-1.3776,-1.3963,-1.4119,-1.4229,-1.4319,-1.4362,-1.4446,-1.457,-1.4729,-1.5011,-1.5254,-1.5631,-1.6148,-1.6318,-1.6064,-1.6148,-1.699,-1.77,-1.7918,-1.8193,-1.864,-1.9088,-1.9563,-2.0028,-2.0156,-2.0196,-2.0238,-2.0216,-2.0208,-2.0197,-2.0205,-2.0214,-2.0203,-2.0214,-2.023,-2.028,-2.0282,-2.0334,-2.0404,-2.0464,-2.0491,-2.0504,-2.0593,-2.0632,-2.0593,-2.0589,-2.0893,-2.1284,-2.2114,-2.2824,-2.2965,-2.285,-2.2441,-2.2635,-2.3392,-2.3467,-2.3468,-2.4022,-2.4569,-2.5208,1.3501,1.3216,1.2069,1.1361,1.0905,1.0127,0.9732,0.9637,0.9306,0.873,0.7982,0.7874,0.7467,0.6923,0.7147,0.7034,0.6598,0.5599,0.5277,0.4967,0.4833,0.4767,0.5033,0.5562,0.6127,0.668,0.7079,0.6947,0.5998,0.6052,0.5828,0.4962,0.4569,0.4062,0.285,0.2186,0.1203,-0.0258,-0.069,-0.2449,-0.5067,-0.5543,-0.6102,-0.6892,-0.7804,-0.853,-0.9459,-1.0108,-1.1287,-1.243,-1.2397,-1.2577,-1.2918,-1.3227,-1.3523,-1.3818,-1.405,-1.4211,-1.4293,-1.4331,-1.435,-1.4417,-1.4504,-1.4644,-1.4648,-1.4912,-1.5104,-1.5537,-1.562,-1.5428,-1.559,-1.626,-1.6723,-1.7015,-1.7574,-1.8125,-1.8523,-1.8929,-1.9304,-1.9515,-1.9788,-2.0235,-2.0222,-2.0214,-2.023,-2.0257,-2.0238,-2.0235,-2.0238,-2.0219,-2.028,-2.0308,-2.0357,-2.0415,-2.0478,-2.0504,-2.0506,-2.061,-2.0711,-2.1279,-2.1597,-2.1643,-2.1968,-2.2401,-2.2715,-2.281,-2.2632,-2.226,-2.246,-2.3066,-2.291,-2.2655,-2.3397,-2.4246,-2.4915,1.3875,1.3617,1.2683,1.2164,1.1847,1.1047,1.0614,1.0457,1.0176,0.9933,0.9619,0.8996,0.8358,0.7931,0.7807,0.744,0.7098,0.6693,0.6331,0.6198,0.6114,0.6331,0.6665,0.7107,0.7595,0.8059,0.8448,0.7837,0.6926,0.7196,0.6987,0.5944,0.5567,0.5308,0.4445,0.3556,0.2532,0.1377,0.0545,-0.0296,-0.1732,-0.3114,-0.4213,-0.5209,-0.6166,-0.7165,-0.8105,-0.9109,-1.015,-1.1383,-1.2281,-1.2713,-1.2905,-1.3143,-1.3506,-1.3786,-1.4023,-1.415,-1.4216,-1.4242,-1.4237,-1.4275,-1.4386,-1.446,-1.4475,-1.4619,-1.4813,-1.4934,-1.5014,-1.5123,-1.5285,-1.5472,-1.5877,-1.6252,-1.6914,-1.7606,-1.7991,-1.8413,-1.8739,-1.9025,-1.9545,-2.0096,-2.0212,-2.0204,-2.0242,-2.0269,-2.0296,-2.0304,-2.0292,-2.028,-2.0288,-2.0334,-2.0374,-2.0444,-2.0487,-2.0515,-2.0516,-2.06,-2.0837,-2.182,-2.252,-2.2342,-2.2206,-2.2185,-2.2452,-2.2715,-2.2474,-2.2062,-2.2385,-2.2842,-2.2862,-2.2841,-2.3593,-2.4372,-2.4857,1.4278,1.394,1.3179,1.266,1.2247,1.118,1.085,1.1008,1.056,1.0522,1.0733,1.0695,1.0108,0.8886,0.8788,0.8496,0.8047,0.7811,0.7803,0.7747,0.7725,0.8051,0.8383,0.8593,0.8899,0.9178,0.9306,0.8884,0.822,0.8292,0.83,0.7893,0.7126,0.6649,0.5978,0.5009,0.385,0.2742,0.1976,0.1248,0.0042,-0.1436,-0.303,-0.414,-0.5179,-0.5672,-0.634,-0.7364,-0.8808,-1.0344,-1.1843,-1.2461,-1.2749,-1.2929,-1.3294,-1.3646,-1.387,-1.4064,-1.4119,-1.4198,-1.4211,-1.4211,-1.4326,-1.4426,-1.4504,-1.4678,-1.4813,-1.4868,-1.494,-1.4982,-1.5104,-1.5128,-1.5418,-1.567,-1.6146,-1.6941,-1.7526,-1.8131,-1.8659,-1.9027,-1.9503,-1.9876,-2.0121,-2.0153,-2.0211,-2.025,-2.032,-2.0308,-2.0321,-2.0315,-2.0341,-2.0352,-2.0385,-2.0425,-2.0487,-2.0499,-2.0519,-2.0606,-2.0831,-2.1606,-2.2243,-2.2729,-2.2658,-2.2307,-2.2505,-2.2831,-2.2473,-2.1811,-2.2314,-2.2734,-2.2971,-2.324,-2.3891,-2.4311,-2.4642]}]]